[[{"header":{"parameterUnit":"m.s-1","parameterCategory":1,"la1":30.6,"la2":28.766,"lo1":-90.7593,"lo2":-88.6598,"dy":0.0162,"dx":0.0183,"nx":116,"ny":114,"refTime":"2023-10-14T18:00:00:Z","depth":0,"parameterNumber":2,"parameterNumberName":"U-component_of_WINDS"},"data":[0.0,0.0,0.0,0.0,0.0,0.0,0.0,0.0,0.0,0.0,0.0,0.0,0.0,0.0,0.0,0.0,0.0,0.0,0.0,0.0,0.0,0.0,0.0,0.0,0.0,0.0,0.0,0.0,0.0,0.0,0.0,0.0,0.0,0.0,0.0,0.0,0.0,0.0,0.0,0.0,0.0,0.0,0.0,0.0,0.0,0.0,0.0,0.0,0.0,0.0,0.0,0.0,0.0,0.0,0.0,0.0,0.0,0.0,0.0,0.0,0.0,0.0,0.0,0.0,0.0,0.0,0.0,0.0,0.0,0.0,0.0,0.0,0.0,0.0,0.0,0.0,0.0,0.0,0.0,0.0,0.0,0.0,0.0,0.0,0.0,0.0,0.0,0.0,0.0,0.0,0.0,0.0,0.0,0.0,0.0,0.0,0.0,0.0,0.0,0.0,0.0,0.0,0.0,0.0,0.0,0.0,0.0,0.0,0.0,0.0,0.0,0.0,0.0,0.0,0.0,0.0,0.0,0.0,0.0,0.0,0.0,0.0,0.0,0.0,0.0,0.0,0.0,0.0,0.0,0.0,0.0,0.0,0.0,0.0,0.0,0.0,0.0,0.0,0.0,0.0,0.0,0.0,0.0,0.0,0.0,0.0,0.0,0.0,0.0,0.0,0.0,0.0,0.0,0.0,0.0,0.0,0.0,0.0,0.0,0.0,0.0,0.0,0.0,0.0,0.0,0.0,0.0,0.0,0.0,0.0,0.0,0.0,0.0,0.0,0.0,0.0,0.0,0.0,0.0,0.0,0.0,0.0,0.0,0.0,0.0,0.0,0.0,0.0,0.0,0.0,0.0,0.0,0.0,0.0,0.0,0.0,0.0,0.0,0.0,0.0,0.0,0.0,0.0,0.0,0.0,0.0,0.0,0.0,0.0,0.0,0.0,0.0,0.0,0.0,0.0,0.0,0.0,0.0,0.0,0.0,0.0,0.0,0.0,0.0,0.0,0.0,0.0,0.0,0.0,0.0,0.0,0.0,0.0,0.0,0.0,0.0,0.0,0.0,0.0,0.0,0.0,0.0,0.0,0.0,0.0,0.0,0.0,0.0,0.0,0.0,0.0,0.0,0.0,0.0,0.0,0.0,0.0,0.0,0.0,0.0,0.0,0.0,0.0,0.0,0.0,0.0,0.0,0.0,0.0,0.0,0.0,0.0,0.0,0.0,0.0,0.0,0.0,0.0,0.0,0.0,0.0,0.0,0.0,0.0,0.0,0.0,0.0,0.0,0.0,0.0,0.0,0.0,0.0,0.0,0.0,0.0,0.0,0.0,0.0,0.0,0.0,0.0,0.0,0.0,0.0,0.0,0.0,0.0,0.0,0.0,0.0,0.0,0.0,0.0,0.0,0.0,0.0,0.0,0.0,0.0,0.0,0.0,0.0,0.0,0.0,0.0,0.0,0.0,0.0,0.0,0.0,0.0,0.0,0.0,0.0,0.0,0.0,0.0,0.0,0.0,0.0,0.0,0.0,0.0,0.0,0.0,0.0,0.0,0.0,0.0,0.0,0.0,0.0,0.0,0.0,0.0,0.0,0.0,0.0,0.0,0.0,0.0,0.0,0.0,0.0,0.0,0.0,0.0,0.0,0.0,0.0,0.0,0.0,0.0,0.0,0.0,0.0,0.0,0.0,0.0,0.0,0.0,0.0,0.0,0.0,0.0,0.0,0.0,0.0,0.0,0.0,0.0,0.0,0.0,0.0,0.0,0.0,0.0,0.0,0.0,0.0,0.0,0.0,0.0,0.0,0.0,0.0,0.0,0.0,0.0,0.0,0.0,0.0,0.0,0.0,0.0,0.0,0.0,0.0,0.0,0.0,0.0,0.0,0.0,0.0,0.0,0.0,0.0,0.0,0.0,0.0,0.0,0.0,0.0,0.0,0.0,0.0,0.0,0.0,0.0,0.0,0.0,0.0,0.0,0.0,0.0,0.0,0.0,0.0,0.0,0.0,0.0,0.0,0.0,0.0,0.0,0.0,0.0,0.0,0.0,0.0,0.0,0.0,0.0,0.0,0.0,0.0,0.0,0.0,0.0,0.0,0.0,0.0,0.0,0.0,0.0,0.0,0.0,0.0,0.0,0.0,0.0,0.0,0.0,0.0,0.0,0.0,0.0,0.0,0.0,0.0,0.0,0.0,0.0,0.0,0.0,0.0,0.0,0.0,0.0,0.0,0.0,0.0,0.0,0.0,0.0,0.0,0.0,0.0,0.0,0.0,0.0,0.0,0.0,0.0,0.0,0.0,0.0,0.0,0.0,0.0,0.0,0.0,0.0,0.0,0.0,0.0,0.0,0.0,0.0,0.0,0.0,0.0,0.0,0.0,0.0,0.0,0.0,0.0,0.0,0.0,0.0,0.0,0.0,0.0,0.0,0.0,0.0,0.0,0.0,0.0,0.0,0.0,0.0,0.0,0.0,0.0,0.0,0.0,0.0,0.0,0.0,0.0,0.0,0.0,0.0,0.0,0.0,0.0,0.0,0.0,0.0,0.0,0.0,0.0,0.0,0.0,0.0,0.0,0.0,0.0,0.0,0.0,0.0,0.0,0.0,0.0,0.0,0.0,0.0,0.0,0.0,0.0,0.0,0.0,0.0,0.0,0.0,0.0,0.0,0.0,0.0,0.0,0.0,0.0,0.0,0.0,0.0,0.0,0.0,0.0,0.0,0.0,0.0,0.0,0.0,0.0,0.0,0.0,0.0,0.0,0.0,0.0,0.0,0.0,0.0,0.0,0.0,0.0,0.0,0.0,0.0,0.0,0.0,0.0,0.0,0.0,0.0,0.0,0.0,0.0,0.0,0.0,0.0,0.0,0.0,0.0,0.0,0.0,0.0,0.0,0.0,0.0,0.0,0.0,0.0,0.0,0.0,0.0,0.0,0.0,0.0,0.0,0.0,0.0,0.0,0.0,0.0,0.0,0.0,0.0,0.0,0.0,0.0,0.0,0.0,0.0,0.0,0.0,0.0,0.0,0.0,0.0,0.0,0.0,0.0,0.0,0.0,0.0,0.0,0.0,0.0,0.0,0.0,0.0,0.0,0.0,0.0,0.0,0.0,0.0,0.0,0.0,0.0,0.0,0.0,0.0,0.0,0.0,0.0,0.0,0.0,0.0,0.0,0.0,0.0,0.0,0.0,0.0,0.0,0.0,0.0,0.0,0.0,0.0,0.0,0.0,0.0,0.0,0.0,0.0,0.0,0.0,0.0,0.0,0.0,0.0,0.0,0.0,0.0,0.0,0.0,0.0,0.0,0.0,0.0,0.0,0.0,0.0,0.0,0.0,0.0,0.0,0.0,0.0,0.0,0.0,0.0,0.0,0.0,0.0,0.0,0.0,0.0,0.0,0.0,0.0,0.0,0.0,0.0,0.0,0.0,0.0,0.0,0.0,0.0,0.0,0.0,0.0,0.0,0.0,0.0,0.0,0.0,0.0,0.0,0.0,0.0,0.0,0.0,0.0,0.0,0.0,0.0,0.0,0.0,0.0,0.0,0.0,0.0,0.0,0.0,0.0,0.0,0.0,0.0,0.0,0.0,0.0,0.0,0.0,0.0,0.0,0.0,0.0,0.0,0.0,0.0,0.0,0.0,0.0,0.0,0.0,0.0,0.0,0.0,0.0,0.0,0.0,0.0,0.0,0.0,0.0,0.0,0.0,0.0,0.0,0.0,0.0,0.0,0.0,0.0,0.0,0.0,0.0,0.0,0.0,0.0,0.0,0.0,0.0,0.0,0.0,0.0,0.0,0.0,0.0,0.0,0.0,0.0,0.0,0.0,0.0,0.0,0.0,0.0,0.0,0.0,0.0,0.0,0.0,0.0,0.0,0.0,0.0,0.0,0.0,0.0,0.0,0.0,0.0,0.0,0.0,0.0,0.0,0.0,0.0,0.0,0.0,0.0,0.0,0.0,0.0,0.0,0.0,0.0,0.0,0.0,0.0,0.0,0.0,0.0,0.0,0.0,0.0,0.0,0.0,0.0,0.0,0.0,0.0,0.0,0.0,0.0,0.0,0.0,0.0,0.0,0.0,0.0,0.0,0.0,0.0,0.0,0.0,0.0,0.0,0.0,0.0,0.0,0.0,0.0,0.0,0.0,0.0,0.0,0.0,0.0,0.0,0.0,0.0,0.0,0.0,0.0,0.0,0.0,0.0,0.0,0.0,0.0,0.0,0.0,0.0,0.0,0.0,0.0,0.0,0.0,0.0,0.0,0.0,0.0,0.0,0.0,0.0,0.0,0.0,0.0,0.0,0.0,0.0,0.0,0.0,0.0,0.0,0.0,0.0,0.0,0.0,0.0,0.0,0.0,0.0,0.0,0.0,0.0,0.0,0.0,0.0,0.0,0.0,0.0,0.0,0.0,0.0,0.0,0.0,0.0,0.0,0.0,0.0,0.0,0.0,0.0,0.0,0.0,0.0,0.0,0.0,0.0,0.0,0.0,0.0,0.0,0.0,0.0,0.0,0.0,0.0,0.0,0.0,0.0,0.0,0.0,0.0,0.0,0.0,0.0,0.0,0.0,0.0,0.0,0.0,0.0,0.0,0.0,0.0,0.0,0.0,0.0,0.0,0.0,0.0,0.0,0.0,0.0,0.0,0.0,0.0,0.0,0.0,0.0,0.0,0.0,0.0,0.0,0.0,0.0,0.0,0.0,0.0,0.0,0.0,0.0,0.0,0.0,0.0,0.0,0.0,0.0,0.0,0.0,0.0,0.0,0.0,0.0,0.0,0.0,0.0,0.0,0.0,0.0,0.0,0.0,0.0,0.0,0.0,0.0,0.0,0.0,0.0,0.0,0.0,0.0,0.0,0.0,0.0,0.0,0.0,0.0,0.0,0.0,0.0,0.0,0.0,0.0,0.0,0.0,0.0,0.0,0.0,0.0,0.0,0.0,0.0,0.0,0.0,0.0,0.0,0.0,0.0,0.0,0.0,0.0,0.0,0.0,0.0,0.0,0.0,0.0,0.0,0.0,0.0,0.0,0.0,0.0,0.0,0.0,0.0,0.0,0.0,0.0,0.0,0.0,0.0,0.0,0.0,0.0,0.0,0.0,0.0,0.0,0.0,0.0,0.0,0.0,0.0,0.0,0.0,0.0,0.0,0.0,0.0,0.0,0.0,0.0,0.0,0.0,0.0,0.0,0.0,0.0,0.0,0.0,0.0,0.0,0.0,0.0,0.0,0.0,0.0,0.0,0.0,0.0,0.0,0.0,0.0,0.0,0.0,0.0,0.0,0.0,0.0,0.0,0.0,0.0,0.0,0.0,0.0,0.0,0.0,0.0,0.0,0.0,0.0,0.0,0.0,0.0,0.0,0.0,0.0,0.0,0.0,0.0,0.0,0.0,0.0,0.0,0.0,0.0,0.0,0.0,0.0,0.0,0.0,0.0,0.0,0.0,0.0,0.0,0.0,0.0,0.0,0.0,0.0,0.0,0.0,0.0,0.0,0.0,0.0,0.0,0.0,0.0,0.0,0.0,0.0,0.0,0.0,0.0,0.0,0.0,0.0,0.0,0.0,0.0,0.0,0.0,0.0,0.0,0.0,0.0,0.0,0.0,0.0,0.0,0.0,0.0,0.0,0.0,0.0,0.0,0.0,0.0,0.0,0.0,0.0,0.0,0.0,0.0,0.0,0.0,0.0,0.0,0.0,0.0,0.0,0.0,0.0,0.0,0.0,0.0,0.0,0.0,0.0,0.0,0.0,0.0,0.0,0.0,0.0,0.0,0.0,0.0,0.0,0.0,0.0,0.0,0.0,0.0,0.0,0.0,0.0,0.0,0.0,0.0,0.0,0.0,0.0,0.0,0.0,0.0,0.0,0.0,0.0,0.0,0.0,0.0,0.0,0.0,0.0,0.0,0.0,0.0,0.0,0.0,0.0,0.0,0.0,0.0,0.0,0.0,0.0,0.0,0.0,0.0,0.0,0.0,0.0,0.0,0.0,0.0,0.0,0.0,0.0,0.0,0.0,0.0,0.0,0.0,0.0,0.0,0.0,0.0,0.0,0.0,0.0,0.0,0.0,0.0,0.0,0.0,0.0,0.0,0.0,0.0,0.0,0.0,0.0,0.0,-2.7323,-2.7809,0.0,0.0,0.0,0.0,0.0,0.0,0.0,0.0,0.0,0.0,0.0,0.0,0.0,0.0,0.0,0.0,0.0,0.0,0.0,0.0,0.0,0.0,0.0,0.0,0.0,0.0,0.0,0.0,0.0,0.0,0.0,0.0,0.0,0.0,0.0,0.0,0.0,0.0,-2.7749,-2.7397,-2.7443,-2.7242,-2.6939,-2.6589,0.0,0.0,0.0,0.0,0.0,0.0,0.0,0.0,0.0,0.0,0.0,0.0,0.0,0.0,0.0,0.0,0.0,0.0,0.0,0.0,0.0,0.0,0.0,0.0,0.0,0.0,0.0,0.0,0.0,0.0,0.0,0.0,0.0,0.0,0.0,0.0,0.0,0.0,0.0,0.0,0.0,0.0,0.0,0.0,0.0,0.0,0.0,0.0,0.0,0.0,0.0,0.0,0.0,0.0,0.0,0.0,0.0,0.0,0.0,0.0,0.0,0.0,0.0,0.0,0.0,0.0,0.0,0.0,0.0,0.0,-2.6897,-2.7222,0.0,0.0,0.0,0.0,0.0,0.0,0.0,0.0,0.0,0.0,0.0,0.0,0.0,0.0,0.0,0.0,0.0,0.0,0.0,0.0,0.0,0.0,0.0,0.0,-3.0554,-3.1087,-3.0133,0.0,0.0,0.0,0.0,0.0,0.0,0.0,0.0,0.0,0.0,-2.7302,-2.6897,-2.6624,-2.6499,-2.6499,-2.6555,-2.6692,-2.6692,0.0,0.0,0.0,0.0,0.0,0.0,0.0,0.0,0.0,0.0,0.0,0.0,0.0,0.0,0.0,0.0,0.0,0.0,0.0,0.0,0.0,0.0,0.0,0.0,0.0,0.0,0.0,0.0,0.0,0.0,0.0,0.0,0.0,0.0,0.0,0.0,0.0,0.0,0.0,0.0,0.0,0.0,0.0,0.0,0.0,0.0,0.0,0.0,0.0,0.0,0.0,0.0,0.0,0.0,0.0,0.0,0.0,0.0,0.0,0.0,0.0,0.0,0.0,-2.6543,-2.6543,-2.6589,-2.6543,-2.6393,-2.6255,-2.6255,-2.6358,-2.6543,-2.6692,0.0,0.0,0.0,0.0,0.0,0.0,0.0,0.0,0.0,0.0,0.0,0.0,0.0,0.0,0.0,0.0,0.0,0.0,0.0,0.0,0.0,-2.9659,-2.9659,-2.9766,-2.9597,-2.9331,0.0,0.0,0.0,0.0,0.0,0.0,0.0,-2.7623,-2.749,-2.7302,-2.6897,-2.6624,-2.6499,-2.6499,-2.6499,-2.6521,-2.6521,-2.6521,-2.6499,0.0,0.0,0.0,0.0,0.0,0.0,0.0,0.0,0.0,0.0,0.0,0.0,0.0,0.0,0.0,0.0,0.0,0.0,0.0,0.0,0.0,0.0,0.0,0.0,0.0,0.0,0.0,0.0,0.0,0.0,0.0,0.0,0.0,0.0,0.0,0.0,0.0,0.0,0.0,0.0,0.0,-2.6985,-2.7423,0.0,0.0,0.0,0.0,0.0,0.0,0.0,0.0,0.0,0.0,0.0,0.0,0.0,-2.5322,-2.4838,-2.4767,-2.4921,-2.5264,-2.4743,-2.466,-2.4992,-2.4624,-2.448,-2.4433,-2.4433,0.0,-2.5744,-2.5779,0.0,0.0,0.0,0.0,0.0,0.0,0.0,0.0,0.0,0.0,0.0,0.0,0.0,0.0,0.0,0.0,0.0,0.0,0.0,0.0,0.0,-2.9174,-2.9079,-2.9473,-2.8826,-2.8583,-2.9016,0.0,0.0,0.0,0.0,-2.7809,-2.749,-2.7436,-2.7268,-2.6964,-2.6726,-2.6555,-2.6499,-2.6499,-2.6499,-2.6499,-2.6499,-2.6499,-2.6499,-2.6499,0.0,0.0,0.0,0.0,0.0,0.0,0.0,0.0,0.0,0.0,0.0,0.0,0.0,0.0,0.0,0.0,0.0,0.0,0.0,0.0,0.0,0.0,0.0,0.0,0.0,0.0,0.0,0.0,0.0,0.0,0.0,0.0,0.0,0.0,0.0,0.0,0.0,0.0,0.0,-2.7289,-2.7222,-2.7456,-2.7289,-2.7222,0.0,0.0,0.0,0.0,0.0,0.0,0.0,0.0,0.0,-2.4632,-2.5215,-2.5198,-2.4495,-2.4857,-2.5093,-2.5292,-2.5018,-2.4969,-2.5131,-2.4981,-2.4906,-2.4906,-2.4906,-2.5018,-2.5233,-2.5015,-2.5016,-2.5158,0.0,0.0,0.0,0.0,-2.5533,-2.5707,0.0,0.0,0.0,0.0,0.0,0.0,0.0,0.0,0.0,0.0,0.0,0.0,-2.9016,-2.8532,-2.8436,-2.8953,-2.8091,-2.7927,-2.8921,-2.8059,0.0,0.0,0.0,-2.749,-2.749,-2.7302,-2.7032,-2.6679,-2.6706,-2.67,-2.6713,-2.6851,-2.6914,-2.6901,-2.6763,-2.6625,-2.6499,-2.6499,-2.6499,-2.6487,0.0,0.0,0.0,0.0,0.0,0.0,0.0,0.0,0.0,0.0,0.0,0.0,0.0,0.0,0.0,0.0,0.0,0.0,0.0,0.0,0.0,0.0,0.0,0.0,0.0,0.0,0.0,0.0,0.0,0.0,0.0,0.0,0.0,0.0,0.0,0.0,0.0,-2.7255,-2.7175,-2.7469,-2.7108,-2.6973,0.0,0.0,0.0,0.0,0.0,0.0,-2.5741,-2.5945,-2.5575,-2.4543,-2.5171,-2.5165,-2.436,-2.4949,-2.5221,-2.5221,-2.5093,-2.5066,-2.5077,-2.5066,-2.5066,-2.5066,-2.5182,-2.5116,-2.4826,-2.4497,-2.4461,-2.4606,-2.4623,-2.4779,-2.4957,-2.4589,-2.4601,-2.4601,0.0,0.0,0.0,0.0,0.0,0.0,0.0,0.0,0.0,0.0,0.0,-2.8734,-2.7723,-2.7556,-2.7556,-2.759,-2.7523,-2.7523,-2.759,-2.7523,-2.7523,-2.7556,-2.7523,-2.749,-2.749,-2.718,-2.6909,-2.6679,-2.7085,-2.7278,-2.7291,-2.777,-2.8021,-2.7996,-2.7469,-2.6989,-2.6499,-2.6499,-2.6499,-2.6418,-2.5664,0.0,0.0,0.0,0.0,0.0,0.0,0.0,0.0,0.0,0.0,0.0,0.0,0.0,0.0,0.0,0.0,0.0,0.0,0.0,0.0,0.0,0.0,0.0,0.0,0.0,0.0,0.0,0.0,0.0,0.0,0.0,0.0,0.0,0.0,0.0,0.0,0.0,0.0,-2.739,-2.6092,0.0,0.0,0.0,0.0,-2.5931,-2.634,-2.6166,-2.5287,-2.6005,-2.5869,-2.4557,-2.4921,-2.4932,-2.4482,-2.4522,-2.4511,-2.4449,-2.4054,-2.3876,-2.3897,-2.3876,-2.3894,-2.3894,-2.4353,-2.4522,-2.4517,-2.4314,-2.4593,-2.5129,-2.4606,-2.4992,-2.5674,-2.4325,-2.4337,-2.4791,0.0,0.0,0.0,0.0,0.0,0.0,0.0,0.0,0.0,-2.8748,-2.8522,-2.8197,-2.757,-2.749,-2.749,-2.749,-2.749,-2.749,-2.749,-2.749,-2.749,-2.749,-2.749,-2.7559,-2.7683,-2.748,-2.7462,-2.7591,-2.7744,-2.7808,-2.7821,-2.8009,-2.8109,-2.8097,-2.7896,-2.7708,-2.7433,-2.6251,-2.5746,-2.5664,-2.485,-2.4707,0.0,0.0,0.0,0.0,0.0,0.0,0.0,0.0,0.0,0.0,0.0,0.0,0.0,0.0,0.0,0.0,0.0,0.0,0.0,0.0,0.0,0.0,0.0,0.0,0.0,0.0,0.0,0.0,0.0,0.0,0.0,0.0,0.0,0.0,0.0,0.0,0.0,-2.6414,-2.5931,0.0,-2.6578,-2.6152,-2.5961,-2.6249,-2.6143,-2.5873,-2.5543,-2.6132,-2.6273,-2.5787,-2.6274,-2.6462,-2.6363,-2.6363,-2.6182,-2.583,-2.6011,-2.5926,-2.5594,-2.5969,-2.6097,-2.6139,-2.6278,-2.6356,-2.6273,-2.5853,-2.5312,-2.4742,-2.4551,-2.451,-2.4477,-2.4003,-2.3765,-2.3607,0.0,0.0,0.0,0.0,0.0,0.0,0.0,0.0,-2.9449,-2.8716,-2.8406,-2.8066,-2.757,-2.749,-2.749,-2.749,-2.749,-2.749,-2.749,-2.749,-2.749,-2.749,-2.7686,-2.779,-2.7714,-2.7895,-2.7997,-2.8109,-2.8298,-2.8386,-2.8386,-2.8586,-2.8674,-2.8662,-2.8151,-2.794,-2.7804,-2.5822,-2.5215,-2.5445,-2.4248,-2.3866,-2.4072,0.0,0.0,0.0,0.0,0.0,0.0,0.0,0.0,0.0,0.0,0.0,0.0,0.0,0.0,0.0,0.0,0.0,0.0,0.0,0.0,0.0,0.0,0.0,0.0,0.0,0.0,0.0,0.0,0.0,0.0,0.0,0.0,0.0,0.0,0.0,-2.5712,-2.6072,-2.5813,-2.5841,-2.6493,-2.6086,-2.5974,-2.6467,-2.6313,-2.6301,-2.6473,-2.6944,-2.7234,-2.722,-2.7601,-2.7788,-2.7821,-2.7821,-2.7602,-2.7117,-2.7481,-2.7393,-2.6884,-2.7393,-2.7624,-2.7656,-2.7788,-2.7816,-2.7736,-2.7408,-2.6723,-2.5828,-2.5171,-2.4637,-2.4222,-2.4233,-2.3996,-2.3633,0.0,0.0,0.0,0.0,0.0,0.0,0.0,-2.9602,-2.9352,-2.8683,-2.8587,-2.8327,-2.7603,-2.749,-2.749,-2.749,-2.749,-2.749,-2.749,-2.749,-2.7503,-2.7529,-2.8085,-2.817,-2.7675,-2.8375,-2.8547,-2.816,-2.8712,-2.8988,-2.8963,-2.9578,-2.9842,-2.9778,-2.8295,-2.7642,-2.749,-2.5268,-2.4989,-2.5874,-2.3806,-2.3398,-2.3938,0.0,0.0,0.0,0.0,0.0,0.0,0.0,0.0,0.0,0.0,0.0,0.0,0.0,0.0,0.0,0.0,0.0,0.0,0.0,0.0,0.0,0.0,0.0,0.0,0.0,0.0,0.0,0.0,0.0,0.0,0.0,0.0,0.0,-2.5791,-2.5382,-2.5362,-2.6431,-2.5592,-2.5367,-2.6422,-2.6047,-2.598,-2.6536,-2.699,-2.7495,-2.7977,-2.8459,-2.8723,-2.8746,-2.8758,-2.8781,-2.8792,-2.8792,-2.8587,-2.8174,-2.8217,-2.7987,-2.7524,-2.7976,-2.8195,-2.8195,-2.8585,-2.8735,-2.8723,-2.8723,-2.8712,-2.8505,-2.6542,-2.5479,-2.5055,-2.5144,-2.5133,-2.4954,0.0,0.0,0.0,0.0,0.0,0.0,0.0,-2.9602,-2.9352,-2.8683,-2.8587,-2.8327,-2.7603,-2.749,-2.749,-2.749,-2.749,-2.749,-2.749,-2.749,-2.7686,-2.8124,-2.817,-2.8498,-2.9194,-2.9252,-2.9361,-2.9543,-3.0241,-3.0404,-3.0168,-3.0907,-3.116,-3.0881,-2.9455,-2.8851,-2.8659,-2.6073,-2.5127,-2.5284,-2.3388,-2.2558,-2.2419,0.0,0.0,0.0,0.0,0.0,0.0,0.0,0.0,0.0,0.0,0.0,0.0,0.0,0.0,0.0,0.0,0.0,0.0,0.0,0.0,0.0,0.0,0.0,0.0,0.0,0.0,0.0,0.0,0.0,0.0,0.0,0.0,-2.4599,-2.5182,-2.5048,-2.5048,-2.5335,-2.5446,-2.5881,-2.6914,-2.6887,-2.7162,-2.8023,-2.8218,-2.8356,-2.8494,-2.8999,-2.9435,-2.9791,-3.017,-3.0549,-3.0916,-3.0974,-3.0684,-3.0204,-3.0532,-3.0485,-2.9994,-3.0123,-3.0205,-3.0182,-2.9918,-2.9596,-2.9274,-2.9274,-2.8881,-2.82,-2.7588,-2.7046,-2.6559,-2.6223,-2.5453,-2.45,0.0,0.0,0.0,0.0,0.0,0.0,0.0,-2.9727,-2.9352,-2.8683,-2.8587,-2.8327,-2.7603,-2.749,-2.749,-2.749,-2.749,-2.749,-2.749,-2.749,-2.7717,-2.8256,-2.8495,-2.8935,-2.9645,-2.9878,-3.0214,-3.0573,-3.0904,-3.1145,-3.1227,-3.1504,-3.1602,-3.1496,-2.9784,-2.8952,-2.8592,-2.6223,-2.4974,-2.4579,-2.352,-2.2677,-2.2076,-2.188,-2.2231,-2.2771,-2.2063,-2.2268,-2.2782,-2.2063,0.0,0.0,0.0,0.0,0.0,0.0,0.0,0.0,0.0,0.0,0.0,0.0,0.0,0.0,0.0,0.0,0.0,0.0,0.0,0.0,0.0,0.0,0.0,0.0,-2.4568,-2.4597,-2.4903,-2.4902,-2.5073,-2.5509,-2.6026,-2.6668,-2.7472,-2.7725,-2.8172,-2.8976,-2.9217,-2.9435,-2.9653,-3.0158,-3.0583,-3.0859,-3.1157,-3.1456,-3.1754,-3.1813,-3.1611,-3.1312,-3.1599,-3.1599,-3.136,-3.1314,-3.1329,-3.1306,-3.0778,-3.0388,-3.0112,-2.9894,-2.9485,-2.8922,0.0,0.0,0.0,0.0,-2.6359,-2.5254,0.0,0.0,0.0,0.0,0.0,0.0,0.0,-2.9991,-2.9477,-2.878,-2.8683,-2.8392,-2.759,-2.749,-2.749,-2.749,-2.749,-2.749,-2.749,-2.749,-2.7709,-2.8222,-2.893,-2.9431,-2.9649,-3.0351,-3.0893,-3.124,-3.116,-3.1479,-3.2177,-3.1876,-3.1751,-3.1738,-2.9699,-2.8514,-2.7885,-2.6011,-2.478,-2.4117,-2.394,-2.3359,-2.2527,-2.2035,-2.2115,-2.2365,-2.1997,-2.2101,-2.2327,-2.1987,0.0,0.0,0.0,0.0,0.0,0.0,0.0,0.0,0.0,0.0,0.0,0.0,0.0,0.0,0.0,0.0,0.0,0.0,0.0,0.0,0.0,0.0,0.0,0.0,-2.4636,-2.4958,-2.5073,-2.5142,-2.5509,-2.649,-2.7001,-2.7529,-2.8092,-2.854,-2.9033,-2.963,-3.0067,-3.0537,-3.1065,-3.1525,0.0,0.0,0.0,-3.1798,-3.1855,-3.1926,-3.1986,-3.1986,-3.1986,-3.1986,-3.1986,-3.1928,-3.1894,-3.1871,-3.1318,-3.1053,-3.096,-3.048,-3.0273,-3.0124,-2.916,-2.8541,-2.8158,-2.7975,-2.7411,-2.6605,0.0,0.0,0.0,0.0,0.0,0.0,0.0,-3.0583,-3.0113,-2.9279,-2.9153,-2.8739,-2.7623,-2.749,-2.749,-2.749,-2.749,-2.749,-2.749,-2.749,-2.7973,-2.903,-2.9222,-2.9722,-3.0691,-3.0859,-3.1109,-3.1423,-3.2058,-3.2497,-3.2767,-3.3312,-3.3014,-3.1877,-3.0312,-2.9008,-2.788,-2.6018,-2.5303,-2.544,-2.4357,-2.3522,-2.2949,-2.2514,-2.2398,-2.2402,-2.2327,-2.2327,-2.2402,-2.2327,-2.2515,-2.2703,-2.2402,0.0,0.0,0.0,0.0,0.0,0.0,0.0,0.0,0.0,0.0,0.0,0.0,0.0,0.0,0.0,0.0,0.0,0.0,0.0,0.0,-2.4705,-2.4855,-2.521,-2.6088,-2.6519,-2.6812,-2.7059,-2.7529,-2.8195,-2.9114,-2.9286,-2.9722,-3.0652,-3.0801,-3.1088,-3.1641,-3.1756,-3.1997,-3.2328,-3.234,-3.2546,-3.2982,-3.2982,-3.2994,-3.2994,-3.2994,0.0,-3.2971,-3.2546,-3.2351,-3.2317,-3.1834,-3.1379,-3.0903,-3.0878,-3.0606,-3.0158,-2.9573,-2.9036,-2.8473,-2.7732,-2.7305,-2.6976,0.0,0.0,0.0,0.0,0.0,0.0,0.0,-3.1029,-3.0493,-2.9654,-2.956,-2.9153,-2.8151,-2.8066,-2.7967,-2.7802,-2.7636,-2.749,-2.749,-2.749,-2.8059,-2.9258,-2.931,-2.981,-3.096,-3.0986,-3.1223,-3.163,-3.2254,-3.2799,-3.3247,-3.372,-3.3598,-3.2963,-3.1036,-2.9691,-2.8792,-2.6748,-2.5916,-2.5832,-2.5186,-2.4551,-2.3972,-2.3122,-2.2894,-2.2964,-2.2777,-2.2815,-2.2964,-2.2777,-2.2815,-2.2964,-2.2777,-2.2852,-2.3038,0.0,0.0,0.0,0.0,0.0,0.0,0.0,0.0,0.0,0.0,0.0,0.0,0.0,0.0,-2.42,0.0,0.0,-2.4636,-2.4877,-2.5348,-2.5968,-2.6737,-2.7288,-2.761,-2.761,-2.8276,-2.9033,-2.9791,-3.0101,-3.0572,-3.1329,-3.1616,-3.1857,-3.2158,-3.2374,-3.2687,-3.2879,-3.2879,-3.3017,-3.3281,-3.3008,-3.3008,-3.3281,-3.3008,-3.3008,-3.3269,-3.2734,-3.2449,-3.2426,-3.195,-3.1589,-3.1289,-3.1082,-3.0859,-3.056,-3.0055,-2.9554,-2.9025,-2.8244,-2.7709,-2.7151,0.0,0.0,0.0,0.0,0.0,0.0,0.0,0.0,-3.0925,-3.0162,-3.007,-2.9763,-2.8944,-2.8862,-2.867,-2.8229,-2.7835,-2.7603,-2.7503,-2.749,-2.8007,-2.91,-2.9258,-2.9758,-3.079,-3.0934,-3.1261,-3.1797,-3.211,-3.2683,-3.343,-3.3491,-3.3476,-3.3379,-3.1327,-3.0065,-2.9343,-2.7404,-2.6439,-2.6135,-2.5839,-2.5503,-2.4993,-2.3792,-2.3427,-2.3567,-2.3224,-2.3335,-2.3556,-2.3224,-2.3113,-2.3113,-2.3113,-2.3113,-2.3187,-2.3593,-2.3714,0.0,0.0,0.0,0.0,0.0,0.0,0.0,0.0,0.0,-2.42,-2.42,-2.42,-2.4223,-2.4315,-2.4659,-2.4981,-2.5176,-2.6003,-2.6795,-2.73,-2.7897,-2.8276,-2.8276,-2.8999,-2.9734,-3.0308,-3.0767,-3.126,-3.1905,-3.2308,-3.2535,-3.2638,-3.3051,-3.3281,-3.3281,-3.3281,-3.3231,-3.3119,-3.2745,-3.2745,-3.3119,-3.2633,-3.2633,-3.3119,-3.2533,-3.2308,-3.2387,-3.1867,-3.1705,-3.1647,-3.1055,-3.0757,-3.0636,-3.0204,-2.9702,-2.9154,-2.8811,-2.8247,-2.7497,0.0,0.0,0.0,0.0,0.0,0.0,0.0,0.0,0.0,-3.113,-3.1028,-3.0748,-2.9919,-2.9749,-2.9345,-2.8514,-2.8197,-2.7868,-2.7523,-2.749,-2.7811,-2.8486,-2.9022,-2.9575,-3.0179,-3.0725,-3.1261,-3.1797,-3.1837,-3.2189,-3.279,-3.2815,-3.2254,-3.1236,-3.0415,-2.9421,-2.8282,-2.7099,-2.6768,-2.694,-2.5691,-2.5354,-2.5531,-2.4534,-2.3917,-2.3593,-2.3556,-2.3567,-2.3593,-2.3556,-2.3519,-2.3519,-2.3519,-2.3519,-2.3593,-2.4007,0.0,-2.4152,-2.42,-2.42,-2.42,-2.42,-2.42,-2.42,0.0,0.0,-2.42,-2.42,-2.42,-2.4326,-2.4751,-2.4877,-2.521,-2.618,-2.6772,-2.7323,-2.7828,-2.8723,-2.9332,-2.9332,-2.9424,-2.9871,-3.0836,-3.0973,-3.1398,-3.2328,-3.2454,-3.2695,-3.3166,-3.3258,-3.3281,-3.3281,-3.3281,-3.3058,-3.2521,-3.2958,-3.2958,-3.2521,-3.2409,-3.242,-3.2471,-3.1924,-3.1975,-3.2359,-3.1819,-3.1655,-3.1605,-3.0611,-2.9959,-2.9588,-2.9485,-2.8976,-2.8222,-2.8577,-2.8659,-2.8465,0.0,0.0,0.0,0.0,0.0,0.0,0.0,0.0,0.0,0.0,-3.1493,-3.1262,-3.0644,-3.0299,-2.9749,-2.8912,-2.8541,-2.8118,-2.7536,-2.749,-2.7785,-2.8381,-2.8656,-2.9183,-3.0074,-3.0335,-3.0777,-3.1339,-3.1641,-3.1928,-3.2163,-3.2542,-3.2434,-3.1875,-3.0576,-2.9706,-2.915,-2.7603,-2.6873,-2.672,-2.6131,-2.5655,-2.5184,-2.4778,-2.4365,-2.3934,-2.3934,-2.3934,0.0,0.0,-2.3934,-2.3934,-2.3934,-2.3934,-2.397,-2.4152,-2.42,0.0,-2.42,0.0,0.0,0.0,-2.42,-2.42,-2.42,-2.42,-2.42,-2.42,-2.4418,-2.4682,-2.4877,-2.5406,-2.5996,0.0,-2.7139,-2.7839,-2.8333,-2.9033,-2.9596,-2.9883,-3.0193,-3.0663,-3.1387,-3.1708,-3.2167,-3.2902,-3.2948,-3.304,-3.3269,-3.3281,-3.3281,-3.3281,-3.2958,-3.2846,-3.2908,-3.219,-3.2026,-3.2409,-3.1761,-3.1607,-3.1924,-3.1362,-3.1249,-3.1454,-3.1249,-3.1356,-3.1605,-3.0867,-3.0307,-2.9812,-2.9517,-2.9008,-2.8409,-2.8315,-2.8139,-2.7835,0.0,0.0,0.0,0.0,0.0,0.0,0.0,0.0,0.0,0.0,-3.1894,-3.1752,-3.1379,-3.0911,-3.0329,-2.9637,-2.917,-2.8597,-2.7842,-2.7776,-2.7907,-2.8124,-2.8294,-2.8778,-2.9591,-2.9774,-3.0176,-3.0751,-3.1132,-3.1419,-3.1575,-3.2032,-3.2228,-3.2163,-3.0678,-2.9821,-2.945,-2.7879,-2.6875,-2.6283,-2.6134,-2.5589,-2.49,-2.4763,-2.4499,-2.42,-2.42,-2.42,0.0,0.0,-2.42,-2.42,-2.42,-2.42,-2.42,-2.42,-2.42,-2.42,-2.42,0.0,0.0,-2.42,-2.42,-2.42,-2.42,-2.42,-2.42,-2.42,-2.4579,-2.4958,-2.5107,-2.5865,-2.6547,-2.6657,-2.7518,-2.8299,-2.8643,-2.9274,-2.9825,-3.017,-3.0813,-3.1364,-3.1779,-3.2202,-3.2707,-3.3247,-3.3281,-3.3281,-3.3281,-3.3281,-3.3231,-3.3058,-3.2633,-3.2482,-3.2606,-3.1567,-3.1351,-3.1953,-3.1187,-3.0991,-3.1362,-3.1002,-3.0785,-3.0785,-3.0785,-3.0991,-3.1341,-3.0842,-3.0371,-2.9908,-2.9365,-2.8881,-2.8441,-2.7993,-2.7668,-2.7489,0.0,0.0,0.0,0.0,0.0,0.0,0.0,0.0,0.0,0.0,0.0,0.0,0.0,-3.1752,-3.1277,-3.0807,-3.0269,-2.9518,-2.8532,-2.8481,-2.8203,-2.7549,-2.8085,-2.8433,-2.8472,-2.9,-2.9588,-3.0127,-3.014,-3.044,-3.1013,-3.1026,-3.1039,-3.1039,-3.0305,-2.9402,-2.8293,-2.769,-2.6734,-2.5693,-2.5164,-2.4946,-2.4866,-2.4395,-2.4212,-2.42,-2.42,0.0,0.0,0.0,-2.42,-2.42,-2.42,-2.42,0.0,-2.42,-2.42,-2.42,0.0,0.0,-2.42,-2.42,-2.42,-2.42,-2.42,-2.42,-2.42,-2.42,-2.4579,-2.5073,-2.5589,-2.6117,-2.6662,-2.7087,-2.8035,-2.8677,-2.87,-2.9561,-3.0204,-3.0216,-3.1123,-3.1802,0.0,-3.2202,-3.2707,-3.3247,-3.3281,-3.3281,-3.3281,-3.3281,-3.3008,-3.2471,-3.2409,-3.1902,-3.0888,-3.1362,-3.1311,-3.0836,-3.0836,-3.0785,-3.0836,-3.0795,-3.0785,-3.0785,-3.0785,-3.0785,-3.0785,-3.0224,-2.9756,-2.929,-2.8823,-2.8357,-2.79,-2.7465,-2.7584,-2.7904,0.0,0.0,0.0,0.0,0.0,0.0,0.0,0.0,0.0,0.0,0.0,0.0,0.0,0.0,0.0,0.0,-3.0614,-3.0147,-2.9205,-2.9174,-2.8871,-2.8189,-2.8357,-2.8439,-2.8407,-2.8616,-2.9009,-2.9575,-2.9575,-2.9666,-2.9849,-2.9849,-2.9849,-2.9849,-2.9167,-2.8647,-2.8237,-2.7227,-2.6411,-2.5714,-2.5142,-2.4717,-2.4418,-2.4258,-2.42,-2.42,0.0,0.0,0.0,-2.42,-2.42,-2.42,-2.42,0.0,-2.42,-2.42,-2.42,-2.42,-2.42,0.0,-2.42,-2.42,-2.42,-2.42,-2.42,-2.42,-2.42,-2.42,-2.4866,-2.5497,-2.5681,-2.6404,-2.7024,-2.7156,-2.8057,-2.87,-2.87,-2.9573,-3.0216,-3.0216,-3.1123,0.0,0.0,0.0,0.0,-3.3269,-3.3281,-3.3281,-3.3281,-3.3281,-3.3231,-3.3008,-3.228,-3.1863,-3.1852,-3.095,-3.0651,-3.0785,-3.0443,-3.0297,-3.0297,-3.0297,-3.0297,-3.0297,-3.0297,-3.0297,-3.0245,-3.0088,-2.9725,-2.929,-2.9135,-2.8597,-2.7903,-2.7759,-2.7654,-2.7489,0.0,0.0,0.0,0.0,0.0,0.0,0.0,0.0,0.0,0.0,0.0,0.0,0.0,0.0,0.0,0.0,0.0,-3.0807,-3.0011,-2.9889,-2.9549,-2.8871,-2.8839,-2.8741,-2.8418,-2.8431,-2.8599,-2.8996,-2.8996,-2.91,-2.931,-2.931,-2.931,-2.9274,-2.8869,-2.8418,-2.8012,-2.7225,-2.6481,-2.5793,-2.5407,-2.5073,-2.4826,-2.4826,-2.4671,0.0,0.0,0.0,-2.42,-2.42,-2.42,-2.42,-2.42,-2.42,-2.42,-2.42,-2.42,-2.42,-2.42,-2.42,-2.42,-2.42,-2.42,-2.42,-2.42,-2.42,-2.42,-2.42,-2.5004,-2.5716,-2.5716,-2.6502,-2.719,-2.719,-2.8057,-2.87,-2.87,-2.9573,-3.0216,-3.0216,-3.1123,-3.1754,0.0,0.0,0.0,-3.3281,-3.3281,-3.3281,-3.3281,-3.3119,-3.2958,-3.2958,-3.1874,-3.1454,-3.1801,-3.0599,-3.0193,-3.0495,-3.0141,-2.9994,-2.9994,-2.9994,-2.9994,-2.9994,-2.9994,-2.9994,-2.9994,-2.9994,-2.9818,-2.9539,-2.9373,-2.8835,-2.8152,-2.7937,-2.7645,-2.7309,0.0,0.0,0.0,0.0,0.0,0.0,0.0,0.0,0.0,0.0,0.0,0.0,0.0,0.0,0.0,0.0,0.0,0.0,-3.0896,-3.0644,-3.0238,-2.9566,-2.9535,-2.9205,-2.8514,-2.8514,-2.8471,-2.8368,-2.8368,-2.8669,-2.9231,-2.9231,-2.9231,-2.9231,-2.9231,-2.8624,-2.7605,-2.757,-2.6939,-2.5931,-2.5896,-2.5896,-2.5896,-2.5896,0.0,0.0,0.0,0.0,0.0,0.0,0.0,0.0,0.0,-2.42,-2.42,-2.42,-2.42,-2.42,-2.42,-2.42,-2.42,-2.42,-2.42,-2.42,-2.42,-2.42,-2.42,-2.42,-2.5018,-2.5708,0.0,0.0,-2.7196,-2.7144,-2.8023,-2.8666,-2.87,-2.955,-3.0181,0.0,0.0,0.0,0.0,0.0,0.0,-3.3281,0.0,-3.3281,-3.3281,-3.2684,-3.2409,-3.2359,-3.1351,-3.0785,-3.0785,-3.0297,-2.9994,-2.9994,-2.9994,-2.9994,-2.9994,-2.9994,-2.9994,-2.9994,-2.9994,-2.9994,-2.9994,-2.9994,-2.9994,-2.9953,-2.9508,-2.9042,-2.8566,-2.8121,-2.7665,-2.7309,0.0,0.0,0.0,0.0,0.0,0.0,0.0,0.0,0.0,0.0,0.0,0.0,0.0,0.0,0.0,0.0,0.0,0.0,-3.1568,-3.1351,-3.097,-3.0269,-3.0238,-2.9704,-2.8546,-2.8514,-2.8237,-2.7745,-2.7745,-2.7824,-2.7968,-2.7968,-2.7968,-2.7968,-2.7968,-2.7788,-2.7509,-2.7101,-2.6772,-2.6474,0.0,-2.5896,-2.5896,0.0,0.0,0.0,0.0,0.0,0.0,0.0,0.0,0.0,0.0,-2.42,-2.42,-2.42,-2.42,-2.42,-2.42,-2.42,-2.42,-2.42,-2.42,-2.42,-2.42,-2.42,-2.42,-2.42,-2.5026,-2.563,0.0,0.0,0.0,-2.6737,-2.7506,0.0,-2.8643,-2.9263,0.0,-3.017,0.0,-3.1743,-3.1743,-3.2673,0.0,0.0,-3.3281,-3.3119,-3.2633,-3.2471,-3.2218,-3.1823,-3.1146,-3.0785,-3.0785,-3.0297,-2.9994,-2.9994,-2.9994,-2.9994,-2.9994,-2.9994,-2.9994,-2.9994,-2.9994,-2.9994,-2.9994,-2.9994,-2.9994,-2.9984,-2.986,-2.9321,-2.8597,-2.8483,-2.7945,-2.7309,0.0,0.0,0.0,0.0,0.0,0.0,0.0,0.0,0.0,0.0,0.0,0.0,0.0,0.0,0.0,0.0,0.0,0.0,0.0,-3.1655,-3.1322,-3.097,-3.094,-3.0313,-2.8967,-2.8935,-2.8468,0.0,0.0,0.0,-2.749,-2.749,-2.749,-2.749,-2.749,-2.749,-2.7503,-2.7188,0.0,0.0,0.0,0.0,0.0,0.0,0.0,0.0,0.0,0.0,0.0,0.0,0.0,-2.42,-2.42,-2.42,-2.42,-2.42,0.0,-2.42,-2.42,-2.42,-2.42,-2.42,-2.42,-2.42,-2.42,-2.42,-2.4261,-2.4503,-2.502,0.0,-2.5296,0.0,0.0,0.0,0.0,0.0,-2.8632,-2.916,-2.9676,0.0,-3.0928,0.0,-3.172,-3.2466,-3.3028,0.0,-3.3281,-3.317,-3.2796,-3.2331,-3.2015,-3.1975,-3.095,-3.0443,-3.0443,-3.0141,-2.9994,-2.9994,-2.9994,-2.9994,-2.9994,-2.9994,-2.9994,-2.9994,-2.9994,-2.9994,-2.9994,-2.9994,-2.9994,-2.9994,-2.9994,-2.9435,-2.8618,-2.8618,-2.8038,-2.7309,0.0,0.0,0.0,0.0,0.0,0.0,0.0,0.0,0.0,0.0,0.0,0.0,0.0,0.0,0.0,0.0,0.0,0.0,0.0,0.0,0.0,0.0,-3.1511,-3.0896,-2.9659,-2.9535,-2.8889,-2.7623,-2.7523,0.0,0.0,0.0,0.0,0.0,0.0,0.0,0.0,0.0,0.0,0.0,0.0,0.0,0.0,0.0,0.0,0.0,0.0,0.0,0.0,0.0,-2.42,-2.42,-2.42,-2.42,-2.42,-2.42,-2.42,-2.42,-2.42,-2.42,-2.42,-2.42,-2.42,-2.42,-2.42,-2.42,-2.4334,-2.4814,0.0,-2.5043,-2.551,-2.6045,-2.6396,-2.6398,0.0,-2.8,-2.8609,-2.9102,-2.9596,-3.0147,-3.0686,-3.1215,-3.1767,-3.2202,-3.2707,-3.3247,-3.3281,-3.3231,-3.3069,-3.2139,-3.1772,-3.2055,-3.0754,-2.9994,-2.9994,-2.9994,-2.9994,-2.9994,-2.9994,-2.9994,-2.9994,-2.9994,-2.9994,-2.9994,-2.9994,-2.9994,-2.9994,-2.9994,-2.9994,-2.9994,-2.9994,-2.9435,-2.8618,-2.8618,-2.8038,-2.7309,0.0,0.0,0.0,0.0,0.0,0.0,0.0,0.0,0.0,0.0,0.0,0.0,0.0,0.0,0.0,0.0,0.0,0.0,0.0,0.0,0.0,0.0,-3.1511,-3.1117,-3.0329,-2.9797,-2.9111,-2.832,-2.7776,-2.749,0.0,0.0,0.0,0.0,0.0,0.0,0.0,0.0,0.0,0.0,0.0,0.0,0.0,0.0,0.0,0.0,0.0,0.0,0.0,0.0,-2.42,-2.42,-2.42,-2.42,-2.42,-2.42,-2.42,-2.42,-2.42,-2.42,-2.42,-2.42,-2.42,-2.42,-2.42,-2.42,0.0,0.0,-2.4669,-2.4872,-2.4533,-2.5253,-2.5916,-2.585,0.0,0.0,0.0,0.0,-2.9183,0.0,0.0,0.0,0.0,0.0,0.0,0.0,-3.3281,-3.2869,-3.1936,-3.1732,-3.1219,-3.0453,-3.0151,-2.9994,-2.9994,-2.9994,-2.9994,-2.9994,-2.9994,-2.9994,-2.9994,-2.9994,-2.9994,-2.9994,-2.9994,-2.9994,-2.9994,-2.9994,-2.9994,-2.9994,-2.9994,-2.9435,-2.8618,-2.8618,-2.8038,-2.7309,0.0,0.0,0.0,0.0,0.0,0.0,0.0,0.0,0.0,0.0,0.0,0.0,0.0,0.0,0.0,0.0,0.0,0.0,0.0,0.0,0.0,0.0,0.0,0.0,0.0,-3.0178,-2.9518,-2.8514,0.0,-2.7842,-2.749,-2.749,-2.749,-2.749,-2.749,-2.749,0.0,0.0,0.0,0.0,0.0,0.0,0.0,0.0,0.0,0.0,0.0,0.0,0.0,0.0,-2.42,-2.42,-2.42,-2.42,-2.42,-2.42,-2.42,-2.42,-2.42,-2.42,-2.42,-2.42,-2.42,-2.42,-2.42,0.0,0.0,0.0,-2.4599,-2.4599,-2.4599,0.0,0.0,0.0,0.0,0.0,0.0,0.0,0.0,0.0,0.0,0.0,0.0,0.0,-3.242,-3.3224,-3.3008,-3.2583,-3.2066,-3.1505,-3.0806,-3.0047,-2.9994,-2.9994,-2.9994,-2.9994,-2.9994,-2.9994,-2.9994,-2.9994,-2.9994,-2.9994,-2.9994,-2.9994,-2.9994,-2.9994,-2.9994,-2.9994,-2.9994,-2.9994,-2.9994,-2.9435,-2.8618,-2.8618,-2.8038,-2.7309,0.0,0.0,0.0,0.0,0.0,0.0,0.0,0.0,-3.1568,-3.1727,-3.1727,-3.1727,-3.1727,-3.1855,0.0,0.0,0.0,0.0,0.0,0.0,0.0,0.0,0.0,0.0,0.0,0.0,0.0,-2.8712,-2.8565,0.0,0.0,0.0,0.0,0.0,-2.749,-2.749,-2.749,-2.749,0.0,0.0,0.0,-2.7255,0.0,0.0,0.0,0.0,0.0,0.0,0.0,0.0,-2.437,-2.437,-2.4236,-2.42,-2.42,-2.42,-2.42,-2.42,-2.42,-2.42,-2.42,-2.42,-2.42,-2.42,-2.42,-2.42,0.0,0.0,-2.4503,-2.4334,-2.4743,0.0,-2.4935,0.0,0.0,0.0,0.0,0.0,0.0,0.0,0.0,0.0,0.0,0.0,0.0,-3.304,-3.2577,-3.2167,-3.2055,-3.1146,-3.0443,-2.9994,-2.9994,-2.9994,-2.9994,-2.9994,-2.9994,-2.9994,-2.9994,-2.9994,-2.9994,-2.9994,-2.9994,-2.9994,-2.9994,-2.9994,-2.9994,-2.9994,-2.9994,-2.9984,-2.9891,-2.9342,-2.8597,-2.8504,-2.7955,-2.7309,0.0,0.0,0.0,0.0,0.0,0.0,0.0,0.0,-3.1511,-3.1539,-3.1539,-3.1539,-3.1539,0.0,0.0,0.0,0.0,0.0,0.0,0.0,0.0,0.0,0.0,0.0,0.0,0.0,0.0,-2.9411,-2.8807,0.0,0.0,0.0,0.0,0.0,0.0,-2.749,-2.749,-2.749,0.0,0.0,0.0,0.0,0.0,0.0,0.0,0.0,0.0,0.0,0.0,0.0,0.0,-2.4838,-2.437,-2.42,-2.42,-2.42,0.0,0.0,-2.42,-2.42,-2.42,-2.42,-2.42,-2.42,-2.42,0.0,0.0,-2.4261,-2.4225,-2.4236,-2.4261,-2.4271,-2.4418,0.0,0.0,-2.6129,0.0,0.0,0.0,0.0,0.0,0.0,0.0,0.0,-3.1442,-3.2463,-3.2023,-3.1465,-3.0991,-3.0391,-3.0047,-2.9994,-2.9994,-2.9994,-2.9994,-2.9994,-2.9994,-2.9994,-2.9994,-2.9994,-2.9994,-2.9994,-2.9994,-2.9994,-2.9994,-2.9994,-2.9994,-2.9994,-2.9994,-2.9953,-2.9528,-2.9063,-2.8566,-2.8142,-2.7676,-2.7309,0.0,0.0,0.0,0.0,0.0,0.0,0.0,0.0,-3.1511,-3.1511,-3.1511,-3.1511,0.0,0.0,0.0,0.0,0.0,0.0,0.0,0.0,0.0,0.0,0.0,0.0,0.0,0.0,-3.0584,-2.9504,-2.9237,0.0,0.0,0.0,0.0,0.0,0.0,-2.749,-2.749,-2.749,0.0,0.0,0.0,0.0,0.0,0.0,0.0,0.0,0.0,0.0,0.0,0.0,0.0,0.0,-2.437,-2.42,0.0,0.0,-2.42,-2.42,-2.42,-2.42,-2.42,-2.42,-2.42,-2.42,-2.42,0.0,-2.42,-2.42,-2.42,-2.42,-2.42,-2.42,-2.4349,0.0,0.0,0.0,0.0,0.0,0.0,0.0,0.0,0.0,0.0,0.0,-3.1056,-3.146,-3.1243,-3.0899,-3.0339,-3.0141,-2.9994,-2.9994,-2.9994,-2.9994,-2.9994,-2.9994,-2.9994,-2.9994,-2.9994,-2.9994,-2.9994,-2.9994,-2.9994,-2.9994,-2.9994,-2.9994,-2.9994,-2.9994,-2.9829,-2.9559,-2.9373,-2.8856,-2.8173,-2.7997,-2.7645,-2.7309,0.0,0.0,0.0,0.0,0.0,0.0,-3.1511,-3.1511,-3.1511,-3.1511,-3.1511,-3.1511,0.0,0.0,0.0,0.0,0.0,0.0,0.0,0.0,0.0,0.0,0.0,0.0,0.0,0.0,-3.0837,-2.9504,-2.9504,-2.8826,0.0,0.0,-2.749,-2.749,0.0,0.0,0.0,0.0,0.0,0.0,0.0,0.0,0.0,0.0,0.0,0.0,0.0,0.0,0.0,0.0,0.0,0.0,0.0,0.0,0.0,0.0,-2.42,-2.42,-2.42,-2.42,-2.42,-2.42,-2.42,-2.42,0.0,0.0,-2.42,-2.42,-2.42,-2.42,-2.42,-2.42,-2.4303,-2.4648,0.0,-2.583,0.0,0.0,0.0,0.0,0.0,-3.0365,0.0,-3.0844,-3.0734,-3.0375,-3.0607,-3.0599,-3.0047,-2.9994,-2.9994,-2.9994,-2.9994,-2.9994,-2.9994,-2.9994,-2.9994,-2.9994,-2.9994,-2.9994,-2.9994,-2.9994,-2.9994,-2.9994,-2.9722,-2.9617,-2.9606,-2.9201,-2.8854,-2.8541,-2.8278,-2.7784,-2.7208,-2.7067,-2.6825,-2.661,0.0,0.0,0.0,0.0,0.0,0.0,0.0,0.0,-3.1511,-3.1511,-3.1511,0.0,0.0,0.0,0.0,0.0,0.0,0.0,0.0,0.0,0.0,0.0,0.0,0.0,0.0,0.0,-3.0837,-2.9504,-2.9504,-2.8826,-2.749,-2.749,-2.749,-2.749,0.0,0.0,0.0,0.0,0.0,0.0,0.0,0.0,0.0,0.0,0.0,0.0,0.0,0.0,0.0,0.0,0.0,0.0,0.0,0.0,-2.42,0.0,-2.42,-2.42,-2.42,-2.42,-2.42,-2.42,-2.42,-2.42,0.0,0.0,-2.42,-2.42,-2.42,-2.42,-2.42,-2.42,-2.42,-2.42,-2.5061,0.0,-2.5716,0.0,0.0,0.0,0.0,-3.0216,-3.0227,-3.0629,-3.0444,-2.9372,-3.0232,-3.0599,-3.0047,-2.9994,-2.9994,-2.9994,-2.9994,-2.9994,-2.9994,-2.9994,-2.9994,-2.9994,-2.9994,-2.9994,-2.9994,-2.9994,-2.9994,-2.9942,-2.9069,-2.8688,-2.8605,-2.7329,-2.6831,-2.6745,-2.5961,-2.5629,-2.5572,-2.5104,-2.4943,-2.4943,0.0,0.0,0.0,0.0,0.0,0.0,0.0,0.0,-3.1351,-3.0866,-3.1219,0.0,0.0,0.0,0.0,0.0,0.0,0.0,0.0,0.0,0.0,0.0,0.0,0.0,0.0,0.0,-3.1058,-3.0178,-2.9721,-2.9048,-2.8157,-2.7723,-2.749,-2.749,-2.749,-2.749,0.0,0.0,0.0,0.0,0.0,0.0,0.0,0.0,0.0,0.0,0.0,0.0,0.0,0.0,0.0,0.0,0.0,0.0,0.0,-2.42,-2.42,-2.42,-2.42,-2.42,-2.42,-2.42,-2.42,-2.42,-2.42,-2.42,-2.42,-2.42,-2.42,-2.42,-2.42,-2.42,-2.42,-2.42,-2.505,0.0,0.0,0.0,0.0,0.0,-2.9284,-2.9574,0.0,0.0,-2.9351,-2.93,-2.9589,-2.9859,-2.9984,-2.9994,-2.9994,-2.9994,-2.9994,-2.9994,-2.9994,-2.9994,-2.9994,-2.9994,-2.9994,-2.9669,-2.9122,-2.9122,-2.8794,-2.8208,-2.7931,-2.766,-2.7391,-2.6993,-2.6489,-2.5939,-2.5673,-2.5398,-2.5123,-2.4941,-2.4894,-2.4894,0.0,0.0,0.0,0.0,0.0,0.0,0.0,0.0,-3.1351,-3.0925,0.0,0.0,0.0,0.0,0.0,0.0,0.0,0.0,0.0,0.0,0.0,0.0,0.0,0.0,0.0,-3.1539,-3.1161,-3.0494,-2.9827,-2.9142,-2.8481,-2.7809,-2.749,-2.749,-2.749,-2.749,0.0,0.0,0.0,0.0,0.0,0.0,-2.7188,0.0,0.0,0.0,0.0,0.0,0.0,0.0,0.0,0.0,0.0,0.0,0.0,0.0,-2.42,-2.42,0.0,-2.42,-2.42,-2.42,-2.42,0.0,0.0,-2.42,-2.42,-2.42,-2.42,-2.42,-2.42,-2.42,-2.42,-2.42,-2.505,0.0,0.0,0.0,0.0,-2.8372,0.0,0.0,0.0,-2.8604,-2.8701,-2.8792,-2.8949,-2.9249,-2.9715,-2.9735,-2.9818,-2.9984,-2.9994,-2.9994,-2.9994,-2.9669,-2.9501,-2.9511,-2.9175,-2.8741,-2.8189,-2.8043,-2.7699,-2.7147,-2.6667,-2.6356,0.0,-2.5589,-2.5127,-2.4652,-2.4496,-2.4286,-2.4016,-2.4016,-2.4016,-2.4016,0.0,0.0,0.0,0.0,0.0,0.0,0.0,0.0,0.0,0.0,0.0,0.0,0.0,0.0,0.0,0.0,0.0,0.0,0.0,0.0,0.0,0.0,0.0,0.0,0.0,-3.1539,-3.1117,-3.0494,-2.9827,-2.9142,-2.8481,-2.7842,-2.7556,-2.749,-2.749,-2.749,0.0,0.0,0.0,0.0,0.0,0.0,0.0,0.0,0.0,0.0,0.0,0.0,0.0,0.0,0.0,0.0,0.0,0.0,0.0,0.0,0.0,0.0,0.0,-2.42,0.0,0.0,0.0,0.0,0.0,-2.42,0.0,-2.42,-2.42,-2.42,-2.42,-2.42,-2.42,-2.42,-2.505,0.0,0.0,-2.6583,0.0,0.0,-2.834,0.0,-2.7987,-2.8344,-2.8427,-2.7924,-2.8317,-2.8763,-2.9228,-2.9259,-2.9456,-2.988,-2.9849,-2.9817,-2.9889,-2.9122,-2.8668,-2.8542,-2.7722,-2.7327,-2.7236,-2.6858,-2.6625,-2.6501,-2.5386,-2.4891,-2.4785,-2.3609,-2.31,-2.304,-2.2731,-2.2594,-2.2594,-2.2594,-2.2594,-2.2594,0.0,0.0,0.0,0.0,0.0,0.0,0.0,0.0,0.0,0.0,0.0,0.0,0.0,0.0,0.0,0.0,0.0,0.0,0.0,0.0,0.0,0.0,0.0,0.0,0.0,-3.1029,-3.0644,-3.0494,-2.9827,-2.9142,-2.8514,-2.8352,-2.8006,-2.749,-2.749,-2.749,-2.749,0.0,0.0,0.0,0.0,0.0,0.0,0.0,0.0,0.0,-2.5217,-2.5004,0.0,0.0,0.0,0.0,0.0,0.0,0.0,0.0,-2.42,-2.42,-2.42,0.0,-2.42,-2.42,-2.42,-2.42,0.0,-2.42,-2.42,-2.42,0.0,-2.42,-2.42,-2.42,-2.42,-2.42,0.0,0.0,-2.5216,0.0,0.0,-2.6465,-2.7122,-2.7594,-2.7458,-2.7546,-2.7696,-2.7893,-2.8028,-2.8286,-2.8752,-2.8773,-2.8825,-2.8938,-2.832,-2.8334,-2.9006,-2.8794,-2.8202,-2.7247,-2.7036,-2.6433,-2.5548,-2.5457,-2.5044,-2.4421,-2.4123,-2.3817,-2.354,-2.3203,-2.2946,-2.2723,-2.2628,-2.2594,-2.2594,-2.2594,-2.2594,-2.2594,0.0,0.0,0.0,0.0,0.0,0.0,0.0,0.0,0.0,0.0,0.0,0.0,0.0,0.0,0.0,0.0,0.0,0.0,0.0,0.0,0.0,0.0,0.0,0.0,-3.1641,-3.0896,-3.0494,-3.0494,-2.9518,-2.8839,-2.8481,-2.8189,-2.7842,-2.749,-2.749,-2.749,-2.749,-2.749,-2.749,0.0,-2.6633,0.0,0.0,0.0,0.0,0.0,-2.485,-2.4802,0.0,-2.4358,-2.42,-2.42,0.0,0.0,0.0,0.0,-2.42,-2.42,-2.42,-2.42,-2.42,-2.42,-2.42,-2.42,-2.42,0.0,0.0,0.0,0.0,0.0,0.0,0.0,0.0,0.0,-2.4699,0.0,0.0,0.0,-2.645,-2.5944,-2.6741,-2.7301,0.0,-2.7309,-2.7413,-2.7603,-2.7624,-2.7821,-2.8276,-2.8297,-2.839,-2.8607,-2.7804,-2.7617,-2.8093,-2.7352,-2.6659,-2.5962,-2.555,-2.502,-2.4403,-2.4209,-2.3878,-2.34,-2.328,-2.3092,-2.2852,-2.2852,-2.2783,-2.2594,-2.2594,-2.2594,-2.2594,-2.2594,-2.2594,-2.2594,0.0,0.0,0.0,0.0,0.0,0.0,0.0,0.0,0.0,0.0,0.0,0.0,0.0,0.0,0.0,0.0,0.0,0.0,0.0,0.0,0.0,0.0,0.0,-3.1438,-3.1597,-3.0688,-3.0178,-3.0178,-2.9075,-2.8449,-2.8352,-2.7875,-2.759,-2.749,-2.749,-2.749,-2.749,-2.749,-2.749,0.0,-2.6346,0.0,0.0,0.0,0.0,0.0,0.0,0.0,0.0,-2.425,-2.4116,-2.4116,-2.4116,0.0,0.0,0.0,0.0,0.0,-2.4116,-2.4043,-2.4043,-2.408,-2.4043,-2.4007,-2.4007,0.0,0.0,0.0,0.0,0.0,0.0,-2.3224,0.0,0.0,0.0,0.0,-2.5104,-2.5805,-2.6157,-2.5816,-2.6573,0.0,-2.7195,-2.7268,-2.7309,-2.7309,-2.7309,-2.7475,-2.78,-2.7821,-2.7948,-2.8191,-2.7442,-2.6939,-2.6838,-2.5624,-2.4882,-2.4715,-2.3939,-2.3562,-2.3511,-2.3186,-2.3032,-2.3014,-2.274,-2.2594,-2.2594,-2.2594,-2.2594,-2.2594,-2.2594,-2.2594,-2.2594,-2.2594,-2.2594,-2.2603,0.0,0.0,0.0,0.0,0.0,0.0,0.0,0.0,0.0,0.0,0.0,0.0,0.0,0.0,0.0,0.0,0.0,0.0,0.0,0.0,0.0,0.0,-3.0554,-3.0673,-3.0703,-2.947,-2.8821,-2.8821,-2.8597,-2.8189,-2.7656,-2.8124,-2.8039,-2.749,-2.749,-2.749,-2.749,-2.749,-2.749,-2.739,-2.6346,0.0,0.0,0.0,0.0,0.0,0.0,0.0,0.0,-2.3593,-2.3677,-2.3677,-2.3677,0.0,0.0,0.0,0.0,0.0,-2.3677,-2.3446,-2.3261,-2.3604,-2.3446,-2.3187,-2.3187,0.0,0.0,0.0,0.0,0.0,0.0,-2.3038,-2.3038,0.0,0.0,-2.4217,0.0,0.0,-2.4935,-2.5285,0.0,-2.6293,-2.6687,-2.7081,-2.7309,-2.7309,-2.7309,-2.734,-2.7403,-2.7413,-2.7099,-2.6483,-2.5683,-2.4944,-2.4258,-2.473,-2.4435,-2.3402,-2.3246,-2.3032,-2.2774,-2.2714,-2.268,-2.268,-2.262,-2.2594,-2.2594,-2.2594,-2.2594,-2.2594,-2.2594,-2.2594,-2.2594,-2.2594,-2.2594,-2.2544,0.0,0.0,0.0,0.0,0.0,0.0,0.0,0.0,0.0,0.0,0.0,0.0,0.0,0.0,0.0,0.0,0.0,0.0,0.0,0.0,0.0,-2.9407,-2.9407,-2.9749,-3.0494,-2.9188,-2.8514,-2.8514,-2.8124,-2.7809,-2.749,-2.7809,-2.7809,-2.749,-2.749,-2.749,-2.749,-2.749,-2.7323,-2.6985,0.0,0.0,0.0,0.0,0.0,0.0,0.0,0.0,0.0,0.0,-2.3261,-2.3261,-2.3261,0.0,0.0,0.0,0.0,0.0,-2.3261,-2.2964,-2.2703,-2.2927,-2.2964,-2.3001,-2.3001,0.0,0.0,0.0,0.0,0.0,0.0,0.0,-2.2535,-2.3044,0.0,-2.4025,-2.4745,-2.4833,-2.4952,0.0,-2.5616,-2.6061,-2.6573,-2.6812,-2.704,-2.7289,-2.7309,-2.7309,-2.7309,-2.687,-2.6486,-2.6091,-2.4913,-2.4066,-2.3678,-2.3693,-2.3424,-2.2809,-2.2809,-2.2766,-2.2594,-2.2594,-2.2594,-2.2594,-2.2594,-2.2594,-2.2594,-2.2594,-2.2594,-2.2594,-2.2594,-2.2594,-2.2544,-2.2232,-2.2089,-2.1979,0.0,0.0,0.0,0.0,0.0,0.0,0.0,0.0,0.0,0.0,0.0,0.0,0.0,0.0,0.0,0.0,0.0,0.0,0.0,0.0,-2.8417,-2.8725,-2.8449,-2.8821,-2.9995,-2.8871,-2.8254,-2.8254,-2.7756,-2.749,-2.749,-2.749,-2.749,-2.749,-2.749,-2.749,-2.749,-2.7369,-2.7087,-2.6645,0.0,0.0,0.0,0.0,0.0,0.0,0.0,0.0,0.0,0.0,0.0,0.0,0.0,0.0,0.0,-2.2889,-2.2852,-2.2852,-2.2852,-2.2553,-2.2252,-2.2252,-2.2478,-2.2703,0.0,0.0,0.0,0.0,0.0,0.0,0.0,-2.1987,0.0,-2.3039,-2.3467,-2.3873,-2.4416,-2.4807,-2.5024,-2.5024,-2.5461,-2.5865,-2.6216,-2.6444,-2.6667,-2.6829,-2.6962,-2.6918,-2.6764,-2.6139,-2.5742,-2.5548,-2.4322,-2.3637,-2.3429,-2.2896,-2.2594,-2.2594,-2.2594,-2.2594,-2.2594,-2.2594,-2.2594,-2.2594,-2.2594,-2.2594,-2.2594,-2.2594,-2.2594,-2.2603,-2.2443,-2.2291,-2.2139,-2.1674,-2.142,-2.1216,0.0,0.0,0.0,0.0,0.0,0.0,0.0,0.0,0.0,0.0,0.0,0.0,0.0,0.0,0.0,0.0,0.0,0.0,0.0,0.0,-2.8111,-2.938,-2.8241,-2.7908,-2.8629,-2.7941,-2.7556,-2.7556,-2.7523,-2.749,-2.749,-2.749,-2.749,-2.749,-2.749,-2.749,-2.7469,-2.6952,-2.676,-2.6611,-2.5511,0.0,0.0,0.0,0.0,0.0,0.0,0.0,0.0,0.0,0.0,0.0,0.0,0.0,-2.2927,-2.2553,-2.244,-2.244,-2.244,-2.2138,-2.1845,-2.1845,-2.1845,-2.1883,-2.1883,-2.1845,0.0,-2.1845,0.0,0.0,0.0,-2.1807,-2.2108,-2.3039,-2.3224,-2.3546,-2.4373,-2.4528,-2.4549,-2.4549,-2.4952,-2.5241,-2.5282,-2.6082,-2.63,-2.557,-2.5958,-2.5839,-2.5089,-2.5041,-2.4648,-2.3877,-2.3777,-2.3388,-2.2695,-2.2653,-2.2594,-2.2594,-2.2594,-2.2594,-2.2594,-2.2594,-2.2594,-2.2594,-2.2594,-2.2594,-2.2594,-2.2594,-2.2594,-2.2544,-2.1979,-2.1471,-2.1019,-2.0968,-2.0652,-2.0181,0.0,0.0,0.0,0.0,0.0,0.0,0.0,0.0,0.0,0.0,0.0,0.0,0.0,0.0,0.0,0.0,0.0,0.0,0.0,0.0,-2.7743,-2.8241,-2.7776,-2.7623,-2.7875,-2.7623,-2.749,-2.749,-2.749,-2.749,-2.749,-2.749,-2.749,-2.749,-2.749,-2.7323,-2.6985,-2.6782,-2.6289,-2.5616,-2.5182,-2.4551,0.0,0.0,0.0,0.0,0.0,0.0,0.0,0.0,-2.2035,-2.2035,-2.2035,-2.2138,-2.2214,-2.2063,-2.2035,-2.2035,-2.2035,-2.1645,-2.1399,-2.2082,-2.1745,0.0,0.0,-2.1252,-2.1252,-2.1252,-2.0741,0.0,0.0,0.0,-2.1183,-2.2908,-2.2839,-2.3021,-2.432,-2.4497,-2.4497,-2.4497,-2.4306,-2.4247,-2.4553,-2.4461,-2.4401,-2.4396,-2.457,-2.4563,-2.4222,-2.3755,-2.3325,-2.3045,-2.2761,-2.2498,-2.2251,-2.2482,-2.2594,-2.2594,-2.2594,-2.2594,-2.2594,-2.2594,-2.2594,-2.2594,-2.219,-2.203,-2.203,-2.1683,-2.153,-2.153,-2.1275,-2.107,-2.0873,-2.0557,-2.0285,-2.0027,0.0,0.0,0.0,0.0,0.0,0.0,0.0,0.0,0.0,0.0,0.0,0.0,0.0,0.0,0.0,0.0,0.0,0.0,0.0,-2.749,-2.749,-2.749,-2.749,-2.749,-2.749,-2.749,-2.749,-2.749,-2.749,-2.749,-2.749,-2.749,-2.749,-2.749,-2.7323,-2.7053,-2.6692,-2.6324,-2.5639,-2.4791,-2.4623,-2.4009,0.0,0.0,0.0,0.0,0.0,0.0,0.0,0.0,-2.1807,-2.1807,-2.1807,-2.1807,-2.1838,-2.1983,-2.1768,-2.1522,-2.1655,-2.1415,-2.1183,-2.1587,0.0,0.0,-2.043,-2.0595,-2.0828,-2.0624,-2.0382,-2.0226,-2.0284,0.0,0.0,0.0,-2.2175,-2.2431,-2.3978,-2.396,-2.3917,-2.4153,-2.358,-2.3286,-2.3614,-2.3313,-2.3151,-2.3214,-2.3355,-2.3289,-2.3046,-2.2537,-2.2215,-2.2215,-2.1961,-2.1807,-2.1807,-2.2064,-2.2234,-2.2234,-2.2234,-2.2362,-2.2594,-2.2594,-2.2594,-2.2594,-2.1979,-2.1725,-2.1674,-2.1121,-2.0814,-2.066,-2.066,-2.0557,-2.0359,-1.999,-1.9835,-1.9776,0.0,0.0,0.0,0.0,0.0,0.0,0.0,0.0,0.0,0.0,0.0,0.0,0.0,0.0,0.0,0.0,0.0,0.0,0.0,-2.749,-2.749,-2.749,-2.749,-2.749,-2.749,-2.749,-2.749,-2.749,-2.749,-2.749,-2.749,-2.749,-2.749,-2.7503,-2.6952,-2.6679,-2.6611,-2.5476,-2.4743,-2.4348,-2.3801,-2.3113,-2.2402,0.0,0.0,0.0,0.0,0.0,0.0,0.0,-2.1807,-2.1807,-2.1807,-2.1807,-2.1901,-2.2366,-2.1732,-2.1014,-2.1392,-2.1501,-2.1233,-2.0165,0.0,0.0,-1.9363,-1.9981,-2.0712,-2.0031,-2.043,-2.0518,-1.9231,-2.001,0.0,-2.1164,-2.1182,-2.1729,-2.3278,-2.2853,-2.2677,-2.3406,-2.2853,-2.2394,-2.2394,-2.2818,-2.2747,-2.1942,-2.2321,-2.2206,-2.1444,-2.1396,-2.1396,-2.1396,-2.1405,-2.1405,-2.1405,-2.1413,-2.1413,-2.1413,-2.1413,-2.1807,-2.2585,-2.2585,-2.2585,-2.2535,-2.192,-2.1666,-2.1607,-2.1113,-2.0542,-2.0071,-2.0071,-1.9768,-1.9264,-1.9264,-1.9264,-1.9264,0.0,0.0,0.0,0.0,0.0,0.0,0.0,0.0,0.0,0.0,0.0,0.0,0.0,0.0,0.0,0.0,0.0,0.0,0.0,-2.749,-2.749,-2.749,-2.749,-2.749,-2.749,-2.749,-2.749,-2.749,-2.749,-2.749,-2.749,-2.749,-2.749,-2.7503,0.0,-2.6508,-2.607,-2.5028,-2.4288,-2.3801,-2.3372,-2.2852,-2.2402,0.0,0.0,0.0,0.0,0.0,0.0,0.0,0.0,0.0,-2.1807,-2.2035,-2.2325,-2.2459,-2.2506,-2.2562,-2.2644,-2.1789,-2.098,-2.1396,0.0,0.0,0.0,-2.0127,0.0,0.0,-1.9663,-1.9469,-1.9082,-1.8904,-1.9267,-2.0561,-2.0601,-2.094,-2.2179,-2.2398,-2.2482,-2.2711,-2.2104,-2.1704,-2.1704,-2.1365,-2.1038,-2.0774,-2.0878,-2.0902,-2.0626,-2.0626,-2.0626,-2.0626,-2.0891,-2.1037,-2.1037,-2.1285,-2.1413,-2.1413,-2.1086,-2.1204,-2.1747,-2.1415,-2.1276,-2.1227,-2.0269,-1.9857,-1.9816,-1.9277,-1.8985,-1.8835,-1.8835,-1.8734,-1.8591,-1.8591,-1.8591,-1.8591,0.0,0.0,0.0,0.0,0.0,0.0,0.0,0.0,0.0,0.0,-2.9107,-2.8487,0.0,0.0,0.0,0.0,0.0,0.0,0.0,0.0,-2.749,-2.749,-2.749,-2.749,-2.749,-2.749,-2.749,-2.749,-2.749,-2.749,-2.749,-2.749,-2.739,-2.7154,0.0,-2.5814,-2.524,-2.4276,-2.357,-2.3113,-2.2852,-2.2515,-2.2138,0.0,0.0,0.0,0.0,0.0,0.0,0.0,0.0,0.0,-2.1807,-2.2128,-2.2462,-2.2165,-2.211,-2.212,-2.1887,-2.1032,-2.0283,-2.048,-1.9909,-1.934,-1.9625,0.0,0.0,0.0,-1.9004,-1.8922,-1.8634,-1.8474,-1.8717,-1.9661,-1.982,-2.0182,-2.1321,-2.1544,-2.165,-2.1961,-2.1392,-2.0961,-2.0961,-2.0555,-2.0292,-2.0292,-2.0292,-2.0292,-2.0292,-2.0292,-2.0292,-2.0292,-2.0523,-2.0643,-2.0643,-2.067,-2.0678,-2.0678,-2.0176,-2.0081,-2.0365,-2.0376,-2.0515,-2.066,-1.9568,-1.8973,-1.8784,-1.8447,-1.8299,-1.8299,-1.8299,-1.8299,-1.8299,-1.8299,-1.8299,-1.8299,0.0,0.0,0.0,0.0,0.0,0.0,0.0,0.0,0.0,0.0,-2.843,-2.7875,0.0,0.0,0.0,0.0,0.0,0.0,0.0,0.0,-2.749,-2.749,-2.749,-2.749,-2.749,-2.749,-2.749,-2.749,-2.749,-2.749,-2.749,0.0,-2.7188,-2.6611,0.0,-2.4981,-2.4348,-2.335,-2.2777,-2.244,-2.2365,-2.2138,-2.1807,-2.1807,0.0,0.0,0.0,0.0,0.0,0.0,0.0,0.0,-2.1807,-2.2149,-2.2434,-2.181,-2.1269,-2.0692,-2.0149,-1.9857,-1.9466,-1.842,-1.8813,-1.9502,-1.9502,-1.8696,-1.8008,-1.8123,0.0,-1.8723,-1.8112,-1.8523,-1.8829,-1.8559,-1.8862,-1.9445,-2.04,-2.0332,-2.0413,-2.1123,-2.0619,-2.0246,-2.0246,-2.0292,-2.0246,-2.0155,-2.0201,-2.0201,-2.0155,-2.0201,-2.0246,-2.0246,-2.0292,-2.0292,-2.0246,-1.9828,-1.9592,-1.9509,-1.9004,-1.8781,-1.8805,-1.9431,-1.9974,-2.0321,-1.9369,-1.8645,-1.8211,-1.8211,-1.8211,-1.8211,-1.8211,-1.8211,-1.8211,-1.8211,-1.8211,-1.8211,0.0,0.0,0.0,0.0,0.0,0.0,0.0,0.0,0.0,0.0,0.0,0.0,0.0,0.0,0.0,0.0,0.0,0.0,0.0,0.0,-2.749,-2.749,-2.749,-2.749,-2.749,-2.7403,-2.7403,-2.749,-2.749,-2.749,0.0,0.0,0.0,-2.6195,0.0,-2.4981,-2.4301,-2.3054,-2.2665,-2.2815,-2.2176,-2.1883,-2.1807,-2.1807,-2.1807,0.0,0.0,0.0,0.0,0.0,0.0,0.0,-2.1807,-2.2366,-2.3039,-2.2868,-2.2613,-2.2365,-2.2249,-2.0976,-1.962,-1.9407,-1.8609,-1.7875,-1.7875,-1.7694,-1.7882,-1.9073,-1.8734,-1.8152,-1.804,-1.8121,-1.8187,-1.8143,-1.8468,-1.8692,-1.8558,-1.8975,-1.9365,-1.9588,-1.9706,-1.9737,-1.9737,-2.0056,-1.9973,-1.9196,-1.9509,-1.9554,-1.915,-1.9509,-1.9737,-1.9737,-2.0102,-2.011,-1.9729,-1.9646,-1.9371,-1.8966,-1.8504,-1.8458,-1.8789,-1.8559,-1.834,-1.801,-1.7767,-1.7625,-1.7538,-1.7538,-1.7538,-1.7538,-1.7538,-1.7538,-1.7538,-1.7538,-1.7538,-1.7538,0.0,0.0,0.0,0.0,0.0,0.0,0.0,0.0,0.0,0.0,0.0,0.0,0.0,0.0,0.0,0.0,0.0,0.0,0.0,0.0,0.0,0.0,-2.749,-2.7469,-2.7403,-2.7403,-2.7403,-2.7403,-2.7403,0.0,0.0,0.0,0.0,-2.5534,0.0,-2.3963,-2.3375,-2.2505,-2.2214,-2.2402,-2.1959,-2.1807,-2.1807,-2.1807,-2.1807,-2.1807,-2.1807,0.0,0.0,0.0,0.0,0.0,0.0,0.0,-2.2813,-2.2482,-2.2257,-2.1961,-2.1518,-2.0269,0.0,-1.8702,0.0,-1.7066,-1.7066,-1.7066,-1.7278,-1.8083,-1.8128,-1.8,-1.8,-1.7838,-1.7716,-1.7716,-1.7846,-1.787,-1.766,-1.8097,-1.8498,-1.8506,-1.8661,-1.8832,-1.8957,-1.92,-1.9191,-1.8812,-1.905,-1.9096,-1.8827,-1.9058,-1.9234,-1.9234,-1.9463,-1.9471,-1.9234,-1.9004,-1.8727,-1.8458,-1.7939,-1.7846,-1.8079,-1.8087,-1.78,-1.7279,-1.7279,-1.7279,-1.7279,-1.7279,-1.7279,-1.7279,-1.7279,-1.7279,-1.7279,-1.7279,-1.7279,-1.7279,0.0,0.0,0.0,0.0,0.0,0.0,0.0,0.0,0.0,0.0,0.0,0.0,0.0,0.0,0.0,0.0,0.0,0.0,0.0,0.0,0.0,0.0,-2.7469,-2.7403,-2.7302,-2.7335,0.0,0.0,0.0,0.0,0.0,0.0,0.0,-2.4636,0.0,-2.2909,-2.2365,-2.1959,-2.1845,-2.1921,-2.1845,-2.1807,-2.1807,-2.1807,-2.1807,-2.1807,-2.1807,-2.1807,-2.1807,-2.1807,0.0,0.0,0.0,0.0,-2.2373,-2.1829,-2.1405,-2.0929,-2.0182,-1.9221,-1.8287,-1.7482,-1.6943,0.0,-1.6697,-1.6689,-1.6689,-1.6689,-1.7351,-1.7878,-1.7797,-1.7514,-1.727,-1.727,-1.7218,-1.7151,-1.7117,-1.7426,-1.7699,-1.7691,-1.7803,-1.7941,-1.8137,-1.8314,-1.8419,-1.8527,-1.8643,-1.8643,-1.855,-1.8643,-1.8689,-1.8689,-1.8781,-1.8781,-1.8689,-1.8272,-1.804,-1.7939,-1.752,-1.7279,-1.7326,-1.7753,-1.7707,-1.7279,-1.7279,-1.7279,-1.7279,-1.7279,-1.7279,-1.7279,-1.7279,-1.7279,-1.7279,-1.7279,-1.7279,-1.7279,0.0,0.0,0.0,0.0,0.0,0.0,0.0,0.0,0.0,0.0,-2.7248,-2.7302,0.0,0.0,0.0,0.0,0.0,0.0,0.0,0.0,0.0,0.0,-2.7335,-2.7302,-2.7302,-2.6998,-2.6897,0.0,0.0,0.0,0.0,0.0,0.0,-2.3441,0.0,0.0,-2.2365,-2.1959,-2.1997,-2.2289,-2.1959,-2.1807,-2.1807,-2.1807,0.0,-2.1807,-2.1807,-2.1807,-2.1807,-2.1807,-2.1807,0.0,0.0,0.0,-2.249,-2.2373,-2.156,-2.073,-2.0929,0.0,-1.7779,0.0,-1.6492,-1.6286,0.0,0.0,-1.6689,0.0,-1.7106,-1.7351,-1.6943,-1.6812,-1.6771,-1.6771,-1.6778,-1.6637,-1.6314,-1.6572,-1.6788,-1.6765,-1.7288,-1.7664,-1.7711,-1.83,-1.8403,-1.7559,-1.7939,-1.7994,-1.752,-1.7939,-1.8179,-1.8179,-1.8596,-1.8596,-1.8179,-1.8133,-1.7846,-1.7426,-1.7326,-1.7279,-1.7279,-1.7372,-1.7372,-1.7279,-1.7279,-1.7279,-1.7279,-1.7279,-1.7279,-1.7279,-1.7279,-1.7279,-1.7279,-1.7279,-1.7279,-1.7279,0.0,0.0,0.0,0.0,0.0,0.0,0.0,0.0,0.0,0.0,0.0,-2.7113,0.0,0.0,0.0,0.0,0.0,0.0,0.0,0.0,0.0,0.0,0.0,-2.7201,-2.6964,-2.6897,0.0,0.0,0.0,0.0,0.0,-2.4228,-2.3841,0.0,0.0,0.0,0.0,-2.1883,-2.1921,-2.2063,-2.1883,-2.1807,0.0,0.0,0.0,0.0,0.0,0.0,-2.1807,-2.1807,-2.1807,-2.1807,-2.1807,0.0,0.0,0.0,-2.1561,-2.0423,-1.9911,-1.8719,-1.7458,0.0,-1.6409,-1.6087,-1.6004,-1.617,-1.6286,-1.6038,-1.6335,-1.6656,-1.6689,-1.6533,-1.6368,-1.6368,-1.6121,-1.5922,-1.5722,-1.5841,-1.593,-1.5923,-1.634,-1.6706,-1.6922,-1.7417,-1.7597,-1.7311,-1.752,-1.7567,-1.7333,-1.752,-1.766,-1.766,-1.7846,-1.7846,-1.766,-1.766,-1.752,-1.7279,-1.7279,-1.7279,-1.7279,-1.7279,-1.7279,-1.7279,-1.7279,-1.7279,-1.7279,-1.7279,-1.7279,-1.7279,-1.7279,-1.7279,-1.7279,-1.7279,-1.7279,-1.7279,0.0,0.0,0.0,0.0,0.0,0.0,0.0,0.0,0.0,0.0,0.0,0.0,0.0,0.0,0.0,0.0,0.0,0.0,0.0,0.0,0.0,0.0,0.0,0.0,-2.6714,-2.6624,0.0,0.0,0.0,0.0,-2.3132,-2.283,-2.2703,0.0,-2.2063,-2.1807,0.0,0.0,0.0,0.0,0.0,0.0,0.0,0.0,0.0,0.0,0.0,0.0,0.0,0.0,0.0,-2.1807,-2.1807,-2.1807,0.0,0.0,0.0,-2.0205,0.0,0.0,-1.7261,-1.668,-1.6252,-1.5839,0.0,0.0,-1.5971,0.0,-1.5756,-1.617,-1.6327,-1.6128,-1.5922,-1.5922,-1.5631,-1.5389,-1.5389,-1.5389,-1.5418,-1.5498,-1.5833,-1.6155,-1.6507,-1.6829,-1.7069,-1.7264,-1.7279,-1.7279,-1.7279,-1.7279,-1.7279,-1.7279,-1.7279,-1.7279,-1.7279,-1.7279,-1.7279,-1.7279,-1.7279,-1.7279,-1.7279,-1.7279,-1.7279,-1.7279,-1.7279,-1.7279,-1.7279,-1.7279,-1.7279,-1.7279,-1.7279,-1.7279,-1.7279,-1.7279,-1.7279,-1.7279,0.0,0.0,0.0,0.0,0.0,0.0,0.0,0.0,0.0,0.0,0.0,0.0,0.0,0.0,-2.7079,-2.7268,0.0,0.0,0.0,0.0,0.0,0.0,0.0,0.0,0.0,0.0,0.0,0.0,0.0,0.0,-2.3001,-2.2214,-2.1845,-2.1845,-2.1807,-2.1807,-2.1807,0.0,0.0,0.0,0.0,0.0,0.0,0.0,0.0,0.0,0.0,0.0,0.0,0.0,0.0,0.0,0.0,0.0,-2.1807,0.0,0.0,0.0,0.0,-1.7515,0.0,-1.6329,-1.5763,-1.5555,0.0,0.0,-1.5971,-1.5514,-1.5756,-1.5971,-1.5555,-1.5472,-1.5431,-1.5431,-1.5431,-1.5389,-1.5389,-1.5389,-1.5498,-1.5855,-1.6162,-1.6521,-1.6844,-1.7121,-1.7264,-1.7279,-1.7279,-1.7279,-1.7279,-1.7279,-1.7279,-1.7279,-1.7279,-1.7279,-1.7279,-1.7279,-1.7279,-1.7279,-1.7279,-1.7279,-1.7279,-1.7279,-1.7279,-1.7279,-1.7279,-1.7279,-1.7279,-1.7279,-1.7279,-1.7279,-1.7279,-1.7279,-1.7279,-1.7279,-1.7279,-1.7279,0.0,0.0,0.0,0.0,0.0,0.0,0.0,0.0,0.0,0.0,0.0,0.0,0.0,-2.6863,-2.6829,-2.6897,-2.6782,0.0,0.0,0.0,0.0,0.0,0.0,0.0,0.0,0.0,0.0,0.0,0.0,-2.274,-2.2214,-2.1911,-2.1807,-2.1807,-2.1807,-2.1807,-2.1807,-2.1807,0.0,0.0,0.0,0.0,0.0,0.0,0.0,0.0,0.0,0.0,0.0,0.0,0.0,0.0,0.0,0.0,0.0,0.0,0.0,0.0,0.0,0.0,0.0,-1.6647,-1.617,-1.5797,-1.568,-1.5631,-1.559,-1.5431,-1.5506,-1.559,-1.5431,-1.5389,-1.5389,-1.5389,-1.5389,-1.5389,-1.5389,-1.5389,-1.5506,-1.5877,-1.6184,-1.6543,-1.6866,-1.7143,-1.7279,-1.7279,-1.7279,-1.7279,-1.7279,-1.7279,-1.7279,-1.7279,-1.7279,-1.7279,-1.7279,-1.7279,-1.7279,-1.7279,-1.7279,-1.7279,-1.7279,-1.7279,-1.7279,-1.7279,-1.7279,-1.7279,-1.7279,-1.7279,-1.7279,-1.7279,-1.7279,-1.7279,-1.7232,-1.6756,-1.6567,-1.652,0.0,0.0,0.0,0.0,0.0,0.0,0.0,0.0,0.0,0.0,0.0,0.0,0.0,0.0,-2.6692,-2.6658,-2.6624,-2.6487,-2.6129,-2.6198,0.0,0.0,0.0,0.0,0.0,0.0,0.0,0.0,0.0,0.0,0.0,-2.1807,-2.1807,-2.1807,-2.1807,-2.1807,0.0,0.0,0.0,-2.1807,0.0,0.0,-2.1807,0.0,0.0,0.0,0.0,0.0,0.0,0.0,0.0,0.0,0.0,0.0,0.0,0.0,0.0,0.0,-1.9213,0.0,0.0,0.0,-1.617,-1.5763,-1.5472,-1.5389,-1.5389,-1.5389,-1.5389,-1.5389,-1.5389,-1.5389,-1.5389,-1.5389,-1.5389,-1.5389,-1.5389,-1.5389,-1.5592,-1.6016,-1.6243,-1.658,-1.6974,-1.7208,-1.7279,-1.7279,-1.7279,-1.7279,-1.7279,-1.7279,-1.7279,-1.7279,-1.7279,-1.7279,-1.7279,-1.7279,-1.7279,-1.7279,-1.7279,-1.7279,-1.7279,-1.7279,-1.7138,-1.6951,-1.7185,-1.7279,-1.7279,-1.7279,-1.7138,-1.6951,-1.6951,-1.6763,-1.652,-1.6001,-1.5812,-1.5764,0.0,0.0,0.0,0.0,0.0,0.0,0.0,0.0,0.0,0.0,0.0,0.0,0.0,0.0,0.0,-2.6499,-2.6499,-2.6176,-2.5382,-2.5312,0.0,0.0,0.0,0.0,0.0,0.0,0.0,0.0,0.0,0.0,0.0,0.0,-2.1807,-2.1807,-2.1807,-2.1807,-2.1807,0.0,-2.1807,-2.1807,0.0,-2.1807,-2.1807,0.0,0.0,0.0,-2.1807,-2.1807,0.0,-2.1769,0.0,0.0,0.0,0.0,0.0,0.0,0.0,0.0,0.0,0.0,0.0,0.0,-1.5763,-1.5431,-1.5389,-1.5389,-1.5389,-1.5389,-1.5389,-1.5389,-1.5389,-1.5389,-1.5389,-1.5389,-1.5389,-1.5389,-1.5389,-1.5396,-1.5672,-1.6338,-1.6419,-1.663,-1.722,-1.7279,-1.7279,-1.7279,-1.7279,-1.7279,-1.7279,-1.7279,-1.7279,-1.7279,-1.7279,-1.7279,-1.7279,-1.7279,-1.7279,-1.7279,-1.7279,-1.7279,-1.7279,-1.7232,-1.6857,-1.619,-1.6904,-1.7232,-1.7232,-1.7286,-1.681,-1.619,-1.619,-1.5717,-1.5099,-1.5051,-1.5051,-1.5051,0.0,0.0,0.0,0.0,0.0,0.0,0.0,0.0,0.0,0.0,0.0,0.0,0.0,0.0,-2.6521,-2.6499,-2.6499,-2.6418,-2.6176,-2.5629,-2.5194,-2.4969,-2.3888,-2.3313,0.0,0.0,0.0,0.0,0.0,0.0,0.0,0.0,0.0,0.0,-2.1807,-2.1807,-2.1807,-2.1807,0.0,-2.1807,-2.1807,-2.1807,0.0,0.0,0.0,0.0,0.0,-2.1512,-2.1359,0.0,-2.1282,-2.1167,0.0,0.0,0.0,0.0,0.0,0.0,-1.9116,0.0,0.0,0.0,0.0,0.0,-1.5472,-1.5389,-1.5389,-1.5389,-1.5389,-1.5389,-1.5389,-1.5389,-1.5389,-1.5389,-1.5389,-1.5389,-1.5389,-1.5593,-1.5928,-1.6367,-1.6617,-1.6879,-1.7242,-1.7279,-1.7279,-1.7279,-1.7279,-1.7279,-1.7279,-1.7279,-1.7279,-1.7279,-1.7279,-1.7279,-1.7279,-1.7279,-1.7279,-1.7279,-1.6763,-1.652,-1.648,-1.5954,-1.5622,-1.5432,-1.5622,-1.5717,-1.5764,-1.6285,-1.6048,-1.5384,-1.5384,-1.5289,-1.5051,-1.443,-1.4238,-1.4148,0.0,0.0,0.0,0.0,0.0,0.0,0.0,0.0,0.0,0.0,0.0,0.0,0.0,0.0,0.0,-2.6025,-2.6165,-2.6028,-2.5361,-2.5053,-2.4763,-2.4438,-2.3553,-2.2979,-2.2815,0.0,0.0,0.0,0.0,0.0,0.0,0.0,0.0,0.0,0.0,0.0,0.0,0.0,0.0,0.0,-2.1807,0.0,0.0,-2.1693,-2.1617,0.0,0.0,0.0,-2.1205,-2.1282,-2.1167,0.0,0.0,0.0,0.0,0.0,0.0,0.0,0.0,0.0,0.0,0.0,0.0,0.0,-1.5472,-1.5389,-1.5389,-1.5389,-1.5389,-1.5389,-1.5389,-1.5389,-1.5389,-1.5389,-1.5389,-1.5389,-1.5389,-1.5709,-1.6023,-1.6375,-1.6705,-1.7027,-1.725,-1.7279,-1.7279,-1.7279,-1.7279,-1.7279,-1.7279,-1.7279,-1.7279,-1.7279,-1.7279,-1.7279,-1.7279,-1.6998,-1.6857,-1.681,-1.6096,-1.5717,-1.5717,-1.5289,-1.4908,-1.4621,-1.4956,-1.4717,-1.4196,-1.4956,-1.5003,-1.4621,-1.4621,-1.4436,-1.41,-1.3619,-1.3431,-1.3383,0.0,0.0,0.0,0.0,0.0,0.0,0.0,0.0,0.0,0.0,0.0,0.0,0.0,0.0,0.0,0.0,-2.5961,-2.5626,-2.4137,-2.4304,-2.4122,-2.3335,-2.3224,-2.2987,-2.2584,-2.2573,0.0,0.0,0.0,0.0,0.0,0.0,0.0,0.0,0.0,0.0,0.0,0.0,0.0,-2.1769,-2.1807,-2.1807,0.0,0.0,-2.1512,-2.1464,-2.1436,-2.132,-2.1167,-2.1359,-2.1272,0.0,0.0,0.0,0.0,0.0,-1.8559,0.0,0.0,0.0,0.0,0.0,-1.5722,0.0,-1.5389,-1.5389,-1.5389,-1.5389,-1.5389,-1.5389,-1.5389,-1.5389,-1.5389,-1.5389,-1.5389,-1.5389,-1.5389,-1.5738,-1.6067,-1.6382,-1.6734,-1.7018,-1.7304,-1.7279,-1.7279,-1.7279,-1.7279,-1.7279,-1.7279,-1.7232,-1.7185,-1.7185,-1.7091,-1.7044,-1.7044,-1.6426,-1.6096,-1.6048,-1.5337,-1.4956,-1.4956,-1.486,-1.443,-1.3811,-1.4526,-1.4052,-1.2861,-1.3522,-1.3763,-1.3763,-1.3763,-1.3383,-1.2813,-1.2813,-1.2813,-1.2813,0.0,0.0,0.0,0.0,0.0,0.0,0.0,0.0,0.0,0.0,0.0,0.0,0.0,0.0,0.0,0.0,-2.7404,-2.725,-2.6271,-2.5643,-2.4965,-2.4122,-2.3526,-2.3143,-2.306,-2.3049,-2.3008,-2.2915,0.0,0.0,0.0,0.0,0.0,0.0,0.0,0.0,0.0,0.0,0.0,-2.1578,-2.1731,0.0,-2.154,-2.1502,-2.1397,-2.1244,-2.1099,-2.0896,-2.0722,-2.076,-2.076,-2.0722,0.0,0.0,0.0,0.0,0.0,0.0,0.0,0.0,0.0,0.0,0.0,0.0,-1.5389,-1.5389,-1.5389,-1.5389,-1.5389,-1.5389,-1.5389,-1.5389,-1.5389,-1.5389,-1.5389,-1.5389,-1.5389,-1.5921,-1.6345,-1.6404,-1.6879,-1.726,-1.7271,-1.7279,-1.7279,-1.7279,-1.7279,-1.7279,-1.7279,-1.6756,-1.6426,-1.6426,-1.5859,-1.5527,-1.5527,-1.5384,-1.5289,-1.5289,-1.4526,-1.4142,-1.4094,-1.3528,-1.3147,-1.3001,-1.3195,-1.3098,-1.2813,-1.2953,-1.3001,-1.3001,-1.3001,-1.2953,-1.2813,-1.2813,-1.2813,-1.2813,0.0,0.0,0.0,0.0,0.0,0.0,0.0,0.0,0.0,0.0,0.0,0.0,0.0,0.0,0.0,0.0,0.0,0.0,0.0,0.0,-2.4794,-2.4271,-2.3888,-2.3556,-2.3196,-2.3196,-2.3084,-2.2859,-2.2808,-2.2727,0.0,0.0,0.0,0.0,0.0,0.0,0.0,0.0,-2.1367,-2.1205,-2.1436,0.0,-2.1359,-2.1244,-2.1128,-2.1022,-2.0945,-2.0829,-2.0731,-2.0644,-2.0605,0.0,0.0,-2.0001,-1.9244,0.0,-1.7723,-1.6591,0.0,0.0,0.0,-1.5389,0.0,0.0,0.0,-1.5389,-1.5389,-1.5389,-1.5389,-1.5389,-1.5389,-1.5389,-1.5389,-1.5389,-1.5528,-1.5571,-1.5411,-1.5972,-1.647,-1.6639,-1.7033,-1.7279,-1.7279,-1.7279,-1.7279,-1.7279,-1.6951,-1.6763,-1.6763,-1.6048,-1.5669,-1.5669,-1.5289,-1.5099,-1.5099,-1.4717,-1.4478,-1.4478,-1.3715,-1.3335,-1.3335,-1.2953,-1.2813,-1.2813,-1.2813,-1.2813,-1.2813,-1.2813,-1.2813,-1.2813,-1.2813,-1.2813,-1.2813,-1.2813,-1.2813,-1.2813,0.0,0.0,0.0,0.0,0.0,0.0,0.0,0.0,0.0,0.0,0.0,0.0,0.0,0.0,0.0,0.0,0.0,0.0,0.0,0.0,0.0,-2.4282,-2.4249,-2.399,-2.3454,-2.3444,-2.3262,-2.2908,-2.3022,-2.3063,0.0,0.0,0.0,0.0,0.0,0.0,0.0,0.0,0.0,-2.1154,0.0,-2.125,-2.1138,-2.1034,-2.0976,-2.0906,-2.0867,-2.0829,-2.0819,-2.0644,-2.0605,-2.0566,-2.0411,-1.9362,0.0,0.0,0.0,0.0,0.0,0.0,0.0,0.0,0.0,-1.5389,0.0,0.0,0.0,-1.5389,-1.5389,-1.5389,0.0,0.0,0.0,-1.5389,0.0,0.0,0.0,-1.5957,0.0,-1.6763,-1.7099,-1.7279,-1.7279,-1.7279,-1.7279,-1.7279,-1.6763,-1.6332,-1.619,-1.548,-1.5051,-1.486,-1.4717,-1.4669,-1.4669,-1.4004,-1.3667,-1.3667,-1.3098,-1.2813,-1.2813,-1.2813,-1.2813,-1.2813,-1.2813,-1.2813,-1.2813,-1.2813,-1.2813,-1.2813,-1.2813,-1.2813,-1.2813,-1.2813,-1.2813,-1.2813,-2.6521,-2.6499,0.0,0.0,0.0,0.0,0.0,0.0,0.0,0.0,0.0,0.0,0.0,0.0,0.0,0.0,0.0,0.0,-2.567,0.0,0.0,0.0,-2.4454,-2.4433,-2.4339,-2.4339,-2.4308,-2.4257,-2.4139,-2.3934,0.0,0.0,0.0,0.0,-2.2441,0.0,0.0,0.0,-2.1942,0.0,-2.1902,-2.148,0.0,-2.1283,-2.1194,-2.0867,-2.0693,-2.0644,-2.0644,0.0,-2.0605,-2.0489,0.0,-1.9301,-1.9015,-1.8247,0.0,0.0,0.0,0.0,0.0,0.0,-1.5389,0.0,0.0,0.0,-1.5389,-1.5389,0.0,-1.5389,0.0,0.0,0.0,0.0,-1.5418,-1.5528,-1.5826,-1.5921,-1.6082,-1.6433,-1.696,-1.7279,-1.7279,-1.7279,-1.7279,-1.7279,-1.7232,-1.6904,-1.6237,-1.548,-1.4765,-1.4046,-1.3383,-1.305,-1.305,-1.2953,-1.2905,-1.2905,-1.2861,-1.2813,-1.2813,-1.2813,-1.2813,-1.2813,-1.2813,-1.2813,-1.2813,-1.2813,-1.2813,-1.2813,-1.2813,-1.2813,-1.2813,-1.2813,-1.2813,-1.2813,0.0,-2.6499,0.0,0.0,0.0,0.0,0.0,0.0,0.0,0.0,0.0,0.0,0.0,0.0,0.0,0.0,0.0,-2.5997,0.0,0.0,0.0,0.0,0.0,0.0,-2.41,-2.41,-2.41,-2.41,-2.4153,0.0,0.0,0.0,0.0,0.0,-2.3076,0.0,-2.2707,0.0,-2.2151,0.0,0.0,0.0,0.0,-2.1665,-2.1616,-2.1468,-2.1368,-2.1368,-2.1368,0.0,-2.1162,0.0,0.0,0.0,0.0,0.0,0.0,0.0,0.0,0.0,0.0,0.0,0.0,0.0,-1.5389,0.0,-1.5389,0.0,0.0,0.0,0.0,0.0,0.0,0.0,-1.5542,-1.5652,0.0,0.0,-1.6294,-1.6653,-1.6887,-1.7128,-1.7264,-1.7279,-1.7138,-1.6709,-1.6285,-1.5669,-1.4908,-1.4148,-1.3624,-1.3286,-1.2953,-1.2813,-1.2813,-1.2813,-1.2813,-1.2813,-1.2813,-1.2813,-1.2813,-1.2813,-1.2813,-1.2813,-1.2813,-1.2813,-1.2813,-1.2813,-1.2813,-1.2813,-1.2813,-1.2813,-1.2813,-1.2813,-1.2813,-1.2813,0.0,0.0,0.0,0.0,0.0,0.0,0.0,0.0,0.0,0.0,0.0,0.0,-2.7081,-2.6678,0.0,0.0,-2.5463,-2.5179,0.0,0.0,-2.4411,0.0,0.0,0.0,0.0,0.0,-2.3797,-2.3797,-2.398,-2.398,0.0,0.0,0.0,0.0,0.0,-2.3238,-2.2952,0.0,-2.251,-2.2227,-2.2227,-2.2227,-2.2207,-2.1973,-2.1963,-2.2041,-2.1924,-2.1885,-2.1843,-2.1585,-2.125,-2.0835,-1.9931,-1.8876,-1.7821,0.0,0.0,0.0,-1.5863,0.0,0.0,0.0,0.0,0.0,0.0,0.0,0.0,0.0,0.0,0.0,0.0,0.0,0.0,0.0,0.0,-1.5701,0.0,-1.5899,0.0,-1.6727,-1.6925,-1.6938,-1.6741,-1.6904,-1.6709,-1.5954,-1.5384,-1.4765,-1.3956,-1.3383,-1.3001,-1.2813,-1.2813,-1.2813,-1.2813,-1.2813,-1.2813,-1.2813,-1.2813,-1.2813,-1.2813,-1.2813,-1.2813,-1.2813,-1.2813,-1.2813,-1.2813,-1.2813,-1.2813,-1.2813,-1.2813,-1.2813,-1.2813,-1.2813,-1.2813,-1.2813,-2.8059,-2.7228,0.0,0.0,0.0,0.0,0.0,0.0,0.0,0.0,0.0,0.0,0.0,0.0,0.0,0.0,0.0,-2.454,-2.4497,0.0,-2.4497,0.0,0.0,-2.4206,0.0,0.0,0.0,0.0,0.0,0.0,0.0,0.0,0.0,0.0,-2.3232,-2.3091,-2.3071,-2.3071,-2.3062,-2.3052,-2.3052,-2.3052,-2.2964,0.0,-2.2139,-2.2441,-2.2031,-2.1885,-2.1751,-2.0796,-2.0442,-2.0138,-1.8345,-1.7739,0.0,0.0,0.0,0.0,0.0,-1.6518,0.0,-1.5462,0.0,0.0,0.0,0.0,-1.5389,0.0,0.0,0.0,0.0,0.0,0.0,0.0,0.0,0.0,0.0,0.0,-1.6045,-1.6389,-1.693,-1.6749,-1.5289,-1.5812,-1.5906,-1.5194,-1.5099,-1.4765,-1.3956,-1.3859,-1.3522,-1.2813,-1.2813,-1.2813,-1.2813,-1.2813,-1.2813,-1.2813,-1.2813,-1.2813,-1.2813,-1.2813,-1.2813,-1.2813,-1.2813,-1.2813,-1.2813,-1.2813,-1.2813,-1.2813,-1.2813,-1.2813,-1.2813,-1.2813,-1.2813,-1.2813,0.0,0.0,0.0,0.0,0.0,0.0,0.0,-2.6128,0.0,0.0,-2.5832,0.0,0.0,-2.502,-2.4497,0.0,0.0,-2.4497,-2.4497,-2.4368,0.0,0.0,0.0,-2.4024,0.0,0.0,0.0,0.0,0.0,0.0,0.0,0.0,0.0,0.0,0.0,-2.3091,0.0,0.0,0.0,0.0,0.0,-2.3091,-2.3062,-2.2779,-2.276,-2.2867,-2.2721,-2.2672,-2.2629,-2.2308,-2.1601,-2.0685,-1.969,-1.8599,-1.7628,-1.7286,-1.6803,-1.6433,-1.6622,-1.6468,-1.6184,-1.6082,-1.6052,-1.6052,0.0,0.0,0.0,0.0,0.0,0.0,0.0,0.0,0.0,0.0,0.0,0.0,0.0,0.0,-1.5434,-1.4518,-1.5711,-1.6379,-1.5859,-1.5622,-1.5146,-1.4382,-1.4334,-1.3956,-1.319,-1.319,-1.305,-1.2813,-1.2813,-1.2813,-1.2813,-1.2813,-1.2813,-1.2813,-1.2813,-1.2813,-1.2813,-1.2813,-1.2813,-1.2813,-1.2813,-1.2813,-1.2813,-1.2813,-1.2813,-1.2813,-1.2813,-1.2813,-1.2813,-1.2813,-1.2813,-1.2813,-2.7032,0.0,0.0,0.0,0.0,0.0,0.0,0.0,0.0,0.0,-2.5489,0.0,-2.5348,0.0,-2.4497,0.0,-2.4497,-2.4454,-2.4411,-2.4335,0.0,-2.4368,-2.411,0.0,0.0,0.0,0.0,0.0,0.0,-2.3493,0.0,0.0,0.0,0.0,0.0,-2.3091,-2.3091,-2.3091,-2.3091,0.0,0.0,-2.3091,0.0,-2.3091,-2.3091,-2.3091,-2.3091,-2.3091,-2.3047,-2.2731,-2.2014,-2.1136,-2.0028,-1.8966,-1.7945,-1.7234,-1.6872,-1.6682,-1.6617,-1.6587,-1.6558,-1.6441,-1.6411,-1.6411,-1.6411,0.0,-1.6411,0.0,0.0,0.0,0.0,0.0,0.0,0.0,0.0,0.0,0.0,-1.5479,-1.4988,-1.4108,-1.5079,-1.5575,-1.5051,-1.4813,-1.4334,-1.357,-1.3522,-1.3286,-1.2813,-1.2813,-1.2813,-1.2813,-1.2813,-1.2813,-1.2813,-1.2813,-1.2813,-1.2813,-1.2813,-1.2813,-1.2813,-1.2813,-1.2813,-1.2813,-1.2813,-1.2813,-1.2813,-1.2813,-1.2813,-1.2813,-1.2813,-1.2813,-1.2813,-1.2813,-1.2813,-1.2813,0.0,0.0,0.0,0.0,-2.5882,0.0,0.0,0.0,-2.5421,0.0,-2.4497,-2.4497,-2.4497,-2.4497,-2.4497,-2.4497,-2.4497,-2.4411,-2.4249,-2.4368,0.0,0.0,-2.4206,-2.4067,-2.3797,0.0,0.0,0.0,0.0,0.0,0.0,0.0,0.0,0.0,-2.3091,0.0,-2.3091,-2.3091,-2.3091,-2.3091,-2.3091,-2.3091,-2.3091,-2.3047,-2.3047,-2.3047,-2.3091,-2.3047,-2.2916,-2.2015,-2.165,-2.1239,-1.9384,-1.8796,-1.8565,-1.7606,-1.7279,-1.726,-1.7005,-1.6925,-1.6851,-1.6536,-1.6463,-1.6463,-1.6463,-1.6463,-1.6463,0.0,0.0,0.0,0.0,0.0,0.0,0.0,0.0,0.0,0.0,0.0,-1.4659,-1.4924,-1.5003,-1.443,0.0,-1.348,-1.357,-1.2861,-1.2813,-1.2813,-1.2813,-1.2813,-1.2813,-1.2813,-1.2813,-1.2813,-1.2813,-1.2813,-1.2813,-1.2813,-1.2813,-1.2813,-1.2813,-1.2813,-1.2813,-1.2813,-1.2813,-1.2813,-1.2813,-1.2813,-1.2813,-1.2813,-1.2764,-1.2759,-1.2716,-1.2759,-1.2813,-1.2813,-2.6276,-2.5589,-2.5073,0.0,-2.485,-2.4893,-2.464,-2.4745,0.0,0.0,-2.4497,-2.4497,-2.4497,-2.4497,-2.4497,-2.4497,-2.4497,0.0,0.0,0.0,0.0,-2.4411,-2.411,-2.3884,-2.3797,-2.358,0.0,-2.3091,0.0,0.0,-2.3091,0.0,0.0,0.0,0.0,0.0,-2.3091,-2.3091,-2.3091,-2.3091,-2.3091,-2.3091,-2.3003,-2.2325,-2.2059,-2.2148,-2.2872,-2.2643,-2.2015,-2.1784,-2.0737,-1.9467,-1.8972,-1.8288,-1.7645,-1.7372,-1.7279,-1.7264,-1.723,-1.7208,-1.7186,-1.7106,-1.7084,-1.7084,-1.7084,-1.7084,-1.7084,-1.7084,-1.7084,-1.68,-1.5844,-1.5804,0.0,0.0,0.0,0.0,0.0,0.0,0.0,-1.3474,0.0,-1.3431,-1.3619,-1.3286,-1.3001,-1.2807,-1.2813,-1.2813,-1.2813,-1.2813,-1.2813,-1.2813,-1.2813,-1.2813,-1.2813,-1.2813,-1.2813,-1.2813,-1.2813,-1.2813,-1.2813,-1.2813,-1.2813,-1.2813,-1.2813,-1.2813,-1.2813,-1.2813,-1.2813,-1.2764,-1.237,-1.198,-1.1731,-1.2516,-1.2813,-1.2813,-2.5348,0.0,0.0,-2.4497,0.0,-2.4497,-2.4497,-2.4497,0.0,-2.4497,-2.4497,0.0,-2.4497,-2.4497,-2.4497,-2.4497,-2.4497,0.0,-2.4368,0.0,0.0,-2.4378,-2.4196,-2.4013,-2.3797,-2.3667,0.0,-2.3091,0.0,0.0,-2.3091,0.0,0.0,0.0,0.0,-2.3091,-2.3047,-2.2643,-2.2731,-2.3047,-2.2643,-2.2511,0.0,-2.1917,-2.1418,-2.1096,-2.1641,-2.1507,-2.1051,-2.1051,-2.0331,-1.933,-1.8926,-1.8427,-1.7878,-1.7419,-1.7279,-1.7279,-1.7279,-1.7279,-1.7279,-1.7279,-1.7279,-1.7279,-1.7279,-1.7279,-1.7279,-1.7279,-1.7279,-1.6998,-1.594,-1.571,0.0,0.0,0.0,0.0,0.0,0.0,0.0,0.0,-1.2813,-1.2953,-1.3383,-1.305,-1.2813,-1.2813,-1.2813,-1.2813,-1.2813,-1.2813,-1.2813,-1.2813,-1.2813,-1.2813,-1.2813,-1.2813,-1.2813,-1.2813,-1.2813,-1.2813,-1.2813,-1.2813,-1.2813,-1.2813,-1.2813,-1.2813,-1.2813,-1.2813,-1.2662,-1.2419,-1.1883,-1.1487,-1.1292,-1.1883,-1.2273,-1.2419,-2.4497,0.0,0.0,0.0,0.0,-2.4497,-2.4497,-2.4497,-2.4497,-2.4497,0.0,-2.4497,-2.4497,-2.4497,-2.4497,-2.4497,0.0,-2.4411,-2.4249,-2.4368,-2.4368,-2.4206,-2.4325,-2.4196,-2.3754,-2.3754,0.0,0.0,0.0,-2.3091,-2.3091,0.0,0.0,0.0,0.0,0.0,0.0,-2.1917,-2.1961,-2.2643,-2.1828,-2.1507,-2.1472,-2.1373,-2.0782,-2.0005,-1.9869,-1.9914,-2.0005,-2.0005,-1.9914,-1.9687,-1.888,-1.8603,-1.8427,-1.7559,-1.7279,-1.7279,-1.7279,-1.7279,-1.7279,-1.7279,-1.7279,-1.7279,-1.7279,-1.7279,-1.7279,-1.7279,-1.7279,-1.7044,-1.6143,-1.5242,0.0,0.0,0.0,0.0,0.0,0.0,0.0,0.0,0.0,0.0,-1.2813,-1.2813,-1.2813,-1.2813,-1.2813,-1.2813,-1.2813,-1.2813,-1.2813,-1.2813,-1.2813,-1.2813,-1.2813,-1.2813,-1.2813,-1.2813,-1.2813,-1.2813,-1.2813,-1.2813,-1.2813,-1.2813,-1.2716,-1.2716,-1.2716,-1.2619,-1.2273,-1.1731,-1.1292,-1.1047,-1.0998,-1.0998,-1.134,-1.1736,-2.4497,0.0,0.0,0.0,0.0,-2.4497,-2.4497,-2.4497,-2.4497,-2.4497,-2.4497,-2.4497,-2.4497,-2.4497,-2.4497,-2.4497,-2.4497,0.0,0.0,0.0,0.0,-2.4206,-2.4013,-2.3797,-2.3547,-2.3537,-2.3406,0.0,-2.3091,-2.3091,-2.3091,-2.3091,-2.3091,0.0,0.0,0.0,-2.1872,-2.0872,0.0,-2.0683,-2.0548,-2.0458,-2.0376,-1.9604,-1.9201,-1.8926,-1.8102,-1.8334,-1.9063,-1.9063,-1.8511,-1.7785,-1.7598,-1.7559,-1.7512,-1.7326,-1.7279,-1.7279,-1.7279,-1.7279,-1.7279,-1.7279,-1.7279,-1.7279,-1.7279,-1.7279,-1.7279,-1.7279,-1.7279,-1.6756,-1.4937,-1.3511,-1.2462,0.0,0.0,0.0,0.0,0.0,0.0,0.0,0.0,-1.2813,-1.2813,-1.2813,-1.2813,-1.2813,-1.2813,-1.2813,-1.2813,-1.2813,-1.2813,-1.2813,-1.2813,-1.2813,-1.2813,-1.2813,-1.2813,-1.2813,-1.2813,-1.2813,-1.2813,-1.2813,-1.2813,-1.2764,-1.2322,-1.2127,-1.2127,-1.1683,-1.1145,-1.0654,-1.056,-1.0265,-0.9871,-0.9871,-1.0216,-1.073,0.0,0.0,0.0,0.0,0.0,-2.4497,-2.4497,-2.4497,-2.4497,-2.4497,-2.4497,-2.4497,-2.4497,-2.4497,-2.4497,-2.4497,-2.4497,-2.4497,-2.4497,-2.4411,-2.4292,-2.4206,-2.4067,-2.3851,-2.3503,-2.3503,-2.3373,-2.3091,-2.2599,-2.2369,-2.2369,-2.2369,-2.2369,-2.2369,0.0,-2.1828,0.0,0.0,-1.9733,-2.0141,-1.965,-1.9467,-1.9422,-1.8972,-1.8473,-1.7971,-1.7466,-1.7598,-1.801,-1.801,-1.7692,-1.7279,-1.7279,-1.7279,-1.7279,-1.7279,-1.7279,-1.7279,-1.7279,-1.7279,-1.7279,-1.7279,-1.7279,-1.7279,-1.7279,-1.6998,-1.6662,-1.6365,-1.6231,-1.5764,-1.4376,-1.2942,-1.2078,-1.237,-1.2419,0.0,0.0,0.0,0.0,0.0,0.0,0.0,0.0,-1.2813,-1.2813,-1.2813,-1.2813,-1.2813,-1.2813,-1.2813,-1.2813,-1.2813,-1.2813,-1.2813,-1.2813,-1.2813,-1.2813,-1.2813,-1.2516,-1.237,-1.237,-1.2078,-1.198,-1.198,-1.1688,-1.1585,-1.1536,-1.0998,-1.0605,-1.0364,-1.0068,-0.9821,-0.9579,-0.9579,-0.983,-1.0171,0.0,-2.4497,0.0,0.0,-2.4497,-2.4497,-2.4497,-2.4497,-2.4497,-2.4497,-2.4497,-2.4497,-2.4497,-2.4497,-2.4497,-2.4497,-2.4497,-2.4497,-2.4497,-2.4454,-2.4378,-2.4206,-2.411,-2.3894,-2.3503,-2.346,-2.3319,0.0,0.0,-2.1649,-2.1611,-2.1471,-2.1373,-2.1373,-2.115,-2.0647,-1.9824,-1.888,-1.8926,-1.9505,-1.8788,-1.8473,-1.8473,-1.8473,-1.7971,-1.7279,-1.7279,-1.7279,-1.7279,-1.7279,-1.7279,-1.7279,-1.7279,-1.7279,-1.7279,-1.7279,-1.7279,-1.7279,-1.7279,-1.7279,-1.7279,-1.7279,-1.7279,-1.7279,-1.7279,-1.6716,-1.6089,-1.565,-1.5181,-1.4621,-1.3854,-1.2894,-1.2273,-1.257,-1.237,0.0,0.0,0.0,0.0,0.0,0.0,0.0,-1.2813,-1.2813,-1.2813,-1.2813,-1.2813,-1.2813,-1.2813,-1.2813,-1.2813,-1.2813,-1.2813,-1.2813,-1.2813,-1.2813,-1.2813,-1.2813,-1.2273,-1.198,-1.1975,-1.1438,-1.1194,-1.1194,-1.1096,-1.0949,-1.085,-1.0413,-1.0216,-1.0167,-0.9776,-0.9579,-0.9583,-0.9669,-0.977,-0.9896,0.0,0.0,0.0,-2.4497,-2.4497,-2.4497,-2.4497,-2.4497,-2.4497,-2.4497,-2.4497,-2.4497,-2.4497,-2.4497,-2.4497,-2.4497,-2.4497,-2.4497,-2.4497,-2.4325,-2.4206,-2.4206,-2.3807,-2.3547,-2.3503,-2.3276,-2.3144,0.0,0.0,-2.1546,-2.124,-2.0615,-2.0322,-2.0277,-1.9467,-1.9018,-1.888,-1.7878,-1.7512,-1.7552,-1.7466,-1.7419,-1.7419,-1.7419,-1.7372,-1.7279,-1.7279,-1.7279,-1.7279,-1.7279,-1.7279,-1.7279,-1.7279,-1.7279,-1.7279,-1.7279,-1.7279,-1.7279,-1.7279,-1.7279,-1.7279,-1.7279,-1.7279,-1.7279,-1.7279,-1.6716,-1.619,-1.6143,-1.5003,-1.3854,-1.3264,-1.2942,-1.2565,-1.2175,-1.2419,-1.2759,0.0,0.0,-1.2273,0.0,0.0,0.0,-1.2764,-1.2813,-1.2813,-1.2813,-1.2813,-1.2813,-1.2813,-1.2813,-1.2813,-1.2813,-1.2813,-1.2813,-1.2813,-1.2813,-1.2813,-1.2813,-1.2273,-1.198,-1.1975,-1.1438,-1.1194,-1.1145,-1.0708,-1.0216,-0.9723,-0.9677,-0.9677,-0.9677,-0.9628,-0.9579,-0.9599,-0.9803,-0.9872,-0.9933,-2.4497,-2.4497,-2.4497,-2.4497,-2.4497,-2.4497,-2.4497,-2.4497,-2.4497,-2.4497,-2.4497,-2.4497,-2.4497,-2.4497,-2.4497,-2.4497,-2.4497,-2.4497,-2.4497,-2.4411,-2.4335,-2.4206,-2.3851,-2.3624,-2.3503,-2.3232,-2.2828,0.0,0.0,-2.0433,-1.9749,-1.9492,-1.9376,-1.933,-1.8972,-1.8473,-1.7878,-1.7466,-1.7279,-1.7279,-1.7279,-1.7279,-1.7279,-1.7279,-1.7279,-1.7279,-1.7279,-1.7279,-1.7279,-1.7279,-1.7279,-1.7279,-1.7279,-1.7279,-1.7279,-1.7279,-1.7279,-1.7279,-1.7279,-1.7279,-1.7279,-1.7279,-1.7279,-1.7279,-1.7279,-1.6129,-1.5086,-1.5086,-1.3601,-1.2214,-1.2014,-1.1629,-1.1487,-1.1932,-1.1927,-1.2073,0.0,0.0,0.0,0.0,0.0,0.0,0.0,-1.2813,-1.2813,-1.2813,-1.2813,-1.2813,-1.2813,-1.2813,-1.2813,-1.2813,-1.2467,-1.2322,-1.2322,-1.2322,-1.2322,-1.2322,-1.1785,-1.1536,-1.1487,-1.0605,-1.0216,-1.0216,-1.0019,-0.9772,-0.9579,-0.9579,-0.9579,-0.9591,-0.9742,-0.9782,-0.9803,-0.9985,-0.9804,-0.944,-2.4497,-2.4497,-2.4497,-2.4497,-2.4497,-2.4497,-2.4497,-2.4497,-2.4497,-2.4497,-2.4497,-2.4497,-2.4497,-2.4497,-2.4497,-2.4497,-2.4497,-2.4497,-2.4497,-2.4454,-2.4325,-2.4206,-2.3894,0.0,-2.3091,-2.2828,-2.2236,-2.1239,-2.0286,-1.941,-1.8637,-1.837,-1.8287,-1.838,-1.838,-1.7971,-1.7279,-1.7279,-1.7279,-1.7279,-1.7279,-1.7279,-1.7279,-1.7279,-1.7279,-1.7279,-1.7279,-1.7279,-1.7279,-1.7279,-1.7279,-1.7279,-1.7279,-1.7279,-1.7279,-1.7279,-1.7279,-1.7286,-1.7239,-1.7192,-1.7192,-1.7099,-1.7099,-1.6998,-1.6709,-1.5371,-1.4034,-1.3499,-1.2204,-1.1194,-1.1194,-1.1002,-1.1096,-1.1883,-1.1834,-1.1932,0.0,-1.2662,0.0,0.0,-1.2662,-1.2613,-1.2759,-1.2813,-1.2813,-1.2813,-1.2813,-1.2813,-1.2813,-1.2813,-1.2716,-1.257,-1.2224,-1.1932,-1.1785,-1.1932,-1.1932,-1.178,-1.1389,-1.1096,-1.0949,-1.0019,-0.9579,-0.9579,-0.9579,-0.9579,-0.9579,-0.9579,-0.9657,-0.9713,-0.9839,-0.9764,-0.9626,-0.9803,-0.936,-0.871,-2.4497,-2.4497,-2.4497,-2.4497,-2.4497,-2.4497,-2.4497,-2.4497,-2.4497,-2.4497,-2.4497,-2.4497,-2.4497,-2.4497,-2.4497,-2.4497,-2.4497,-2.4497,-2.4497,-2.4325,-2.4206,-2.4206,-2.3764,-2.3047,-2.2031,-2.1819,-2.1239,-2.0232,0.0,-1.8659,-1.8271,-1.7349,-1.7071,-1.7326,-1.7326,-1.7326,-1.7279,-1.7279,-1.7279,-1.7279,-1.7279,-1.7279,-1.7279,-1.7279,-1.7279,-1.7279,-1.7279,-1.7279,-1.7279,-1.7279,-1.7279,-1.7279,-1.7279,-1.7279,-1.7279,-1.7279,-1.7279,-1.7239,-1.7066,-1.6979,-1.6932,-1.6683,-1.6636,-1.6339,-1.5283,-1.4472,-1.342,-1.1634,-1.1243,-1.1194,-1.1194,-1.1634,-1.1975,-1.198,-1.2419,-1.2813,-1.2813,-1.2322,0.0,-1.2764,-1.2322,-1.2224,-1.2764,-1.2813,-1.2813,-1.2813,-1.2813,-1.2813,-1.2813,-1.2813,-1.2565,-1.2029,-1.198,-1.1731,-1.1194,-1.1736,-1.1736,-1.1194,-1.1194,-1.09,-1.0413,-0.9826,-0.9579,-0.9579,-0.9579,-0.9579,-0.9579,-0.9579,-0.973,-0.9884,-0.9884,-0.9476,-0.8856,-0.9019,-0.8538,-0.7858,-2.4497,-2.4497,-2.4497,-2.4497,-2.4497,-2.4497,-2.4497,-2.4497,-2.4497,-2.4497,-2.4497,-2.4497,-2.4497,-2.4497,-2.4497,-2.4497,-2.4497,-2.4454,-2.4282,-2.4249,-2.3841,-2.3028,-2.2668,-2.2041,-2.1087,-2.0818,-2.0195,-1.9247,-1.8926,-1.841,-1.7627,-1.7311,-1.723,-1.7279,-1.7279,-1.7279,-1.7279,-1.7279,-1.7279,-1.7279,-1.7279,-1.7279,-1.7279,-1.7279,-1.7279,-1.7279,-1.7279,-1.7279,-1.7279,-1.7279,-1.7279,-1.7279,-1.7279,-1.7192,-1.7113,-1.7113,-1.6965,-1.6817,-1.673,-1.673,-1.673,-1.6629,-1.6055,-1.5425,-1.5092,-1.413,-1.2834,-1.1047,-1.0949,-1.1002,-1.0216,-1.0265,-1.0462,-1.0855,-1.1047,-1.1292,-1.1639,0.0,-1.1639,-1.2175,-1.2127,-1.2224,-1.2764,-1.2813,-1.2813,-1.2813,-1.2813,-1.2813,-1.2813,-1.2467,-1.2175,-1.2029,-1.1639,-1.1194,-1.0659,-1.1194,-1.1194,-1.0659,-1.0659,-1.0364,-0.9875,-0.9677,-0.9579,-0.9579,-0.9579,-0.9579,-0.9587,-0.9754,-0.9482,-0.9046,-0.9268,-0.8853,-0.811,-0.8301,-0.781,-0.705,-2.4497,-2.4497,-2.4497,-2.4497,-2.4497,-2.4497,-2.4497,-2.4497,-2.4497,-2.4497,-2.4497,-2.4497,-2.4497,-2.4497,-2.4497,-2.4497,-2.4497,-2.4464,-2.4335,-2.3841,-2.3212,-2.2438,-2.1721,-2.0863,-1.9914,-1.9786,-1.9193,-1.8241,-1.8241,-1.7924,-1.7279,-1.7279,-1.7279,-1.7279,-1.7279,-1.7279,-1.7279,-1.7279,-1.7279,-1.7279,-1.7279,-1.7279,-1.7279,-1.7279,-1.7279,-1.7279,-1.7279,-1.7279,-1.7279,-1.7279,-1.7279,-1.7279,-1.7279,-1.7106,-1.6878,-1.7066,-1.6925,-1.673,-1.673,-1.6683,-1.6588,-1.6588,-1.5676,-1.4519,-1.374,-1.263,-1.1473,-1.031,-1.0364,-1.0413,-0.9727,-0.9776,-1.0019,-1.0364,-1.056,-1.0904,-1.1438,-1.1487,-1.1634,0.0,-1.198,-1.2029,-1.2175,-1.2224,-1.2224,-1.2224,-1.2224,-1.2224,-1.2224,-1.2078,-1.1834,-1.1389,-1.1047,-1.0659,-1.0117,-1.0605,-1.0605,-1.0117,-1.0117,-0.992,-0.9579,-0.9579,-0.9579,-0.9579,-0.9579,-0.9466,-0.9234,-0.9338,-0.8991,-0.834,-0.8525,-0.8087,-0.7379,-0.7453,-0.6985,-0.6216,-2.4497,-2.4497,-2.4497,-2.4497,-2.4528,-2.4549,-2.4549,-2.4549,-2.4549,-2.4549,-2.4518,-2.4497,-2.4497,-2.4497,-2.4497,-2.4497,-2.4497,-2.4454,-2.4411,-2.3159,-2.235,-2.2217,-2.0863,-1.965,-1.8703,-1.8703,-1.8241,-1.7279,-1.7279,-1.7279,-1.7279,-1.7279,-1.7279,-1.7279,-1.7279,-1.7279,-1.7279,-1.7279,-1.7279,-1.7279,-1.7279,-1.7279,-1.7279,-1.7279,-1.7279,-1.7279,-1.7279,-1.7279,-1.7279,-1.7279,-1.7279,-1.7279,-1.7279,-1.7005,-1.673,-1.7145,-1.7106,-1.6932,-1.6979,-1.6784,-1.6541,-1.6487,-1.5296,-1.3565,-1.1609,-1.035,-0.9677,-0.9677,-0.9677,-0.9628,-0.9628,-1.0019,-1.0364,-1.0364,-1.0752,-1.1243,-1.178,-1.1829,-1.1834,-1.1883,-1.1883,-1.1731,-1.1243,-1.1194,-1.1194,-1.1194,-1.1194,-1.1194,-1.1145,-1.1639,-1.1438,-1.0413,-1.0413,-1.0117,-0.9628,-1.0117,-1.0117,-0.9579,-0.9579,-0.9579,-0.9579,-0.9579,-0.9579,-0.9579,-0.9541,-0.9191,-0.8623,-0.8542,-0.8193,-0.7678,-0.7741,-0.7276,-0.6604,-0.6604,-0.6102,-0.5382,-2.4497,-2.4497,-2.4497,-2.4497,-2.4797,-2.5024,-2.5024,-2.5024,-2.5024,-2.5024,-2.4714,-2.4497,-2.4497,-2.4497,-2.4497,-2.4497,-2.4497,-2.4186,-2.3484,-2.2765,-2.1721,-2.0249,-1.9521,-1.865,-1.7692,-1.7645,-1.7559,-1.7279,-1.7279,-1.7279,-1.7279,-1.7279,-1.7279,-1.7279,-1.7279,-1.7279,-1.7279,-1.7279,-1.7279,-1.7279,-1.7279,-1.7279,-1.7279,-1.7279,-1.7279,-1.7279,-1.7279,-1.7279,-1.7279,-1.7279,-1.7279,-1.7279,-1.7279,-1.7106,-1.6925,-1.7019,-1.6737,-1.6414,-1.6636,-1.6501,-1.6116,-1.5337,-1.3547,-1.1712,-1.0797,-1.0408,-1.0216,-1.0216,-1.0216,-1.0068,-0.9677,-0.9723,-0.9772,-0.9772,-0.9875,-1.0019,-1.0167,-1.0167,-1.0314,-1.0708,-1.0806,-1.0904,-1.1145,-1.1194,-1.1194,-1.1194,-1.1194,-1.0998,-1.0609,-1.0703,-1.0654,-1.0413,-1.0413,-1.0117,-0.9628,-1.0117,-1.0117,-0.9579,-0.9579,-0.9579,-0.9579,-0.9579,-0.9579,-0.9587,-0.9067,-0.874,-0.8589,-0.8134,-0.7514,-0.6766,-0.6913,-0.6468,-0.5714,-0.5714,-0.5603,-0.5382,-2.4817,-2.4972,-2.515,-2.515,-2.5357,-2.5533,-2.5533,-2.5533,-2.5461,-2.521,-2.4972,-2.4735,-2.4518,-2.4239,-2.4024,-2.4024,-2.4024,-2.3711,-2.2984,-2.1863,-2.0692,-1.9376,-1.8557,-1.7878,-1.7326,-1.7279,-1.7279,-1.7279,-1.7279,-1.7279,-1.7279,-1.7279,-1.7279,-1.7279,-1.7279,-1.7279,-1.7279,-1.7279,-1.7279,-1.7279,-1.7279,-1.7279,-1.7279,-1.7279,-1.7279,-1.7279,-1.7279,-1.7279,-1.7279,-1.7279,-1.7279,-1.7279,-1.7279,-1.7099,-1.6831,-1.6979,-1.6697,-1.6454,-1.669,-1.6501,-1.5832,-1.4178,-1.2581,-1.1126,-1.0261,-1.0019,-1.0019,-1.0019,-1.0019,-0.992,-0.9677,-0.9579,-0.9579,-0.9579,-0.9579,-0.9677,-0.992,-0.9969,-1.0068,-1.0364,-1.0413,-1.0413,-1.0458,-1.0462,-1.0462,-1.0462,-1.0462,-1.0364,-1.0068,-1.0019,-1.0019,-1.0019,-1.0019,-0.9875,-0.9628,-0.9871,-0.9871,-0.9579,-0.9579,-0.9426,-0.9031,-0.9031,-0.887,-0.8589,-0.8218,-0.7869,-0.758,-0.7296,-0.6681,-0.5969,-0.6082,-0.5826,-0.5382,-0.5382,-0.5382,-0.5382,-2.5272,-2.5627,-2.5875,-2.5875,-2.5982,-2.6034,-2.6034,-2.6034,-2.5844,-2.5482,-2.5272,-2.499,-2.4502,-2.3891,-2.346,-2.3363,-2.3188,-2.2862,-2.2429,-2.0737,-1.9521,-1.8956,-1.787,-1.7279,-1.7279,-1.7279,-1.7279,-1.7279,-1.7279,-1.7279,-1.7279,-1.7279,-1.7279,-1.7279,-1.7279,-1.7279,-1.7279,-1.7279,-1.7279,-1.7279,-1.7279,-1.7279,-1.7279,-1.7279,-1.7279,-1.7279,-1.7279,-1.7279,-1.7279,-1.7286,-1.7239,-1.7239,-1.7192,-1.6911,-1.6636,-1.6878,-1.6737,-1.6541,-1.669,-1.6116,-1.501,-1.2969,-1.1858,-1.0984,-0.9871,-0.9579,-0.9579,-0.9579,-0.9579,-0.9579,-0.9579,-0.9579,-0.9579,-0.9579,-0.9579,-0.9776,-1.0216,-1.0265,-1.0265,-1.0265,-1.0265,-1.0117,-0.9628,-0.9579,-0.9579,-0.9579,-0.9579,-0.9579,-0.9579,-0.9579,-0.9579,-0.9579,-0.9579,-0.9579,-0.9579,-0.9579,-0.9529,-0.9426,-0.9426,-0.8981,-0.8233,-0.8233,-0.7908,-0.7376,-0.7295,-0.6923,-0.6379,-0.6288,-0.5914,-0.5382,-0.5382,-0.5382,-0.5382,-0.5382,-0.5382,-0.5382,-2.5699,-2.5834,-2.5875,-2.5875,-2.6252,-2.6511,-2.6511,-2.6511,-2.648,-2.6372,-2.5699,-2.4972,-2.4295,-2.3799,-2.3266,-2.2624,-2.165,-2.0988,-2.0934,-1.9877,-1.8918,-1.8257,-1.7652,-1.7279,-1.7279,-1.7279,-1.7279,-1.7279,-1.7279,-1.7279,-1.7279,-1.7279,-1.7279,-1.7279,-1.7279,-1.7279,-1.7279,-1.7279,-1.7279,-1.7279,-1.7279,-1.7279,-1.7279,-1.7279,-1.7279,-1.7279,-1.7279,-1.7279,-1.7286,-1.7113,-1.7073,-1.7019,-1.6777,-1.6676,-1.6636,-1.6636,-1.6447,-1.6116,-1.548,-1.3836,-1.2193,-1.156,-1.069,-0.9871,-0.9628,-0.9579,-0.9579,-0.9579,-0.9579,-0.9579,-0.9579,-0.9579,-0.9579,-0.9579,-0.9579,-0.9628,-0.9727,-0.9727,-0.9727,-0.9727,-0.9727,-0.9677,-0.9628,-0.9579,-0.9579,-0.9579,-0.9579,-0.9579,-0.9579,-0.9579,-0.9579,-0.9579,-0.9579,-0.9579,-0.9579,-0.9579,-0.9278,-0.8581,-0.8581,-0.8184,-0.7388,-0.7388,-0.7406,-0.7382,-0.6719,-0.6419,-0.6332,-0.5768,-0.5479,-0.5382,-0.5382,-0.5382,-0.5382,-0.5382,-0.5382,-0.5382,-2.6206,-2.6501,-2.6667,-2.6667,-2.6843,-2.6988,-2.6988,-2.6988,-2.6895,-2.6646,-2.6206,-2.5526,-2.4312,-2.3628,-2.2882,-2.1945,-2.0492,-1.9637,-1.9637,-1.8942,-1.8295,-1.7707,-1.7419,-1.7279,-1.7279,-1.7279,-1.7279,-1.7279,-1.7279,-1.7279,-1.7279,-1.7279,-1.7279,-1.7279,-1.7279,-1.7279,-1.7279,-1.7279,-1.7279,-1.7279,-1.7279,-1.7279,-1.7279,-1.7279,-1.7279,-1.7279,-1.7279,-1.7279,-1.7286,-1.7066,-1.6979,-1.6932,-1.6683,-1.6494,-1.6359,-1.6359,-1.592,-1.5296,-1.4765,-1.3017,-1.1365,-1.1219,-1.04,-0.9579,-0.9579,-0.9579,-0.9579,-0.9579,-0.9579,-0.9579,-0.9579,-0.9579,-0.9579,-0.9579,-0.9579,-0.9579,-0.9579,-0.9579,-0.9579,-0.9579,-0.9579,-0.9579,-0.9579,-0.9579,-0.9579,-0.9579,-0.9579,-0.9579,-0.9579,-0.9579,-0.9579,-0.9579,-0.9179,-0.8931,-0.8931,-0.8531,-0.8134,-0.7736,-0.7736,-0.7338,-0.6542,-0.6606,-0.6495,-0.6143,-0.5829,-0.5773,-0.5815,-0.553,-0.5382,-0.5382,-0.5382,-0.5382,-0.5382,-0.5382,-0.5382,-0.5382,-2.675,-2.7061,-2.7309,-2.7309,-2.7309,-2.7309,-2.7309,-2.7309,-2.7185,-2.6822,-2.6687,-2.5967,-2.4404,-2.3551,-2.2634,-2.1392,-1.9741,-1.8781,-1.8781,-1.8218,-1.7707,-1.7326,-1.7279,-1.7279,-1.7279,-1.7279,-1.7279,-1.7279,-1.7279,-1.7279,-1.7279,-1.7279,-1.7279,-1.7279,-1.7279,-1.7279,-1.7279,-1.7279,-1.7279,-1.7279,-1.7279,-1.7279,-1.7279,-1.7279,-1.7279,-1.7279,-1.7279,-1.7279,-1.7286,-1.7066,-1.6979,-1.6878,-1.6588,-1.6312,-1.6076,-1.5838,-1.486,-1.3836,-1.3655,-1.2247,-1.0837,-1.0837,-1.0207,-0.9579,-0.9579,-0.9579,-0.9579,-0.9579,-0.9579,-0.9579,-0.9579,-0.9579,-0.9579,-0.9579,-0.9579,-0.9579,-0.9579,-0.9579,-0.9579,-0.9579,-0.9579,-0.9579,-0.9579,-0.9579,-0.9579,-0.9579,-0.9579,-0.9579,-0.9579,-0.9579,-0.9525,-0.9331,-0.8733,-0.8333,-0.8134,-0.7487,-0.7089,-0.6939,-0.6939,-0.6503,-0.578,-0.5858,-0.5604,-0.5143,-0.516,-0.5296,-0.5382,-0.5382,-0.5382,-0.5382,-0.5382,-0.5382,-0.5382,-0.5382,-0.5382,-0.5382,-2.7164,-2.7289,-2.7309,-2.7309,-2.7309,-2.7309,-2.7309,-2.7309,-2.7299,-2.7258,-2.6884,-2.6016,-2.444,-2.3585,-2.2528,-2.1064,-1.9622,-1.8781,-1.8781,-1.7893,-1.7326,-1.7279,-1.7279,-1.7279,-1.7279,-1.7279,-1.7279,-1.7279,-1.7279,-1.7279,-1.7279,-1.7279,-1.7279,-1.7279,-1.7279,-1.7279,-1.7279,-1.7279,-1.7279,-1.7279,-1.7279,-1.7279,-1.7279,-1.7279,-1.7279,-1.7279,-1.7279,-1.7279,-1.7286,-1.7066,-1.6831,-1.6588,-1.6312,-1.6076,-1.5635,-1.4729,-1.3022,-1.1463,-1.1414,-1.0596,-0.9723,-0.9723,-0.9673,-0.9579,-0.9579,-0.9579,-0.9579,-0.9579,-0.9579,-0.9579,-0.9579,-0.9579,-0.9579,-0.9579,-0.9579,-0.9579,-0.9579,-0.9579,-0.9579,-0.9579,-0.9579,-0.9579,-0.9579,-0.9579,-0.9579,-0.9579,-0.9579,-0.9579,-0.9579,-0.9579,-0.9278,-0.8531,-0.8432,-0.8035,-0.7285,-0.7238,-0.6839,-0.6092,-0.6092,-0.5742,-0.5066,-0.5072,-0.512,-0.518,-0.5186,-0.5296,-0.5382,-0.5382,-0.5382,-0.5382,-0.5382,-0.5382,-0.5382,-0.5382,-0.5382,-0.5382,-2.7268,-2.7309,-2.7309,-2.7309,-2.7309,-2.7309,-2.7309,-2.7309,-2.7309,-2.7309,-2.7154,-2.6361,-2.4498,-2.4051,-2.3148,-2.1367,-1.9966,-1.9192,-1.9192,-1.7999,-1.7279,-1.7279,-1.7279,-1.7279,-1.7279,-1.7279,-1.7279,-1.7279,-1.7279,-1.7279,-1.7279,-1.7279,-1.7279,-1.7279,-1.7279,-1.7279,-1.7279,-1.7279,-1.7279,-1.7279,-1.7279,-1.7279,-1.7279,-1.7279,-1.7279,-1.7279,-1.7279,-1.7279,-1.7286,-1.7066,-1.6932,-1.6784,-1.6359,-1.5683,-1.4758,-1.2926,-1.1804,-1.1028,-1.04,-0.9916,-0.9579,-0.9579,-0.9579,-0.9579,-0.9579,-0.9579,-0.9579,-0.9579,-0.9579,-0.9579,-0.9579,-0.9579,-0.9579,-0.9579,-0.9579,-0.9579,-0.9579,-0.9579,-0.9579,-0.9579,-0.9579,-0.9579,-0.9579,-0.9579,-0.9579,-0.9579,-0.9579,-0.9579,-0.9579,-0.913,-0.8283,-0.6939,-0.6889,-0.6789,-0.6439,-0.5937,-0.5536,-0.5238,-0.535,-0.5246,-0.5027,-0.509,-0.5177,-0.5192,-0.5304,-0.5349,-0.5382,-0.5382,-0.5382,-0.5382,-0.5382,-0.5382,-0.5382,-0.5382,-0.5382,-0.5382,-2.7309,-2.7309,-2.7309,-2.7309,-2.7309,-2.7309,-2.7309,-2.7309,-2.7309,-2.7309,-2.7309,-2.6604,-2.4698,-2.4364,-2.3553,-2.1755,-2.0327,-1.9503,-1.9391,-1.8074,-1.7279,-1.7279,-1.7279,-1.7279,-1.7279,-1.7279,-1.7279,-1.7279,-1.7279,-1.7279,-1.7279,-1.7279,-1.7279,-1.7279,-1.7279,-1.7279,-1.7279,-1.7279,-1.7279,-1.7279,-1.7279,-1.7279,-1.7279,-1.7279,-1.7279,-1.7279,-1.7279,-1.7279,-1.7279,-1.716,-1.7019,-1.6784,-1.6454,-1.5296,-1.3692,-1.1755,-1.0979,-1.0547,-0.9821,-0.9579,-0.9579,-0.9579,-0.9579,-0.9579,-0.9579,-0.9579,-0.9579,-0.9579,-0.9579,-0.9579,-0.9579,-0.9579,-0.9579,-0.9579,-0.9579,-0.9579,-0.9579,-0.9579,-0.9579,-0.9579,-0.9579,-0.9579,-0.9579,-0.9579,-0.9579,-0.9579,-0.9579,-0.948,-0.9229,-0.8233,-0.7138,-0.6042,-0.5739,-0.5639,-0.5639,-0.5085,-0.4798,-0.4879,-0.4941,-0.5002,-0.5061,-0.5132,-0.5204,-0.529,-0.5355,-0.5382,-0.5382,-0.5382,-0.5382,-0.5382,-0.5382,-0.5382,-0.5382,-0.5382,-0.5382,-0.5386,-2.7309,-2.7309,-2.7309,-2.7309,-2.7309,-2.7309,-2.7309,-2.7309,-2.7309,-2.7309,-2.7309,-2.6668,-2.5089,-2.4534,-2.3673,-2.2143,-2.0712,-1.9765,-1.9407,-1.8074,-1.7286,-1.7286,-1.7279,-1.7279,-1.7279,-1.7279,-1.7279,-1.7279,-1.7279,-1.7279,-1.7279,-1.7279,-1.7279,-1.7279,-1.7279,-1.7279,-1.7279,-1.7279,-1.7279,-1.7279,-1.7279,-1.7279,-1.7279,-1.7279,-1.7279,-1.7279,-1.7279,-1.7279,-1.7279,-1.7279,-1.6958,-1.6581,-1.6581,-1.48,-1.2484,-1.1463,-1.0449,-0.9579,-0.9579,-0.9579,-0.9579,-0.9579,-0.9579,-0.9579,-0.9579,-0.9579,-0.9579,-0.9579,-0.9579,-0.9579,-0.9579,-0.9579,-0.9579,-0.9579,-0.9579,-0.9579,-0.9579,-0.9579,-0.9579,-0.9579,-0.9579,-0.9579,-0.9579,-0.9579,-0.9579,-0.9579,-0.9579,-0.9229,-0.8432,-0.6889,-0.5992,-0.5992,-0.5238,-0.4784,-0.4786,-0.4786,-0.4881,-0.5023,-0.5025,-0.5069,-0.519,-0.519,-0.5296,-0.5382,-0.5382,-0.5382,-0.5382,-0.5382,-0.5382,-0.5382,-0.5382,-0.5382,-0.5382,-0.5382,-0.5382,-0.5394,-2.7309,-2.7309,-2.7309,-2.7309,-2.7309,-2.7309,-2.7309,-2.7309,-2.7309,-2.7309,-2.6822,-2.6042,-2.4992,-2.43,-2.33,-2.1921,-2.084,-1.9787,-1.8713,-1.7989,-1.7669,-1.7669,-1.745,-1.7279,-1.7279,-1.7279,-1.7279,-1.7279,-1.7279,-1.7279,-1.7279,-1.7279,-1.7279,-1.7279,-1.7279,-1.7279,-1.7279,-1.7279,-1.7279,-1.7279,-1.7279,-1.7279,-1.7279,-1.7279,-1.7279,-1.7279,-1.7279,-1.7279,-1.7185,-1.6271,-1.5886,-1.546,-1.368,-1.2431,-1.1414,-1.0404,-0.9871,-0.9579,-0.9579,-0.9579,-0.9579,-0.9579,-0.9579,-0.9579,-0.9579,-0.9579,-0.9579,-0.9579,-0.9579,-0.9579,-0.9579,-0.9579,-0.9579,-0.9579,-0.9579,-0.9579,-0.9579,-0.9579,-0.9579,-0.9579,-0.9579,-0.9579,-0.9579,-0.9579,-0.9579,-0.9579,-0.908,-0.8184,-0.6789,-0.6242,-0.5739,-0.5188,-0.4935,-0.4865,-0.493,-0.493,-0.4945,-0.5025,-0.5102,-0.5138,-0.5192,-0.531,-0.5355,-0.5382,-0.5382,-0.5382,-0.5382,-0.5382,-0.5382,-0.5382,-0.5382,-0.5382,-0.5382,-0.5382,-0.5418,-0.5473,-2.7309,-2.7309,-2.7309,-2.7309,-2.7309,-2.7309,-2.7309,-2.7309,-2.7309,-2.7309,-2.687,-2.6139,-2.5041,-2.4254,-2.327,-2.1818,-2.0684,-1.9649,-1.8553,-1.8189,-1.8006,-1.8006,-1.7691,-1.7465,-1.7286,-1.7279,-1.7279,-1.7279,-1.7279,-1.7279,-1.7279,-1.7279,-1.7279,-1.7279,-1.7279,-1.7279,-1.7279,-1.7279,-1.7279,-1.7279,-1.7279,-1.7279,-1.7279,-1.7279,-1.7279,-1.7286,-1.7192,-1.6904,-1.6412,-1.5555,-1.493,-1.4112,-1.2091,-1.1317,-1.0979,-0.9916,-0.9579,-0.9579,-0.9579,-0.9579,-0.9579,-0.9579,-0.9579,-0.9579,-0.9579,-0.9579,-0.9579,-0.9579,-0.9579,-0.9579,-0.9579,-0.9579,-0.9579,-0.9579,-0.9579,-0.9579,-0.9579,-0.9579,-0.9579,-0.9579,-0.9579,-0.9579,-0.9579,-0.9579,-0.9476,-0.913,-0.8084,-0.7039,-0.6042,-0.5691,-0.5306,-0.4888,-0.4888,-0.4932,-0.5024,-0.5061,-0.5079,-0.5081,-0.5138,-0.5209,-0.53,-0.5357,-0.5382,-0.5382,-0.5382,-0.5382,-0.5382,-0.5382,-0.5382,-0.5382,-0.5382,-0.5382,-0.5382,-0.5382,-0.5435,-0.5512,-2.7309,-2.7309,-2.7309,-2.7309,-2.7309,-2.7309,-2.7309,-2.7309,-2.7309,-2.7309,-2.7109,-2.6466,-2.4992,-2.4236,-2.3203,-2.1666,-2.0354,-1.9376,-1.8884,-1.8525,-1.8343,-1.8343,-1.8035,-1.7721,-1.7421,-1.7308,-1.7279,-1.7279,-1.7279,-1.7279,-1.7279,-1.7279,-1.7279,-1.7279,-1.7279,-1.7279,-1.7279,-1.7279,-1.7279,-1.7279,-1.7279,-1.7279,-1.7279,-1.7279,-1.7286,-1.7239,-1.6965,-1.619,-1.5311,-1.4848,-1.3842,-1.2587,-1.1419,-1.1077,-1.0881,-0.9867,-0.9579,-0.9579,-0.9579,-0.9579,-0.9579,-0.9579,-0.9579,-0.9579,-0.9579,-0.9579,-0.9579,-0.9579,-0.9579,-0.9579,-0.9579,-0.9579,-0.9579,-0.9579,-0.9579,-0.9579,-0.9579,-0.9579,-0.9579,-0.9579,-0.9579,-0.9579,-0.948,-0.943,-0.9031,-0.8233,-0.6839,-0.5992,-0.5892,-0.5194,-0.4885,-0.5021,-0.5031,-0.5026,-0.512,-0.5148,-0.519,-0.519,-0.5198,-0.53,-0.5382,-0.5382,-0.5382,-0.5382,-0.5382,-0.5382,-0.5382,-0.5382,-0.5382,-0.5382,-0.5382,-0.5382,-0.5382,-0.539,-0.5447,-0.5533,-2.7309,-2.7309,-2.7309,-2.7309,-2.7309,-2.7309,-2.7309,-2.7309,-2.7309,-2.7309,-2.5819,-2.4679,-2.4285,-2.2652,-2.1259,-2.049,-1.9767,-1.9324,-1.9221,-1.8869,-1.8686,-1.8686,-1.8372,-1.8167,-1.8094,-1.7589,-1.7279,-1.7279,-1.7279,-1.7279,-1.7279,-1.7279,-1.7279,-1.7279,-1.7279,-1.7279,-1.7279,-1.7279,-1.7279,-1.7279,-1.7279,-1.7279,-1.7279,-1.7279,-1.72,-1.6972,-1.6042,-1.5466,-1.4794,-1.2963,-1.1468,-1.031,-1.0015,-0.9965,-0.992,-0.9677,-0.9579,-0.9579,-0.9579,-0.9579,-0.9579,-0.9579,-0.9579,-0.9579,-0.9579,-0.9579,-0.9579,-0.9579,-0.9579,-0.9579,-0.9579,-0.9579,-0.9579,-0.9579,-0.9579,-0.9579,-0.9579,-0.9579,-0.9579,-0.9579,-0.9579,-0.9327,-0.873,-0.8084,-0.7388,-0.6589,-0.6192,-0.5739,-0.5087,-0.5006,-0.4951,-0.5023,-0.5041,-0.5122,-0.516,-0.518,-0.519,-0.519,-0.5316,-0.5363,-0.5382,-0.5382,-0.5382,-0.5382,-0.5382,-0.5382,-0.5382,-0.5382,-0.5382,-0.5382,-0.5382,-0.5382,-0.539,-0.5455,-0.5537,-0.5578,-2.7309,-2.7309,-2.7309,-2.7309,-2.7309,-2.7309,-2.7309,-2.6965,-2.662,-2.6398,-2.5022,-2.384,-2.3235,-2.1895,-2.0696,-1.9776,-1.948,-1.9279,-1.9279,-1.9118,-1.9023,-1.9023,-1.8708,-1.8533,-1.8533,-1.805,-1.7721,-1.756,-1.7359,-1.7279,-1.7279,-1.7279,-1.7279,-1.7279,-1.7279,-1.7279,-1.7279,-1.7279,-1.7279,-1.7279,-1.7279,-1.7279,-1.7279,-1.7279,-1.72,-1.6831,-1.5663,-1.4358,-1.2915,-1.1224,-1.0162,-0.9579,-0.9579,-0.9579,-0.9579,-0.9579,-0.9579,-0.9579,-0.9579,-0.9579,-0.9579,-0.9579,-0.9579,-0.9579,-0.9579,-0.9579,-0.9579,-0.9579,-0.9579,-0.9579,-0.9579,-0.9579,-0.9579,-0.9579,-0.9579,-0.9579,-0.9579,-0.9579,-0.9579,-0.9579,-0.9278,-0.873,-0.7885,-0.7089,-0.6439,-0.6042,-0.5686,-0.5359,-0.49,-0.4988,-0.5057,-0.51,-0.5147,-0.5216,-0.5308,-0.531,-0.531,-0.531,-0.5359,-0.5382,-0.5382,-0.5382,-0.5382,-0.5382,-0.5382,-0.5382,-0.5382,-0.5382,-0.5382,-0.5382,-0.5382,-0.5382,-0.5392,-0.5475,-0.5592,-0.5729,-2.7309,-2.7309,-2.7309,-2.7309,-2.7309,-2.7262,-2.7119,-2.6534,-2.5839,-2.5158,-2.4325,-2.3285,-2.2089,-2.1336,-2.0534,-1.9376,-1.9279,-1.9279,-1.9279,-1.9279,-1.9279,-1.9279,-1.9016,-1.8877,-1.8877,-1.8555,-1.8225,-1.7904,-1.7574,-1.7366,-1.7359,-1.7355,-1.7279,-1.7279,-1.7279,-1.7279,-1.7279,-1.7279,-1.7279,-1.7279,-1.7279,-1.7279,-1.7279,-1.7239,-1.7012,-1.6494,-1.514,-1.306,-1.0788,-0.992,-0.9579,-0.9579,-0.9579,-0.9579,-0.9579,-0.9579,-0.9579,-0.9579,-0.9579,-0.9579,-0.9579,-0.9579,-0.9579,-0.9579,-0.9579,-0.9579,-0.9579,-0.9579,-0.9579,-0.9579,-0.9579,-0.9579,-0.9579,-0.9579,-0.9579,-0.9579,-0.9579,-0.9579,-0.9529,-0.9426,-0.8581,-0.7736,-0.7039,-0.6308,-0.5818,-0.5818,-0.5304,-0.4996,-0.4996,-0.5081,-0.5165,-0.5188,-0.5204,-0.5304,-0.538,-0.5382,-0.5382,-0.5382,-0.5382,-0.5382,-0.5382,-0.5382,-0.5382,-0.5382,-0.5382,-0.5382,-0.5382,-0.5382,-0.5382,-0.5382,-0.5382,-0.539,-0.5414,-0.5516,-0.5659,-0.5816,-2.7309,-2.7309,-2.7309,-2.7309,-2.7309,-2.7071,-2.639,-2.6197,-2.5645,-2.4433,-2.3135,-2.2139,-2.1489,-2.0336,-1.948,-1.9324,-1.9279,-1.9279,-1.9279,-1.9279,-1.9279,-1.9279,-1.9235,-1.9213,-1.9213,-1.8891,-1.8562,-1.824,-1.7911,-1.775,-1.7743,-1.7465,-1.7279,-1.7279,-1.7279,-1.7279,-1.7279,-1.7279,-1.7279,-1.7279,-1.7279,-1.7279,-1.7279,-1.7113,-1.6298,-1.5092,-1.3842,-1.1809,-0.9772,-0.9624,-0.9579,-0.9579,-0.9579,-0.9579,-0.9579,-0.9579,-0.9579,-0.9579,-0.9579,-0.9579,-0.9579,-0.9579,-0.9579,-0.9579,-0.9579,-0.9579,-0.9579,-0.9579,-0.9579,-0.9579,-0.9579,-0.9579,-0.9579,-0.9579,-0.9579,-0.9579,-0.9579,-0.9579,-0.9327,-0.863,-0.7235,-0.6289,-0.6192,-0.5519,-0.5158,-0.5158,-0.5091,-0.509,-0.509,-0.5175,-0.5178,-0.519,-0.532,-0.5369,-0.5382,-0.5382,-0.5382,-0.5382,-0.5382,-0.5382,-0.5382,-0.5382,-0.5382,-0.5382,-0.5382,-0.5382,-0.5382,-0.5382,-0.5382,-0.5382,-0.5382,-0.5426,-0.551,-0.5682,-0.5808,-0.59,-2.7309,-2.7309,-2.7309,-2.7309,-2.6918,-2.6428,-2.5771,-2.4894,-2.3859,-2.2693,-2.1641,-2.0783,-2.0233,-1.9628,-1.9279,-1.9279,-1.9279,-1.9279,-1.9279,-1.9279,-1.9279,-1.9279,-1.9279,-1.9279,-1.9279,-1.9133,-1.8994,-1.8847,-1.8335,-1.8086,-1.8079,-1.7757,-1.7604,-1.7589,-1.7359,-1.7279,-1.7279,-1.7279,-1.7279,-1.7279,-1.7279,-1.7239,-1.7113,-1.7026,-1.6109,-1.4609,-1.2727,-1.0984,-0.9579,-0.9579,-0.9579,-0.9579,-0.9579,-0.9579,-0.9579,-0.9579,-0.9579,-0.9579,-0.9579,-0.9579,-0.9579,-0.9579,-0.9579,-0.9579,-0.9579,-0.9579,-0.9579,-0.9579,-0.9579,-0.9579,-0.9579,-0.9579,-0.9579,-0.9579,-0.9579,-0.9579,-0.9579,-0.9229,-0.8482,-0.7188,-0.6497,-0.5928,-0.5472,-0.5203,-0.5049,-0.5049,-0.5132,-0.513,-0.513,-0.5271,-0.532,-0.532,-0.5361,-0.5382,-0.5382,-0.5382,-0.5382,-0.5382,-0.5382,-0.5382,-0.5382,-0.5382,-0.5382,-0.5382,-0.5382,-0.5382,-0.5382,-0.5382,-0.5382,-0.5382,-0.5382,-0.5465,-0.56,-0.5733,-0.5839,-0.5916]},{"header":{"parameterUnit":"m.s-1","parameterCategory":1,"la1":30.6,"la2":28.766,"lo1":-90.7593,"lo2":-88.6598,"dy":0.0162,"dx":0.0183,"nx":116,"ny":114,"refTime":"2023-10-14T18:00:00:Z","depth":0,"parameterNumber":3,"parameterNumberName":"V-component_of_WINDS"},"data":[0.0,0.0,0.0,0.0,0.0,0.0,0.0,0.0,0.0,0.0,0.0,0.0,0.0,0.0,0.0,0.0,0.0,0.0,0.0,0.0,0.0,0.0,0.0,0.0,0.0,0.0,0.0,0.0,0.0,0.0,0.0,0.0,0.0,0.0,0.0,0.0,0.0,0.0,0.0,0.0,0.0,0.0,0.0,0.0,0.0,0.0,0.0,0.0,0.0,0.0,0.0,0.0,0.0,0.0,0.0,0.0,0.0,0.0,0.0,0.0,0.0,0.0,0.0,0.0,0.0,0.0,0.0,0.0,0.0,0.0,0.0,0.0,0.0,0.0,0.0,0.0,0.0,0.0,0.0,0.0,0.0,0.0,0.0,0.0,0.0,0.0,0.0,0.0,0.0,0.0,0.0,0.0,0.0,0.0,0.0,0.0,0.0,0.0,0.0,0.0,0.0,0.0,0.0,0.0,0.0,0.0,0.0,0.0,0.0,0.0,0.0,0.0,0.0,0.0,0.0,0.0,0.0,0.0,0.0,0.0,0.0,0.0,0.0,0.0,0.0,0.0,0.0,0.0,0.0,0.0,0.0,0.0,0.0,0.0,0.0,0.0,0.0,0.0,0.0,0.0,0.0,0.0,0.0,0.0,0.0,0.0,0.0,0.0,0.0,0.0,0.0,0.0,0.0,0.0,0.0,0.0,0.0,0.0,0.0,0.0,0.0,0.0,0.0,0.0,0.0,0.0,0.0,0.0,0.0,0.0,0.0,0.0,0.0,0.0,0.0,0.0,0.0,0.0,0.0,0.0,0.0,0.0,0.0,0.0,0.0,0.0,0.0,0.0,0.0,0.0,0.0,0.0,0.0,0.0,0.0,0.0,0.0,0.0,0.0,0.0,0.0,0.0,0.0,0.0,0.0,0.0,0.0,0.0,0.0,0.0,0.0,0.0,0.0,0.0,0.0,0.0,0.0,0.0,0.0,0.0,0.0,0.0,0.0,0.0,0.0,0.0,0.0,0.0,0.0,0.0,0.0,0.0,0.0,0.0,0.0,0.0,0.0,0.0,0.0,0.0,0.0,0.0,0.0,0.0,0.0,0.0,0.0,0.0,0.0,0.0,0.0,0.0,0.0,0.0,0.0,0.0,0.0,0.0,0.0,0.0,0.0,0.0,0.0,0.0,0.0,0.0,0.0,0.0,0.0,0.0,0.0,0.0,0.0,0.0,0.0,0.0,0.0,0.0,0.0,0.0,0.0,0.0,0.0,0.0,0.0,0.0,0.0,0.0,0.0,0.0,0.0,0.0,0.0,0.0,0.0,0.0,0.0,0.0,0.0,0.0,0.0,0.0,0.0,0.0,0.0,0.0,0.0,0.0,0.0,0.0,0.0,0.0,0.0,0.0,0.0,0.0,0.0,0.0,0.0,0.0,0.0,0.0,0.0,0.0,0.0,0.0,0.0,0.0,0.0,0.0,0.0,0.0,0.0,0.0,0.0,0.0,0.0,0.0,0.0,0.0,0.0,0.0,0.0,0.0,0.0,0.0,0.0,0.0,0.0,0.0,0.0,0.0,0.0,0.0,0.0,0.0,0.0,0.0,0.0,0.0,0.0,0.0,0.0,0.0,0.0,0.0,0.0,0.0,0.0,0.0,0.0,0.0,0.0,0.0,0.0,0.0,0.0,0.0,0.0,0.0,0.0,0.0,0.0,0.0,0.0,0.0,0.0,0.0,0.0,0.0,0.0,0.0,0.0,0.0,0.0,0.0,0.0,0.0,0.0,0.0,0.0,0.0,0.0,0.0,0.0,0.0,0.0,0.0,0.0,0.0,0.0,0.0,0.0,0.0,0.0,0.0,0.0,0.0,0.0,0.0,0.0,0.0,0.0,0.0,0.0,0.0,0.0,0.0,0.0,0.0,0.0,0.0,0.0,0.0,0.0,0.0,0.0,0.0,0.0,0.0,0.0,0.0,0.0,0.0,0.0,0.0,0.0,0.0,0.0,0.0,0.0,0.0,0.0,0.0,0.0,0.0,0.0,0.0,0.0,0.0,0.0,0.0,0.0,0.0,0.0,0.0,0.0,0.0,0.0,0.0,0.0,0.0,0.0,0.0,0.0,0.0,0.0,0.0,0.0,0.0,0.0,0.0,0.0,0.0,0.0,0.0,0.0,0.0,0.0,0.0,0.0,0.0,0.0,0.0,0.0,0.0,0.0,0.0,0.0,0.0,0.0,0.0,0.0,0.0,0.0,0.0,0.0,0.0,0.0,0.0,0.0,0.0,0.0,0.0,0.0,0.0,0.0,0.0,0.0,0.0,0.0,0.0,0.0,0.0,0.0,0.0,0.0,0.0,0.0,0.0,0.0,0.0,0.0,0.0,0.0,0.0,0.0,0.0,0.0,0.0,0.0,0.0,0.0,0.0,0.0,0.0,0.0,0.0,0.0,0.0,0.0,0.0,0.0,0.0,0.0,0.0,0.0,0.0,0.0,0.0,0.0,0.0,0.0,0.0,0.0,0.0,0.0,0.0,0.0,0.0,0.0,0.0,0.0,0.0,0.0,0.0,0.0,0.0,0.0,0.0,0.0,0.0,0.0,0.0,0.0,0.0,0.0,0.0,0.0,0.0,0.0,0.0,0.0,0.0,0.0,0.0,0.0,0.0,0.0,0.0,0.0,0.0,0.0,0.0,0.0,0.0,0.0,0.0,0.0,0.0,0.0,0.0,0.0,0.0,0.0,0.0,0.0,0.0,0.0,0.0,0.0,0.0,0.0,0.0,0.0,0.0,0.0,0.0,0.0,0.0,0.0,0.0,0.0,0.0,0.0,0.0,0.0,0.0,0.0,0.0,0.0,0.0,0.0,0.0,0.0,0.0,0.0,0.0,0.0,0.0,0.0,0.0,0.0,0.0,0.0,0.0,0.0,0.0,0.0,0.0,0.0,0.0,0.0,0.0,0.0,0.0,0.0,0.0,0.0,0.0,0.0,0.0,0.0,0.0,0.0,0.0,0.0,0.0,0.0,0.0,0.0,0.0,0.0,0.0,0.0,0.0,0.0,0.0,0.0,0.0,0.0,0.0,0.0,0.0,0.0,0.0,0.0,0.0,0.0,0.0,0.0,0.0,0.0,0.0,0.0,0.0,0.0,0.0,0.0,0.0,0.0,0.0,0.0,0.0,0.0,0.0,0.0,0.0,0.0,0.0,0.0,0.0,0.0,0.0,0.0,0.0,0.0,0.0,0.0,0.0,0.0,0.0,0.0,0.0,0.0,0.0,0.0,0.0,0.0,0.0,0.0,0.0,0.0,0.0,0.0,0.0,0.0,0.0,0.0,0.0,0.0,0.0,0.0,0.0,0.0,0.0,0.0,0.0,0.0,0.0,0.0,0.0,0.0,0.0,0.0,0.0,0.0,0.0,0.0,0.0,0.0,0.0,0.0,0.0,0.0,0.0,0.0,0.0,0.0,0.0,0.0,0.0,0.0,0.0,0.0,0.0,0.0,0.0,0.0,0.0,0.0,0.0,0.0,0.0,0.0,0.0,0.0,0.0,0.0,0.0,0.0,0.0,0.0,0.0,0.0,0.0,0.0,0.0,0.0,0.0,0.0,0.0,0.0,0.0,0.0,0.0,0.0,0.0,0.0,0.0,0.0,0.0,0.0,0.0,0.0,0.0,0.0,0.0,0.0,0.0,0.0,0.0,0.0,0.0,0.0,0.0,0.0,0.0,0.0,0.0,0.0,0.0,0.0,0.0,0.0,0.0,0.0,0.0,0.0,0.0,0.0,0.0,0.0,0.0,0.0,0.0,0.0,0.0,0.0,0.0,0.0,0.0,0.0,0.0,0.0,0.0,0.0,0.0,0.0,0.0,0.0,0.0,0.0,0.0,0.0,0.0,0.0,0.0,0.0,0.0,0.0,0.0,0.0,0.0,0.0,0.0,0.0,0.0,0.0,0.0,0.0,0.0,0.0,0.0,0.0,0.0,0.0,0.0,0.0,0.0,0.0,0.0,0.0,0.0,0.0,0.0,0.0,0.0,0.0,0.0,0.0,0.0,0.0,0.0,0.0,0.0,0.0,0.0,0.0,0.0,0.0,0.0,0.0,0.0,0.0,0.0,0.0,0.0,0.0,0.0,0.0,0.0,0.0,0.0,0.0,0.0,0.0,0.0,0.0,0.0,0.0,0.0,0.0,0.0,0.0,0.0,0.0,0.0,0.0,0.0,0.0,0.0,0.0,0.0,0.0,0.0,0.0,0.0,0.0,0.0,0.0,0.0,0.0,0.0,0.0,0.0,0.0,0.0,0.0,0.0,0.0,0.0,0.0,0.0,0.0,0.0,0.0,0.0,0.0,0.0,0.0,0.0,0.0,0.0,0.0,0.0,0.0,0.0,0.0,0.0,0.0,0.0,0.0,0.0,0.0,0.0,0.0,0.0,0.0,0.0,0.0,0.0,0.0,0.0,0.0,0.0,0.0,0.0,0.0,0.0,0.0,0.0,0.0,0.0,0.0,0.0,0.0,0.0,0.0,0.0,0.0,0.0,0.0,0.0,0.0,0.0,0.0,0.0,0.0,0.0,0.0,0.0,0.0,0.0,0.0,0.0,0.0,0.0,0.0,0.0,0.0,0.0,0.0,0.0,0.0,0.0,0.0,0.0,0.0,0.0,0.0,0.0,0.0,0.0,0.0,0.0,0.0,0.0,0.0,0.0,0.0,0.0,0.0,0.0,0.0,0.0,0.0,0.0,0.0,0.0,0.0,0.0,0.0,0.0,0.0,0.0,0.0,0.0,0.0,0.0,0.0,0.0,0.0,0.0,0.0,0.0,0.0,0.0,0.0,0.0,0.0,0.0,0.0,0.0,0.0,0.0,0.0,0.0,0.0,0.0,0.0,0.0,0.0,0.0,0.0,0.0,0.0,0.0,0.0,0.0,0.0,0.0,0.0,0.0,0.0,0.0,0.0,0.0,0.0,0.0,0.0,0.0,0.0,0.0,0.0,0.0,0.0,0.0,0.0,0.0,0.0,0.0,0.0,0.0,0.0,0.0,0.0,0.0,0.0,0.0,0.0,0.0,0.0,0.0,0.0,0.0,0.0,0.0,0.0,0.0,0.0,0.0,0.0,0.0,0.0,0.0,0.0,0.0,0.0,0.0,0.0,0.0,0.0,0.0,0.0,0.0,0.0,0.0,0.0,0.0,0.0,0.0,0.0,0.0,0.0,0.0,0.0,0.0,0.0,0.0,0.0,0.0,0.0,0.0,0.0,0.0,0.0,0.0,0.0,0.0,0.0,0.0,0.0,0.0,0.0,0.0,0.0,0.0,0.0,0.0,0.0,0.0,0.0,0.0,0.0,0.0,0.0,0.0,0.0,0.0,0.0,0.0,0.0,0.0,0.0,0.0,0.0,0.0,0.0,0.0,0.0,0.0,0.0,0.0,0.0,0.0,0.0,0.0,0.0,0.0,0.0,0.0,0.0,0.0,0.0,0.0,0.0,0.0,0.0,0.0,0.0,0.0,0.0,0.0,0.0,0.0,0.0,0.0,0.0,0.0,0.0,0.0,0.0,0.0,0.0,0.0,0.0,0.0,0.0,0.0,0.0,0.0,0.0,0.0,0.0,0.0,0.0,0.0,0.0,0.0,0.0,0.0,0.0,0.0,0.0,0.0,0.0,0.0,0.0,0.0,0.0,0.0,0.0,0.0,0.0,0.0,0.0,0.0,0.0,0.0,0.0,0.0,0.0,0.0,0.0,0.0,0.0,0.0,0.0,0.0,0.0,0.0,0.0,0.0,0.0,0.0,0.0,0.0,0.0,0.0,0.0,0.0,0.0,0.0,0.0,0.0,0.0,0.0,0.0,0.0,0.0,0.0,0.0,0.0,0.0,0.0,0.0,0.0,0.0,0.0,0.0,0.0,0.0,0.0,0.0,0.0,0.0,0.0,0.0,0.0,0.0,0.0,0.0,0.0,0.0,0.0,0.0,0.0,0.0,0.0,0.0,0.0,0.0,0.0,0.0,0.0,0.0,0.0,0.0,0.0,0.0,0.0,0.0,0.0,0.0,0.0,0.0,0.0,0.0,0.0,0.0,0.0,0.0,0.0,0.0,0.0,0.0,0.0,0.0,0.0,3.0747,3.0282,0.0,0.0,0.0,0.0,0.0,0.0,0.0,0.0,0.0,0.0,0.0,0.0,0.0,0.0,0.0,0.0,0.0,0.0,0.0,0.0,0.0,0.0,0.0,0.0,0.0,0.0,0.0,0.0,0.0,0.0,0.0,0.0,0.0,0.0,0.0,0.0,0.0,0.0,3.0283,3.0628,3.0613,3.0792,3.1058,3.1409,0.0,0.0,0.0,0.0,0.0,0.0,0.0,0.0,0.0,0.0,0.0,0.0,0.0,0.0,0.0,0.0,0.0,0.0,0.0,0.0,0.0,0.0,0.0,0.0,0.0,0.0,0.0,0.0,0.0,0.0,0.0,0.0,0.0,0.0,0.0,0.0,0.0,0.0,0.0,0.0,0.0,0.0,0.0,0.0,0.0,0.0,0.0,0.0,0.0,0.0,0.0,0.0,0.0,0.0,0.0,0.0,0.0,0.0,0.0,0.0,0.0,0.0,0.0,0.0,0.0,0.0,0.0,0.0,0.0,0.0,3.1146,3.0836,0.0,0.0,0.0,0.0,0.0,0.0,0.0,0.0,0.0,0.0,0.0,0.0,0.0,0.0,0.0,0.0,0.0,0.0,0.0,0.0,0.0,0.0,0.0,0.0,2.7451,2.6905,2.7855,0.0,0.0,0.0,0.0,0.0,0.0,0.0,0.0,0.0,0.0,3.0791,3.1146,3.138,3.1511,3.1511,3.1438,3.1322,3.1322,0.0,0.0,0.0,0.0,0.0,0.0,0.0,0.0,0.0,0.0,0.0,0.0,0.0,0.0,0.0,0.0,0.0,0.0,0.0,0.0,0.0,0.0,0.0,0.0,0.0,0.0,0.0,0.0,0.0,0.0,0.0,0.0,0.0,0.0,0.0,0.0,0.0,0.0,0.0,0.0,0.0,0.0,0.0,0.0,0.0,0.0,0.0,0.0,0.0,0.0,0.0,0.0,0.0,0.0,0.0,0.0,0.0,0.0,0.0,0.0,0.0,0.0,0.0,3.1423,3.1423,3.1409,3.1423,3.1523,3.1638,3.1638,3.1552,3.1423,3.1322,0.0,0.0,0.0,0.0,0.0,0.0,0.0,0.0,0.0,0.0,0.0,0.0,0.0,0.0,0.0,0.0,0.0,0.0,0.0,0.0,0.0,2.833,2.833,2.8247,2.8395,2.8698,0.0,0.0,0.0,0.0,0.0,0.0,0.0,3.0477,3.0598,3.0791,3.1146,3.138,3.1511,3.1511,3.1511,3.1467,3.1467,3.1467,3.1511,0.0,0.0,0.0,0.0,0.0,0.0,0.0,0.0,0.0,0.0,0.0,0.0,0.0,0.0,0.0,0.0,0.0,0.0,0.0,0.0,0.0,0.0,0.0,0.0,0.0,0.0,0.0,0.0,0.0,0.0,0.0,0.0,0.0,0.0,0.0,0.0,0.0,0.0,0.0,0.0,0.0,3.1043,3.0657,0.0,0.0,0.0,0.0,0.0,0.0,0.0,0.0,0.0,0.0,0.0,0.0,0.0,3.2266,3.259,3.2718,3.2625,3.241,3.2761,3.2799,3.2571,3.2826,3.2933,3.2944,3.2944,0.0,3.2005,3.1977,0.0,0.0,0.0,0.0,0.0,0.0,0.0,0.0,0.0,0.0,0.0,0.0,0.0,0.0,0.0,0.0,0.0,0.0,0.0,0.0,0.0,2.8857,2.8953,2.8524,2.9205,2.947,2.9016,0.0,0.0,0.0,0.0,3.0282,3.0598,3.0672,3.0821,3.1087,3.1292,3.1438,3.1511,3.1511,3.1511,3.1511,3.1511,3.1511,3.1511,3.1511,0.0,0.0,0.0,0.0,0.0,0.0,0.0,0.0,0.0,0.0,0.0,0.0,0.0,0.0,0.0,0.0,0.0,0.0,0.0,0.0,0.0,0.0,0.0,0.0,0.0,0.0,0.0,0.0,0.0,0.0,0.0,0.0,0.0,0.0,0.0,0.0,0.0,0.0,0.0,3.0777,3.0836,3.0628,3.0777,3.0836,0.0,0.0,0.0,0.0,0.0,0.0,0.0,0.0,0.0,3.3671,3.331,3.3591,3.4659,3.4449,3.4301,3.418,3.4356,3.4367,3.4274,3.4383,3.4438,3.4438,3.4438,3.4356,3.4101,3.3045,3.2528,3.2419,0.0,0.0,0.0,0.0,3.2099,3.1959,0.0,0.0,0.0,0.0,0.0,0.0,0.0,0.0,0.0,0.0,0.0,0.0,2.9016,2.9546,2.9639,2.9079,2.9993,3.0146,2.9111,3.0023,0.0,0.0,0.0,3.0598,3.0598,3.0791,3.1029,3.1307,3.1617,3.175,3.1765,3.1929,3.2004,3.1989,3.1824,3.166,3.1511,3.1511,3.1511,3.1496,0.0,0.0,0.0,0.0,0.0,0.0,0.0,0.0,0.0,0.0,0.0,0.0,0.0,0.0,0.0,0.0,0.0,0.0,0.0,0.0,0.0,0.0,0.0,0.0,0.0,0.0,0.0,0.0,0.0,0.0,0.0,0.0,0.0,0.0,0.0,0.0,0.0,3.0807,3.0851,3.0642,3.0911,3.1029,0.0,0.0,0.0,0.0,0.0,0.0,3.2433,3.2545,3.333,3.4888,3.4486,3.4877,3.62,3.5796,3.5605,3.5605,3.5671,3.5715,3.573,3.5715,3.5715,3.5715,3.5632,3.5703,3.5786,3.4106,3.336,3.3253,3.29,3.266,3.2524,3.2779,3.2795,3.2795,0.0,0.0,0.0,0.0,0.0,0.0,0.0,0.0,0.0,0.0,0.0,2.9432,3.0387,3.0538,3.0538,3.0507,3.0568,3.0568,3.0507,3.0568,3.0568,3.0538,3.0568,3.0598,3.0598,3.0925,3.1161,3.1307,3.2064,3.2437,3.2452,3.3095,3.3395,3.3365,3.2736,3.2093,3.1511,3.1511,3.1511,3.1553,3.212,0.0,0.0,0.0,0.0,0.0,0.0,0.0,0.0,0.0,0.0,0.0,0.0,0.0,0.0,0.0,0.0,0.0,0.0,0.0,0.0,0.0,0.0,0.0,0.0,0.0,0.0,0.0,0.0,0.0,0.0,0.0,0.0,0.0,0.0,0.0,0.0,0.0,0.0,3.0687,3.1722,0.0,0.0,0.0,0.0,3.1879,3.2528,3.3266,3.394,3.4353,3.504,3.6066,3.584,3.5856,3.6211,3.6185,3.6168,3.6163,3.6427,3.6591,3.6623,3.6591,3.6532,3.6532,3.6275,3.6185,3.6093,3.5048,3.4398,3.396,3.3253,3.2571,3.2061,3.3024,3.3039,3.2749,0.0,0.0,0.0,0.0,0.0,0.0,0.0,0.0,0.0,2.9446,2.9665,2.9974,3.0552,3.0598,3.0598,3.0598,3.0598,3.0598,3.0598,3.0598,3.0598,3.0598,3.0598,3.0877,3.1497,3.1752,3.2154,3.2736,3.299,3.314,3.3155,3.338,3.3499,3.3484,3.3245,3.3021,3.2766,3.2273,3.2079,3.212,3.268,3.2788,0.0,0.0,0.0,0.0,0.0,0.0,0.0,0.0,0.0,0.0,0.0,0.0,0.0,0.0,0.0,0.0,0.0,0.0,0.0,0.0,0.0,0.0,0.0,0.0,0.0,0.0,0.0,0.0,0.0,0.0,0.0,0.0,0.0,0.0,0.0,0.0,0.0,3.148,3.1879,0.0,3.2385,3.2804,3.3229,3.3673,3.4224,3.4648,3.4916,3.5477,3.6245,3.7259,3.761,3.8146,3.8901,3.8901,3.8999,3.921,3.9113,3.917,3.9411,3.9141,3.9056,3.9028,3.8958,3.8527,3.7873,3.7094,3.6233,3.5417,3.5145,3.4601,3.4,3.436,3.4098,3.3636,0.0,0.0,0.0,0.0,0.0,0.0,0.0,0.0,2.8688,2.9477,2.9803,3.0097,3.0552,3.0598,3.0598,3.0598,3.0598,3.0598,3.0598,3.0598,3.0598,3.0598,3.0816,3.1273,3.2092,3.2374,3.2853,3.3499,3.3724,3.3829,3.3829,3.4068,3.4173,3.4158,3.415,3.4121,3.4107,3.3805,3.331,3.2789,3.3298,3.3381,3.3209,0.0,0.0,0.0,0.0,0.0,0.0,0.0,0.0,0.0,0.0,0.0,0.0,0.0,0.0,0.0,0.0,0.0,0.0,0.0,0.0,0.0,0.0,0.0,0.0,0.0,0.0,0.0,0.0,0.0,0.0,0.0,0.0,0.0,0.0,0.0,3.2181,3.2268,3.2525,3.2926,3.3531,3.3996,3.4547,3.5203,3.5804,3.62,3.6437,3.7085,3.7743,3.8426,3.8874,3.9411,4.0103,4.0103,4.0254,4.0583,4.0361,4.0421,4.0714,4.0421,4.0287,4.024,4.015,3.9726,3.9065,3.8603,3.7987,3.7231,3.6284,3.568,3.5325,3.5341,3.5078,3.471,0.0,0.0,0.0,0.0,0.0,0.0,0.0,2.8587,2.8844,2.9509,2.9602,2.9851,3.0522,3.0598,3.0598,3.0598,3.0598,3.0598,3.0598,3.0598,3.0612,3.0641,3.1192,3.1771,3.2332,3.2786,3.3204,3.3559,3.4218,3.4547,3.4593,3.525,3.5564,3.5567,3.5492,3.546,3.5504,3.6002,3.5195,3.3568,3.3998,3.3806,3.3329,0.0,0.0,0.0,0.0,0.0,0.0,0.0,0.0,0.0,0.0,0.0,0.0,0.0,0.0,0.0,0.0,0.0,0.0,0.0,0.0,0.0,0.0,0.0,0.0,0.0,0.0,0.0,0.0,0.0,0.0,0.0,0.0,0.0,3.1992,3.2342,3.2755,3.3006,3.3808,3.4439,3.4747,3.52,3.5758,3.644,3.7148,3.7844,3.8507,3.9171,3.9534,3.9566,3.9582,3.9613,3.9629,3.9629,3.9801,4.0143,4.0112,4.0249,4.052,4.0233,4.008,4.008,3.9707,3.955,3.9534,3.9534,3.9518,3.9234,3.6532,3.5637,3.5865,3.5826,3.581,3.5888,0.0,0.0,0.0,0.0,0.0,0.0,0.0,2.8587,2.8844,2.9509,2.9602,2.9851,3.0522,3.0598,3.0598,3.0598,3.0598,3.0598,3.0598,3.0598,3.0816,3.1235,3.1562,3.2211,3.3289,3.3576,3.4076,3.4743,3.5251,3.5677,3.5953,3.6428,3.6726,3.6885,3.6865,3.6845,3.6847,3.6892,3.6646,3.611,3.5673,3.5071,3.444,0.0,0.0,0.0,0.0,0.0,0.0,0.0,0.0,0.0,0.0,0.0,0.0,0.0,0.0,0.0,0.0,0.0,0.0,0.0,0.0,0.0,0.0,0.0,0.0,0.0,0.0,0.0,0.0,0.0,0.0,0.0,0.0,3.2942,3.2449,3.324,3.385,3.3928,3.4624,3.554,3.6623,3.6837,3.7385,3.857,3.8839,3.9029,3.9218,3.9914,4.0514,4.1004,4.1525,4.2047,4.2552,4.2534,4.272,4.3036,4.2805,4.2838,4.3136,4.2329,4.1958,4.1926,4.1273,4.0735,4.0293,4.0293,4.0119,3.9718,3.8234,3.7397,3.6978,3.6426,3.6182,3.6152,0.0,0.0,0.0,0.0,0.0,0.0,0.0,2.8457,2.8844,2.9509,2.9602,2.9851,3.0522,3.0598,3.0598,3.0598,3.0598,3.0598,3.0598,3.0598,3.0918,3.1589,3.1926,3.2633,3.3803,3.4144,3.4681,3.5481,3.5866,3.6225,3.6643,3.7049,3.7248,3.7287,3.795,3.8074,3.7857,3.8334,3.8183,3.7578,3.7098,3.629,3.533,3.5015,3.4561,3.4161,3.4715,3.4537,3.4177,3.4715,0.0,0.0,0.0,0.0,0.0,0.0,0.0,0.0,0.0,0.0,0.0,0.0,0.0,0.0,0.0,0.0,0.0,0.0,0.0,0.0,0.0,0.0,0.0,0.0,3.3354,3.3623,3.3349,3.3884,3.451,3.511,3.5821,3.6706,3.7812,3.816,3.8776,3.9882,4.0214,4.0514,4.0814,4.1509,4.2094,4.2473,4.2884,4.3295,4.3706,4.3687,4.3809,4.3999,4.3794,4.3794,4.3965,4.3398,4.3121,4.309,4.2363,4.1825,4.1446,4.1146,4.0863,4.0547,0.0,0.0,0.0,0.0,3.7384,3.7528,0.0,0.0,0.0,0.0,0.0,0.0,0.0,2.8151,2.8716,2.9415,2.9509,2.9789,3.0507,3.0598,3.0598,3.0598,3.0598,3.0598,3.0598,3.0598,3.0978,3.1829,3.2271,3.2975,3.4033,3.4457,3.5072,3.5859,3.6083,3.6453,3.6934,3.7322,3.7506,3.7491,3.888,3.9156,3.8646,3.9862,3.956,3.8223,3.8219,3.7292,3.5877,3.5263,3.4797,3.4521,3.478,3.4691,3.4546,3.4763,0.0,0.0,0.0,0.0,0.0,0.0,0.0,0.0,0.0,0.0,0.0,0.0,0.0,0.0,0.0,0.0,0.0,0.0,0.0,0.0,0.0,0.0,0.0,0.0,3.3909,3.4352,3.451,3.4604,3.511,3.6377,3.7164,3.7891,3.8665,3.9281,3.9961,4.0783,4.1383,4.2031,4.2758,4.339,0.0,0.0,0.0,4.3867,4.3946,4.3943,4.3924,4.3924,4.3924,4.3924,4.3924,4.3845,4.3797,4.3766,4.3105,4.2839,4.281,4.2048,4.1667,4.1462,4.0135,3.9738,3.9843,3.9039,3.9056,3.9444,0.0,0.0,0.0,0.0,0.0,0.0,0.0,2.7477,2.802,2.8835,2.8962,2.9373,3.0477,3.0598,3.0598,3.0598,3.0598,3.0598,3.0598,3.0598,3.1135,3.2312,3.2454,3.3082,3.4311,3.4423,3.4855,3.5673,3.6076,3.6731,3.7611,3.8069,3.8739,3.963,3.9862,3.9834,3.9633,4.016,3.9622,3.8344,3.8233,3.719,3.5678,3.577,3.5243,3.4497,3.4546,3.4546,3.4497,3.4546,3.4423,3.43,3.4497,0.0,0.0,0.0,0.0,0.0,0.0,0.0,0.0,0.0,0.0,0.0,0.0,0.0,0.0,0.0,0.0,0.0,0.0,0.0,0.0,3.4004,3.4209,3.4699,3.5824,3.65,3.6988,3.7243,3.7891,3.8807,4.0072,4.0309,4.0909,4.2189,4.2394,4.2789,4.345,4.3608,4.394,4.4496,4.4512,4.4796,4.5396,4.5396,4.5412,4.5412,4.5412,0.0,4.5381,4.4796,4.4527,4.448,4.3816,4.3688,4.393,4.2893,4.2126,4.1509,4.0704,4.0056,3.9643,3.9975,4.0197,4.0277,0.0,0.0,0.0,0.0,0.0,0.0,0.0,2.6973,2.7577,2.8449,2.8546,2.8962,2.9991,3.0097,3.0189,3.0341,3.0492,3.0598,3.0598,3.0598,3.1163,3.2423,3.2481,3.3108,3.4385,3.4414,3.4753,3.5516,3.6137,3.6829,3.7579,3.8282,3.8907,3.937,3.9724,3.967,3.9267,3.9748,3.934,3.8387,3.8324,3.7269,3.5707,3.5776,3.5086,3.4126,3.425,3.4226,3.4126,3.425,3.4226,3.4126,3.425,3.4201,3.4075,0.0,0.0,0.0,0.0,0.0,0.0,0.0,0.0,0.0,0.0,0.0,0.0,0.0,0.0,3.3309,0.0,0.0,3.3909,3.4241,3.4889,3.5742,3.6801,3.7559,3.8002,3.8002,3.8918,3.9961,4.1004,4.143,4.2078,4.3121,4.3516,4.3848,4.4161,4.4559,4.4887,4.5254,4.5254,4.5444,4.5807,4.5956,4.5956,4.5807,4.5956,4.5956,4.5792,4.5576,4.5492,4.546,4.4792,4.4594,4.4685,4.3276,4.2473,4.2062,4.1367,4.0959,4.0785,4.0808,4.0984,4.1216,0.0,0.0,0.0,0.0,0.0,0.0,0.0,0.0,2.7061,2.7881,2.798,2.8306,2.9198,2.9306,2.9495,2.9943,3.031,3.0522,3.0612,3.0598,3.1105,3.2249,3.2423,3.305,3.4196,3.4356,3.4719,3.5392,3.6056,3.6618,3.7128,3.7938,3.8341,3.8399,3.912,3.9092,3.8587,3.9228,3.9014,3.8205,3.8218,3.7194,3.5694,3.5523,3.4732,3.3736,3.3949,3.3873,3.372,3.3949,3.4025,3.4025,3.4025,3.4025,3.3975,3.3694,3.3633,0.0,0.0,0.0,0.0,0.0,0.0,0.0,0.0,0.0,3.3309,3.3309,3.3309,3.334,3.3467,3.3941,3.4383,3.4652,3.5789,3.688,3.7575,3.8397,3.8918,3.8918,3.9914,4.0925,4.1715,4.2347,4.3026,4.3813,4.4366,4.478,4.4922,4.5491,4.5807,4.5807,4.5807,4.5844,4.59,4.612,4.612,4.59,4.6175,4.6175,4.59,4.6246,4.6356,4.6253,4.583,4.5491,4.5197,4.3942,4.322,4.2851,4.2247,4.2124,4.2221,4.1627,4.1682,4.204,0.0,0.0,0.0,0.0,0.0,0.0,0.0,0.0,0.0,2.6705,2.6794,2.7144,2.8084,2.8293,2.8712,2.9591,2.9974,3.028,3.0568,3.0598,3.0887,3.1567,3.2162,3.2846,3.359,3.4124,3.4719,3.5392,3.5514,3.5828,3.6417,3.6525,3.7022,3.7809,3.8323,3.8429,3.8308,3.9154,3.8766,3.7594,3.7468,3.6633,3.5383,3.5038,3.4396,3.3694,3.372,3.3736,3.3694,3.372,3.3745,3.3745,3.3745,3.3745,3.3694,3.3424,0.0,3.3319,3.3309,3.3309,3.3309,3.3309,3.3309,3.3309,0.0,0.0,3.3309,3.3309,3.3309,3.3482,3.4067,3.4241,3.4699,3.5951,3.6848,3.7607,3.8302,3.9534,4.0372,4.0372,4.0498,4.1114,4.2442,4.2631,4.3216,4.4496,4.467,4.5001,4.5649,4.5776,4.5807,4.5807,4.5807,4.592,4.623,4.5992,4.5992,4.623,4.6285,4.6301,4.6266,4.6668,4.6633,4.6321,4.6622,4.6166,4.5346,4.5812,4.5049,4.3557,4.3509,4.3263,4.2943,4.2567,4.2488,4.25,0.0,0.0,0.0,0.0,0.0,0.0,0.0,0.0,0.0,0.0,2.6368,2.6641,2.7351,2.7703,2.8293,2.923,2.962,3.0021,3.0582,3.0598,3.0858,3.1451,3.1756,3.2411,3.3474,3.3765,3.4182,3.4806,3.5218,3.5537,3.5799,3.6141,3.6499,3.6911,3.734,3.7514,3.7479,3.8079,3.7762,3.6861,3.6804,3.5967,3.4742,3.4578,3.408,3.3477,3.3477,3.3477,0.0,0.0,3.3477,3.3477,3.3477,3.3477,3.345,3.3319,3.3309,0.0,3.3309,0.0,0.0,0.0,3.3309,3.3309,3.3309,3.3309,3.3309,3.3309,3.3609,3.3972,3.4241,3.4968,3.5698,0.0,3.7354,3.8318,3.8997,3.9961,4.0735,4.113,4.1557,4.2205,4.32,4.3643,4.4275,4.5286,4.5349,4.5476,4.5792,4.5807,4.5807,4.5807,4.5992,4.6048,4.6028,4.6509,4.6598,4.6285,4.6756,4.686,4.6668,4.7048,4.71,4.6963,4.71,4.6817,4.6201,4.6087,4.5357,4.4302,4.3864,4.3312,4.282,4.2881,4.3021,4.3171,0.0,0.0,0.0,0.0,0.0,0.0,0.0,0.0,0.0,0.0,2.5943,2.6117,2.6564,2.7048,2.767,2.8495,2.8917,2.9484,3.0251,3.0312,3.0589,3.1235,3.1424,3.1961,3.2937,3.314,3.3514,3.4153,3.4651,3.4971,3.5145,3.5575,3.5793,3.5799,3.6239,3.6418,3.6368,3.6829,3.6652,3.6093,3.5887,3.5221,3.4273,3.4083,3.3719,3.3309,3.3309,3.3309,0.0,0.0,3.3309,3.3309,3.3309,3.3309,3.3309,3.3309,3.3309,3.3309,3.3309,0.0,0.0,3.3309,3.3309,3.3309,3.3309,3.3309,3.3309,3.3309,3.383,3.4352,3.4557,3.56,3.6456,3.669,3.7875,3.895,3.9424,4.0293,4.1051,4.1525,4.241,4.3169,4.364,4.4322,4.5017,4.576,4.5807,4.5807,4.5807,4.5807,4.5844,4.592,4.6175,4.6282,4.6243,4.6911,4.7032,4.6601,4.7118,4.727,4.7048,4.7286,4.7404,4.7404,4.7404,4.727,4.7015,4.6597,4.5994,4.5294,4.4576,4.3842,4.3173,4.3209,4.3325,4.3462,0.0,0.0,0.0,0.0,0.0,0.0,0.0,0.0,0.0,0.0,0.0,0.0,0.0,2.6117,2.6654,2.7196,2.7736,2.8505,2.9546,2.9623,2.9915,3.0597,3.1192,3.1509,3.1553,3.2208,3.2861,3.3532,3.3547,3.3881,3.4443,3.4457,3.4472,3.4472,3.5016,3.5117,3.5018,3.5521,3.5638,3.5363,3.4636,3.4336,3.4225,3.3577,3.3324,3.3309,3.3309,0.0,0.0,0.0,3.3309,3.3309,3.3309,3.3309,0.0,3.3309,3.3309,3.3309,0.0,0.0,3.3309,3.3309,3.3309,3.3309,3.3309,3.3309,3.3309,3.3309,3.383,3.451,3.5221,3.5947,3.6614,3.7368,3.8586,3.9471,3.9503,4.0688,4.1573,4.1588,4.2837,4.3671,0.0,4.4322,4.5017,4.576,4.5807,4.5807,4.5807,4.5807,4.5956,4.6266,4.6285,4.6636,4.7337,4.7048,4.7082,4.7371,4.7371,4.7404,4.7371,4.7421,4.7404,4.7404,4.7404,4.7404,4.7404,4.7787,4.7505,4.676,4.6015,4.527,4.4542,4.3847,4.3402,4.3174,0.0,0.0,0.0,0.0,0.0,0.0,0.0,0.0,0.0,0.0,0.0,0.0,0.0,0.0,0.0,0.0,2.7384,2.7868,2.8826,2.8857,2.9188,2.9901,3.0145,3.063,3.148,3.1712,3.2147,3.2846,3.2846,3.2948,3.3151,3.3151,3.3151,3.3151,3.3701,3.3915,3.3876,3.4693,3.4732,3.4279,3.429,3.402,3.3609,3.3388,3.3309,3.3309,0.0,0.0,0.0,3.3309,3.3309,3.3309,3.3309,0.0,3.3309,3.3309,3.3309,3.3309,3.3309,0.0,3.3309,3.3309,3.3309,3.3309,3.3309,3.3309,3.3309,3.3309,3.4225,3.5094,3.5347,3.6342,3.7196,3.7462,3.8618,3.9503,3.9503,4.0704,4.1588,4.1588,4.2837,0.0,0.0,0.0,0.0,4.5792,4.5807,4.5807,4.5807,4.5807,4.5844,4.5956,4.6423,4.6687,4.6671,4.732,4.7538,4.7404,4.7671,4.7787,4.7787,4.7787,4.7787,4.7787,4.7787,4.7787,4.782,4.7919,4.757,4.6874,4.6626,4.5765,4.4655,4.4423,4.3935,4.3462,0.0,0.0,0.0,0.0,0.0,0.0,0.0,0.0,0.0,0.0,0.0,0.0,0.0,0.0,0.0,0.0,0.0,2.7196,2.7986,2.8117,2.8473,2.9188,2.9219,2.9698,3.0809,3.0824,3.1279,3.2133,3.2133,3.2249,3.2481,3.2481,3.2481,3.2513,3.2847,3.2981,3.2943,3.3545,3.3516,3.3088,3.3336,3.3197,3.2796,3.2796,3.2888,0.0,0.0,0.0,3.3309,3.3309,3.3309,3.3309,3.3309,3.3309,3.3309,3.3309,3.3309,3.3309,3.3309,3.3309,3.3309,3.3309,3.3309,3.3309,3.3309,3.3309,3.3309,3.3309,3.4415,3.5394,3.5394,3.6561,3.751,3.751,3.8618,3.9503,3.9503,4.0704,4.1588,4.1588,4.2837,4.3706,0.0,0.0,0.0,4.5807,4.5807,4.5807,4.5807,4.59,4.5992,4.5992,4.6703,4.6963,4.6705,4.7571,4.7853,4.7638,4.7886,4.8001,4.8001,4.8001,4.8001,4.8001,4.8001,4.8001,4.8001,4.8001,4.7719,4.7272,4.7007,4.6146,4.5052,4.4818,4.4241,4.3598,0.0,0.0,0.0,0.0,0.0,0.0,0.0,0.0,0.0,0.0,0.0,0.0,0.0,0.0,0.0,0.0,0.0,0.0,2.7095,2.7351,2.7769,2.8427,2.846,2.8826,2.9591,2.9591,3.0199,3.1437,3.1437,3.177,3.2394,3.2394,3.2394,3.2394,3.2394,3.2282,3.2108,3.2138,3.2034,3.1879,3.1908,3.1908,3.1908,3.1908,0.0,0.0,0.0,0.0,0.0,0.0,0.0,0.0,0.0,3.3309,3.3309,3.3309,3.3309,3.3309,3.3309,3.3309,3.3309,3.3309,3.3309,3.3309,3.3309,3.3309,3.3309,3.3309,3.4356,3.5303,0.0,0.0,3.7433,3.7447,3.857,3.9455,3.9503,4.0672,4.1541,0.0,0.0,0.0,0.0,0.0,0.0,4.5807,0.0,4.5807,4.5807,4.614,4.6285,4.6321,4.7032,4.7404,4.7404,4.7787,4.8001,4.8001,4.8001,4.8001,4.8001,4.8001,4.8001,4.8001,4.8001,4.8001,4.8001,4.8001,4.8001,4.7934,4.7222,4.6477,4.5715,4.5003,4.4274,4.3598,0.0,0.0,0.0,0.0,0.0,0.0,0.0,0.0,0.0,0.0,0.0,0.0,0.0,0.0,0.0,0.0,0.0,0.0,2.643,2.6658,2.704,2.7736,2.7769,2.8312,2.956,2.9591,3.0017,3.0814,3.0814,3.0901,3.1061,3.1061,3.1061,3.1061,3.1061,3.1065,3.1025,3.1383,3.1485,3.1481,0.0,3.1908,3.1908,0.0,0.0,0.0,0.0,0.0,0.0,0.0,0.0,0.0,0.0,3.3309,3.3309,3.3309,3.3309,3.3309,3.3309,3.3309,3.3309,3.3309,3.3309,3.3309,3.3309,3.3309,3.3309,3.3309,3.3744,3.4244,0.0,0.0,0.0,3.6632,3.7859,0.0,3.9424,4.0277,0.0,4.1525,0.0,4.369,4.369,4.497,0.0,0.0,4.5807,4.59,4.6175,4.6266,4.6442,4.6738,4.7168,4.7404,4.7404,4.7787,4.8001,4.8001,4.8001,4.8001,4.8001,4.8001,4.8001,4.8001,4.8001,4.8001,4.8001,4.8001,4.8001,4.7984,4.7785,4.6924,4.5765,4.5582,4.4721,4.3598,0.0,0.0,0.0,0.0,0.0,0.0,0.0,0.0,0.0,0.0,0.0,0.0,0.0,0.0,0.0,0.0,0.0,0.0,0.0,2.6327,2.6692,2.704,2.7074,2.7716,2.9093,2.9125,2.9608,0.0,0.0,0.0,3.0598,3.0598,3.0598,3.0598,3.0598,3.0598,3.0612,3.0866,0.0,0.0,0.0,0.0,0.0,0.0,0.0,0.0,0.0,0.0,0.0,0.0,0.0,3.3309,3.3309,3.3309,3.3309,3.3309,0.0,3.3309,3.3309,3.3309,3.3309,3.3309,3.3309,3.3309,3.3309,3.3309,3.324,3.3038,3.3505,0.0,3.403,0.0,0.0,0.0,0.0,0.0,3.9408,4.0135,4.0846,0.0,4.2568,0.0,4.3658,4.4685,4.546,0.0,4.5807,4.5864,4.6084,4.6388,4.6582,4.6633,4.732,4.7671,4.7671,4.7886,4.8001,4.8001,4.8001,4.8001,4.8001,4.8001,4.8001,4.8001,4.8001,4.8001,4.8001,4.8001,4.8001,4.8001,4.8001,4.7106,4.5798,4.5798,4.487,4.3598,0.0,0.0,0.0,0.0,0.0,0.0,0.0,0.0,0.0,0.0,0.0,0.0,0.0,0.0,0.0,0.0,0.0,0.0,0.0,0.0,0.0,0.0,2.6499,2.7095,2.833,2.846,2.9142,3.0477,3.0568,0.0,0.0,0.0,0.0,0.0,0.0,0.0,0.0,0.0,0.0,0.0,0.0,0.0,0.0,0.0,0.0,0.0,0.0,0.0,0.0,0.0,3.3309,3.3309,3.3309,3.3309,3.3309,3.3309,3.3309,3.3309,3.3309,3.3309,3.3309,3.3309,3.3309,3.3309,3.3309,3.3309,3.3187,3.278,0.0,3.3999,3.3699,3.4958,3.6082,3.625,0.0,3.8539,3.9376,4.0056,4.0735,4.1494,4.2236,4.2963,4.3624,4.4322,4.5017,4.576,4.5807,4.5844,4.5936,4.6545,4.6772,4.6531,4.7471,4.8001,4.8001,4.8001,4.8001,4.8001,4.8001,4.8001,4.8001,4.8001,4.8001,4.8001,4.8001,4.8001,4.8001,4.8001,4.8001,4.8001,4.8001,4.7106,4.5798,4.5798,4.487,4.3598,0.0,0.0,0.0,0.0,0.0,0.0,0.0,0.0,0.0,0.0,0.0,0.0,0.0,0.0,0.0,0.0,0.0,0.0,0.0,0.0,0.0,0.0,2.6499,2.6871,2.767,2.8214,2.8921,2.9777,3.0312,3.0598,0.0,0.0,0.0,0.0,0.0,0.0,0.0,0.0,0.0,0.0,0.0,0.0,0.0,0.0,0.0,0.0,0.0,0.0,0.0,0.0,3.3309,3.3309,3.3309,3.3309,3.3309,3.3309,3.3309,3.3309,3.3309,3.3309,3.3309,3.3309,3.3309,3.3309,3.3309,3.3309,0.0,0.0,3.3036,3.3006,3.3307,3.3818,3.4469,3.5417,0.0,0.0,0.0,0.0,4.0166,0.0,0.0,0.0,0.0,0.0,0.0,0.0,4.5807,4.608,4.6684,4.6823,4.7167,4.7688,4.7902,4.8001,4.8001,4.8001,4.8001,4.8001,4.8001,4.8001,4.8001,4.8001,4.8001,4.8001,4.8001,4.8001,4.8001,4.8001,4.8001,4.8001,4.8001,4.7106,4.5798,4.5798,4.487,4.3598,0.0,0.0,0.0,0.0,0.0,0.0,0.0,0.0,0.0,0.0,0.0,0.0,0.0,0.0,0.0,0.0,0.0,0.0,0.0,0.0,0.0,0.0,0.0,0.0,0.0,2.7835,2.8505,2.9591,0.0,3.0251,3.0598,3.0598,3.0598,3.0598,3.0598,3.0598,0.0,0.0,0.0,0.0,0.0,0.0,0.0,0.0,0.0,0.0,0.0,0.0,0.0,0.0,3.3309,3.3309,3.3309,3.3309,3.3309,3.3309,3.3309,3.3309,3.3309,3.3309,3.3309,3.3309,3.3309,3.3309,3.3309,0.0,0.0,0.0,3.2942,3.2942,3.2942,0.0,0.0,0.0,0.0,0.0,0.0,0.0,0.0,0.0,0.0,0.0,0.0,0.0,4.4622,4.5728,4.5956,4.6211,4.6547,4.6929,4.7437,4.7968,4.8001,4.8001,4.8001,4.8001,4.8001,4.8001,4.8001,4.8001,4.8001,4.8001,4.8001,4.8001,4.8001,4.8001,4.8001,4.8001,4.8001,4.8001,4.8001,4.7106,4.5798,4.5798,4.487,4.3598,0.0,0.0,0.0,0.0,0.0,0.0,0.0,0.0,2.643,2.627,2.627,2.627,2.627,2.6084,0.0,0.0,0.0,0.0,0.0,0.0,0.0,0.0,0.0,0.0,0.0,0.0,0.0,2.9345,2.9515,0.0,0.0,0.0,0.0,0.0,3.0598,3.0598,3.0598,3.0598,0.0,0.0,0.0,3.0807,0.0,0.0,0.0,0.0,0.0,0.0,0.0,0.0,3.316,3.316,3.3282,3.3309,3.3309,3.3309,3.3309,3.3309,3.3309,3.3309,3.3309,3.3309,3.3309,3.3309,3.3309,3.3309,0.0,0.0,3.3038,3.3187,3.2834,0.0,3.432,0.0,0.0,0.0,0.0,0.0,0.0,0.0,0.0,0.0,0.0,0.0,0.0,4.5476,4.6095,4.6477,4.6531,4.7168,4.7671,4.8001,4.8001,4.8001,4.8001,4.8001,4.8001,4.8001,4.8001,4.8001,4.8001,4.8001,4.8001,4.8001,4.8001,4.8001,4.8001,4.8001,4.8001,4.7984,4.7835,4.6957,4.5765,4.5616,4.4738,4.3598,0.0,0.0,0.0,0.0,0.0,0.0,0.0,0.0,2.6499,2.6465,2.6465,2.6465,2.6465,0.0,0.0,0.0,0.0,0.0,0.0,0.0,0.0,0.0,0.0,0.0,0.0,0.0,0.0,2.8588,2.9251,0.0,0.0,0.0,0.0,0.0,0.0,3.0598,3.0598,3.0598,0.0,0.0,0.0,0.0,0.0,0.0,0.0,0.0,0.0,0.0,0.0,0.0,0.0,3.2738,3.316,3.3309,3.3309,3.3309,0.0,0.0,3.3309,3.3309,3.3309,3.3309,3.3309,3.3309,3.3309,0.0,0.0,3.324,3.3266,3.3282,3.324,3.333,3.3609,0.0,0.0,3.5963,0.0,0.0,0.0,0.0,0.0,0.0,0.0,0.0,4.4386,4.4784,4.6054,4.6979,4.727,4.7704,4.7968,4.8001,4.8001,4.8001,4.8001,4.8001,4.8001,4.8001,4.8001,4.8001,4.8001,4.8001,4.8001,4.8001,4.8001,4.8001,4.8001,4.8001,4.8001,4.7934,4.7255,4.651,4.5715,4.5036,4.4291,4.3598,0.0,0.0,0.0,0.0,0.0,0.0,0.0,0.0,2.6499,2.6499,2.6499,2.6499,0.0,0.0,0.0,0.0,0.0,0.0,0.0,0.0,0.0,0.0,0.0,0.0,0.0,0.0,2.7417,2.8492,2.8794,0.0,0.0,0.0,0.0,0.0,0.0,3.0598,3.0598,3.0598,0.0,0.0,0.0,0.0,0.0,0.0,0.0,0.0,0.0,0.0,0.0,0.0,0.0,0.0,3.316,3.3309,0.0,0.0,3.3309,3.3309,3.3309,3.3309,3.3309,3.3309,3.3309,3.3309,3.3309,0.0,3.3309,3.3309,3.3309,3.3309,3.3309,3.3309,3.3514,0.0,0.0,0.0,0.0,0.0,0.0,0.0,0.0,0.0,0.0,0.0,4.4871,4.6205,4.6869,4.7354,4.7737,4.7886,4.8001,4.8001,4.8001,4.8001,4.8001,4.8001,4.8001,4.8001,4.8001,4.8001,4.8001,4.8001,4.8001,4.8001,4.8001,4.8001,4.8001,4.8001,4.7736,4.7305,4.7007,4.6179,4.5086,4.4804,4.4241,4.3598,0.0,0.0,0.0,0.0,0.0,0.0,2.6499,2.6499,2.6499,2.6499,2.6499,2.6499,0.0,0.0,0.0,0.0,0.0,0.0,0.0,0.0,0.0,0.0,0.0,0.0,0.0,0.0,2.7162,2.8492,2.8492,2.9205,0.0,0.0,3.0598,3.0598,0.0,0.0,0.0,0.0,0.0,0.0,0.0,0.0,0.0,0.0,0.0,0.0,0.0,0.0,0.0,0.0,0.0,0.0,0.0,0.0,0.0,0.0,3.3309,3.3309,3.3309,3.3309,3.3309,3.3309,3.3309,3.3309,0.0,0.0,3.3309,3.3309,3.3309,3.3309,3.3309,3.3309,3.3451,3.3925,0.0,3.5552,0.0,0.0,0.0,0.0,0.0,4.1794,0.0,4.3542,4.5139,4.7111,4.7357,4.7571,4.7968,4.8001,4.8001,4.8001,4.8001,4.8001,4.8001,4.8001,4.8001,4.8001,4.8001,4.8001,4.8001,4.8001,4.8001,4.8001,4.8147,4.8212,4.8195,4.8122,4.7784,4.7266,4.6831,4.6012,4.5059,4.4825,4.4424,4.396,0.0,0.0,0.0,0.0,0.0,0.0,0.0,0.0,2.6499,2.6499,2.6499,0.0,0.0,0.0,0.0,0.0,0.0,0.0,0.0,0.0,0.0,0.0,0.0,0.0,0.0,0.0,2.7162,2.8492,2.8492,2.9205,3.0598,3.0598,3.0598,3.0598,0.0,0.0,0.0,0.0,0.0,0.0,0.0,0.0,0.0,0.0,0.0,0.0,0.0,0.0,0.0,0.0,0.0,0.0,0.0,0.0,3.3309,0.0,3.3309,3.3309,3.3309,3.3309,3.3309,3.3309,3.3309,3.3309,0.0,0.0,3.3309,3.3309,3.3309,3.3309,3.3309,3.3309,3.3309,3.3309,3.4494,0.0,3.5394,0.0,0.0,0.0,0.0,4.1588,4.1604,4.3239,4.5029,4.6777,4.7227,4.7571,4.7968,4.8001,4.8001,4.8001,4.8001,4.8001,4.8001,4.8001,4.8001,4.8001,4.8001,4.8001,4.8001,4.8001,4.8001,4.8033,4.8498,4.8702,4.8683,4.8426,4.828,4.8126,4.6595,4.5998,4.5896,4.5173,4.4882,4.4882,0.0,0.0,0.0,0.0,0.0,0.0,0.0,0.0,2.6658,2.7129,2.6782,0.0,0.0,0.0,0.0,0.0,0.0,0.0,0.0,0.0,0.0,0.0,0.0,0.0,0.0,0.0,2.6939,2.7835,2.8266,2.8985,2.9931,3.0387,3.0598,3.0598,3.0598,3.0598,0.0,0.0,0.0,0.0,0.0,0.0,0.0,0.0,0.0,0.0,0.0,0.0,0.0,0.0,0.0,0.0,0.0,0.0,0.0,3.3309,3.3309,3.3309,3.3309,3.3309,3.3309,3.3309,3.3309,3.3309,3.3309,3.3309,3.3309,3.3309,3.3309,3.3309,3.3309,3.3309,3.3309,3.3309,3.4478,0.0,0.0,0.0,0.0,0.0,4.096,4.2334,0.0,0.0,4.4982,4.6776,4.701,4.7324,4.7984,4.8001,4.8001,4.8001,4.8001,4.8001,4.8001,4.8001,4.8001,4.8001,4.8001,4.8179,4.8467,4.8467,4.8639,4.8981,4.9118,4.8889,4.8413,4.8323,4.7665,4.6675,4.6197,4.5702,4.5207,4.4995,4.491,4.491,0.0,0.0,0.0,0.0,0.0,0.0,0.0,0.0,2.6658,2.7061,0.0,0.0,0.0,0.0,0.0,0.0,0.0,0.0,0.0,0.0,0.0,0.0,0.0,0.0,0.0,2.6465,2.685,2.7517,2.8182,2.8889,2.9623,3.0282,3.0598,3.0598,3.0598,3.0598,0.0,0.0,0.0,0.0,0.0,0.0,3.0866,0.0,0.0,0.0,0.0,0.0,0.0,0.0,0.0,0.0,0.0,0.0,0.0,0.0,3.3309,3.3309,0.0,3.3309,3.3309,3.3309,3.3309,0.0,0.0,3.3309,3.3309,3.3309,3.3309,3.3309,3.3309,3.3309,3.3309,3.3309,3.4478,0.0,0.0,0.0,0.0,4.0146,0.0,0.0,0.0,4.4046,4.4728,4.5965,4.6328,4.6808,4.7554,4.7587,4.7719,4.7984,4.8001,4.8001,4.8001,4.8179,4.826,4.8276,4.8435,4.8671,4.8948,4.8694,4.871,4.8975,4.886,4.8541,0.0,4.8,4.7382,4.6485,4.6192,4.5795,4.5407,4.5407,4.5407,4.5407,0.0,0.0,0.0,0.0,0.0,0.0,0.0,0.0,0.0,0.0,0.0,0.0,0.0,0.0,0.0,0.0,0.0,0.0,0.0,0.0,0.0,0.0,0.0,0.0,0.0,2.6465,2.6871,2.7517,2.8182,2.8889,2.9623,3.0251,3.0538,3.0598,3.0598,3.0598,0.0,0.0,0.0,0.0,0.0,0.0,0.0,0.0,0.0,0.0,0.0,0.0,0.0,0.0,0.0,0.0,0.0,0.0,0.0,0.0,0.0,0.0,0.0,3.3309,0.0,0.0,0.0,0.0,0.0,3.3309,0.0,3.3309,3.3309,3.3309,3.3309,3.3309,3.3309,3.3309,3.4478,0.0,0.0,3.7441,0.0,0.0,4.2114,0.0,4.3096,4.375,4.43,4.4688,4.5317,4.603,4.6775,4.6825,4.7139,4.7819,4.7884,4.795,4.8066,4.8467,4.8668,4.8697,4.9124,4.93,4.9261,4.8577,4.8282,4.8305,4.7997,4.7815,4.7738,4.7482,4.7362,4.7239,4.6477,4.6196,4.6196,4.6196,4.6196,4.6196,0.0,0.0,0.0,0.0,0.0,0.0,0.0,0.0,0.0,0.0,0.0,0.0,0.0,0.0,0.0,0.0,0.0,0.0,0.0,0.0,0.0,0.0,0.0,0.0,0.0,2.6973,2.7351,2.7517,2.8182,2.8889,2.9591,2.9747,3.0099,3.0598,3.0598,3.0598,3.0598,0.0,0.0,0.0,0.0,0.0,0.0,0.0,0.0,0.0,3.2422,3.2586,0.0,0.0,0.0,0.0,0.0,0.0,0.0,0.0,3.3309,3.3309,3.3309,0.0,3.3309,3.3309,3.3309,3.3309,0.0,3.3309,3.3309,3.3309,0.0,3.3309,3.3309,3.3309,3.3309,3.3309,0.0,0.0,3.568,0.0,0.0,4.1243,4.1865,4.249,4.3413,4.3657,4.4001,4.4638,4.4854,4.5268,4.6013,4.6046,4.6129,4.6311,4.6669,4.739,4.8513,4.8639,4.8602,4.8405,4.8523,4.8432,4.8176,4.8003,4.811,4.8451,4.8382,4.8032,4.7472,4.7442,4.7046,4.646,4.6267,4.6196,4.6196,4.6196,4.6196,4.6196,0.0,0.0,0.0,0.0,0.0,0.0,0.0,0.0,0.0,0.0,0.0,0.0,0.0,0.0,0.0,0.0,0.0,0.0,0.0,0.0,0.0,0.0,0.0,0.0,2.6374,2.7095,2.7517,2.7517,2.8505,2.9219,2.9623,2.9901,3.0251,3.0598,3.0598,3.0598,3.0598,3.0598,3.0598,0.0,3.1321,0.0,0.0,0.0,0.0,0.0,3.2753,3.2765,0.0,3.3145,3.3309,3.3309,0.0,0.0,0.0,0.0,3.3309,3.3309,3.3309,3.3309,3.3309,3.3309,3.3309,3.3309,3.3309,0.0,0.0,0.0,0.0,0.0,0.0,0.0,0.0,0.0,3.4706,0.0,0.0,0.0,4.0438,4.1319,4.2178,4.2957,0.0,4.3598,4.3764,4.4175,4.4208,4.4522,4.5251,4.5284,4.5433,4.5781,4.6274,4.6885,4.7692,4.8099,4.8218,4.8065,4.8307,4.832,4.8154,4.777,4.7762,4.7977,4.76,4.7214,4.6853,4.6853,4.6582,4.6196,4.6196,4.6196,4.6196,4.6196,4.6196,4.6196,0.0,0.0,0.0,0.0,0.0,0.0,0.0,0.0,0.0,0.0,0.0,0.0,0.0,0.0,0.0,0.0,0.0,0.0,0.0,0.0,0.0,0.0,0.0,2.6555,2.6396,2.733,2.7835,2.7835,2.9012,2.9654,2.9747,3.0221,3.0507,3.0598,3.0598,3.0598,3.0598,3.0598,3.0598,0.0,3.1537,0.0,0.0,0.0,0.0,0.0,0.0,0.0,0.0,3.3224,3.3346,3.3346,3.3346,0.0,0.0,0.0,0.0,0.0,3.3346,3.3398,3.3398,3.3372,3.3398,3.3424,3.3424,0.0,0.0,0.0,0.0,0.0,0.0,3.3949,0.0,0.0,0.0,0.0,3.8564,3.9926,4.0861,4.1215,4.2423,0.0,4.3416,4.3532,4.3598,4.3598,4.3598,4.3863,4.4489,4.4522,4.4835,4.5557,4.6012,4.6309,4.6367,4.7316,4.7798,4.7731,4.8146,4.831,4.8205,4.7538,4.7222,4.7187,4.6495,4.6196,4.6196,4.6196,4.6196,4.6196,4.6196,4.6196,4.6196,4.6196,4.6196,4.6214,0.0,0.0,0.0,0.0,0.0,0.0,0.0,0.0,0.0,0.0,0.0,0.0,0.0,0.0,0.0,0.0,0.0,0.0,0.0,0.0,0.0,0.0,2.7451,2.7317,2.7284,2.8583,2.9265,2.9265,2.9484,2.9901,3.0447,2.9962,3.0068,3.0598,3.0598,3.0598,3.0598,3.0598,3.0598,3.0687,3.1537,0.0,0.0,0.0,0.0,0.0,0.0,0.0,0.0,3.3694,3.3658,3.3658,3.3658,0.0,0.0,0.0,0.0,0.0,3.3658,3.3797,3.3924,3.371,3.3797,3.3975,3.3975,0.0,0.0,0.0,0.0,0.0,0.0,3.4075,3.4075,0.0,0.0,3.7114,0.0,0.0,3.9808,4.0464,0.0,4.1976,4.2605,4.3234,4.3598,4.3598,4.3598,4.3648,4.3747,4.3764,4.4005,4.4514,4.4936,4.535,4.5743,4.7128,4.7699,4.7454,4.753,4.7222,4.6565,4.6442,4.6372,4.6372,4.6249,4.6196,4.6196,4.6196,4.6196,4.6196,4.6196,4.6196,4.6196,4.6196,4.6196,4.6221,0.0,0.0,0.0,0.0,0.0,0.0,0.0,0.0,0.0,0.0,0.0,0.0,0.0,0.0,0.0,0.0,0.0,0.0,0.0,0.0,0.0,2.8648,2.8648,2.8293,2.7517,2.8871,2.9591,2.9591,2.9962,3.0282,3.0598,3.0282,3.0282,3.0598,3.0598,3.0598,3.0598,3.0598,3.0747,3.1043,0.0,0.0,0.0,0.0,0.0,0.0,0.0,0.0,0.0,0.0,3.3924,3.3924,3.3924,0.0,0.0,0.0,0.0,0.0,3.3924,3.4126,3.43,3.4151,3.4126,3.4101,3.4101,0.0,0.0,0.0,0.0,0.0,0.0,0.0,3.4783,3.557,0.0,3.7262,3.8842,3.9549,4.0028,0.0,4.0994,4.1707,4.2423,4.2804,4.3168,4.3565,4.3598,4.3598,4.3598,4.3848,4.408,4.4293,4.4944,4.5381,4.5606,4.6499,4.6854,4.6765,4.6765,4.6547,4.6196,4.6196,4.6196,4.6196,4.6196,4.6196,4.6196,4.6196,4.6196,4.6196,4.6196,4.6196,4.6221,4.635,4.644,4.6471,0.0,0.0,0.0,0.0,0.0,0.0,0.0,0.0,0.0,0.0,0.0,0.0,0.0,0.0,0.0,0.0,0.0,0.0,0.0,0.0,2.9685,2.9359,2.9654,2.9265,2.8032,2.9188,2.9839,2.9839,3.0357,3.0598,3.0598,3.0598,3.0598,3.0598,3.0598,3.0598,3.0598,3.0732,3.0955,3.1336,0.0,0.0,0.0,0.0,0.0,0.0,0.0,0.0,0.0,0.0,0.0,0.0,0.0,0.0,0.0,3.4176,3.4201,3.4201,3.4201,3.4399,3.4594,3.4594,3.4448,3.43,0.0,0.0,0.0,0.0,0.0,0.0,0.0,3.4763,0.0,3.687,3.6924,3.7383,3.9073,3.9796,4.0144,4.0144,4.0746,4.1392,4.1955,4.2319,4.2779,4.346,4.3676,4.3818,4.3889,4.4265,4.4474,4.4586,4.5266,4.5649,4.5735,4.6048,4.6196,4.6196,4.6196,4.6196,4.6196,4.6196,4.6196,4.6196,4.6196,4.6196,4.6196,4.6196,4.6196,4.6214,4.627,4.6343,4.6416,4.6613,4.6731,4.6824,0.0,0.0,0.0,0.0,0.0,0.0,0.0,0.0,0.0,0.0,0.0,0.0,0.0,0.0,0.0,0.0,0.0,0.0,0.0,0.0,2.9948,2.862,2.9825,3.019,2.9453,3.016,3.0538,3.0538,3.0568,3.0598,3.0598,3.0598,3.0598,3.0598,3.0598,3.0598,3.0642,3.1073,3.1263,3.1365,3.2216,0.0,0.0,0.0,0.0,0.0,0.0,0.0,0.0,0.0,0.0,0.0,0.0,0.0,3.4151,3.4399,3.4472,3.4472,3.4472,3.4667,3.4875,3.4875,3.4875,3.4851,3.4851,3.4875,0.0,3.4875,0.0,0.0,0.0,3.4899,3.5379,3.687,3.7077,3.759,3.91,3.9348,3.9381,3.9381,4.0028,4.0492,4.0558,4.174,4.2708,4.3194,4.3849,4.4418,4.4801,4.4828,4.5045,4.5503,4.5555,4.5778,4.6147,4.6189,4.6196,4.6196,4.6196,4.6196,4.6196,4.6196,4.6196,4.6196,4.6196,4.6196,4.6196,4.6196,4.6196,4.6221,4.6471,4.6708,4.6934,4.6957,4.7075,4.7258,0.0,0.0,0.0,0.0,0.0,0.0,0.0,0.0,0.0,0.0,0.0,0.0,0.0,0.0,0.0,0.0,0.0,0.0,0.0,0.0,3.0342,2.9825,3.0312,3.0477,3.0221,3.0477,3.0598,3.0598,3.0598,3.0598,3.0598,3.0598,3.0598,3.0598,3.0598,3.0747,3.1043,3.1219,3.161,3.2132,3.2449,3.2953,0.0,0.0,0.0,0.0,0.0,0.0,0.0,0.0,3.4756,3.4756,3.4756,3.4667,3.4618,3.4715,3.4756,3.4756,3.4756,3.4977,3.5265,3.551,3.5397,0.0,0.0,3.5195,3.5195,3.5195,3.5476,0.0,0.0,0.0,3.5872,3.6929,3.727,3.7845,3.911,3.9299,3.9299,3.9299,3.9761,4.0254,4.0662,4.1422,4.2158,4.2792,4.3098,4.3304,4.3473,4.3752,4.3983,4.4152,4.4913,4.5373,4.5495,4.5968,4.6196,4.6196,4.6196,4.6196,4.6196,4.6196,4.6196,4.6196,4.6392,4.6447,4.6447,4.6631,4.6702,4.6702,4.6819,4.6911,4.702,4.7138,4.7214,4.7323,0.0,0.0,0.0,0.0,0.0,0.0,0.0,0.0,0.0,0.0,0.0,0.0,0.0,0.0,0.0,0.0,0.0,0.0,0.0,3.0598,3.0598,3.0598,3.0598,3.0598,3.0598,3.0598,3.0598,3.0598,3.0598,3.0598,3.0598,3.0598,3.0598,3.0598,3.0747,3.0984,3.1322,3.1581,3.2089,3.2749,3.29,3.3351,0.0,0.0,0.0,0.0,0.0,0.0,0.0,0.0,3.4899,3.4899,3.4899,3.4899,3.4949,3.5181,3.5177,3.5121,3.5338,3.5552,3.5782,3.5927,0.0,0.0,3.5745,3.5583,3.5447,3.5543,3.5661,3.5749,3.5761,0.0,0.0,0.0,3.7646,3.8175,3.932,3.9582,3.9609,3.9511,3.9833,4.0231,4.0696,4.1206,4.1766,4.2423,4.268,4.2894,4.3003,4.3294,4.3482,4.3482,4.4288,4.4711,4.4711,4.5238,4.546,4.546,4.546,4.5723,4.6196,4.6196,4.6196,4.6196,4.6471,4.659,4.6613,4.6888,4.7025,4.7093,4.7093,4.7138,4.7245,4.7381,4.7446,4.745,0.0,0.0,0.0,0.0,0.0,0.0,0.0,0.0,0.0,0.0,0.0,0.0,0.0,0.0,0.0,0.0,0.0,0.0,0.0,3.0598,3.0598,3.0598,3.0598,3.0598,3.0598,3.0598,3.0598,3.0598,3.0598,3.0598,3.0598,3.0598,3.0598,3.0612,3.1073,3.1307,3.1365,3.2244,3.2761,3.3055,3.3523,3.4025,3.4497,0.0,0.0,0.0,0.0,0.0,0.0,0.0,3.4899,3.4899,3.4899,3.4899,3.5048,3.5794,3.5726,3.5587,3.6316,3.6501,3.6409,3.6007,0.0,0.0,3.6512,3.5954,3.5515,3.5859,3.5655,3.5627,3.636,3.5915,0.0,3.7888,3.8213,3.8601,3.9716,4.0187,4.0286,3.9935,4.0187,4.04,4.04,4.1058,4.1677,4.215,4.2878,4.3464,4.3845,4.3869,4.3869,4.3869,4.3886,4.3886,4.3886,4.3904,4.3904,4.3904,4.3904,4.4711,4.6179,4.6179,4.6179,4.6204,4.6477,4.6596,4.6602,4.687,4.7102,4.7284,4.7284,4.7432,4.7681,4.7681,4.7681,4.7681,0.0,0.0,0.0,0.0,0.0,0.0,0.0,0.0,0.0,0.0,0.0,0.0,0.0,0.0,0.0,0.0,0.0,0.0,0.0,3.0598,3.0598,3.0598,3.0598,3.0598,3.0598,3.0598,3.0598,3.0598,3.0598,3.0598,3.0598,3.0598,3.0598,3.0612,0.0,3.1452,3.1766,3.2544,3.3124,3.3523,3.3848,3.4201,3.4497,0.0,0.0,0.0,0.0,0.0,0.0,0.0,0.0,0.0,3.4899,3.5263,3.5727,3.5943,3.6281,3.6638,3.6862,3.6898,3.6893,3.706,0.0,0.0,0.0,3.6877,0.0,0.0,3.6595,3.6233,3.6461,3.6509,3.6717,3.7285,3.8042,3.8769,3.9401,3.9995,4.0351,4.0245,4.0604,4.0819,4.0819,4.1261,4.1626,4.178,4.199,4.2153,4.2289,4.2289,4.2289,4.2289,4.2833,4.3131,4.3131,4.3641,4.3904,4.3904,4.4084,4.433,4.4589,4.4771,4.4858,4.4882,4.5258,4.5398,4.5437,4.569,4.5833,4.5895,4.5895,4.5936,4.6015,4.6015,4.6015,4.6015,0.0,0.0,0.0,0.0,0.0,0.0,0.0,0.0,0.0,0.0,2.898,2.9563,0.0,0.0,0.0,0.0,0.0,0.0,0.0,0.0,3.0598,3.0598,3.0598,3.0598,3.0598,3.0598,3.0598,3.0598,3.0598,3.0598,3.0598,3.0598,3.0687,3.0896,0.0,3.1949,3.2379,3.3108,3.3662,3.4025,3.4201,3.4423,3.4667,0.0,0.0,0.0,0.0,0.0,0.0,0.0,0.0,0.0,3.4899,3.5413,3.6033,3.6171,3.6616,3.7088,3.7249,3.7268,3.7259,3.7329,3.715,3.7053,3.7499,0.0,0.0,0.0,3.6898,3.6544,3.667,3.6751,3.6934,3.737,3.8278,3.9081,3.9473,4.0306,4.0825,4.0659,4.0984,4.1249,4.1249,4.1453,4.1604,4.1604,4.1604,4.1604,4.1604,4.1604,4.1604,4.1604,4.2078,4.2324,4.2324,4.2853,4.311,4.311,4.339,4.3434,4.3302,4.4072,4.4374,4.4306,4.4736,4.497,4.507,4.5231,4.5291,4.5291,4.5291,4.5291,4.5291,4.5291,4.5291,4.5291,0.0,0.0,0.0,0.0,0.0,0.0,0.0,0.0,0.0,0.0,2.9699,3.0221,0.0,0.0,0.0,0.0,0.0,0.0,0.0,0.0,3.0598,3.0598,3.0598,3.0598,3.0598,3.0598,3.0598,3.0598,3.0598,3.0598,3.0598,0.0,3.0866,3.1365,0.0,3.2555,3.3055,3.3815,3.425,3.4472,3.4521,3.4667,3.4899,3.4899,0.0,0.0,0.0,0.0,0.0,0.0,0.0,0.0,3.4899,3.5446,3.6165,3.6477,3.684,3.7234,3.7597,3.7642,3.7494,3.7149,3.7324,3.7563,3.7563,3.7295,3.7025,3.7055,0.0,3.6647,3.693,3.6748,3.6855,3.7842,3.8673,3.9322,3.9715,4.0779,4.1393,4.1013,4.1356,4.1626,4.1626,4.1604,4.1626,4.167,4.1648,4.1648,4.167,4.1648,4.1626,4.1626,4.1604,4.1604,4.1626,4.1805,4.1895,4.1956,4.2187,4.2308,4.2361,4.3771,4.4341,4.4205,4.4545,4.4874,4.5073,4.5073,4.5073,4.5073,4.5073,4.5073,4.5073,4.5073,4.5073,4.5073,0.0,0.0,0.0,0.0,0.0,0.0,0.0,0.0,0.0,0.0,0.0,0.0,0.0,0.0,0.0,0.0,0.0,0.0,0.0,0.0,3.0598,3.0598,3.0598,3.0598,3.0598,3.0702,3.0702,3.0598,3.0598,3.0598,0.0,0.0,0.0,3.1637,0.0,3.2555,3.3066,3.4018,3.4325,3.4226,3.4643,3.4851,3.4899,3.4899,3.4899,0.0,0.0,0.0,0.0,0.0,0.0,0.0,3.4899,3.5794,3.687,3.6954,3.7635,3.8349,3.8439,3.8037,3.759,3.748,3.7426,3.7371,3.7371,3.7306,3.7281,3.7433,3.7167,3.6911,3.6987,3.6948,3.6981,3.7198,3.7865,3.843,3.869,4.0005,4.0944,4.0838,4.1431,4.1849,4.1849,4.1697,4.1758,4.2121,4.1956,4.1934,4.2142,4.1956,4.1849,4.1849,4.1675,4.1692,4.1831,4.1892,4.2019,4.2225,4.243,4.245,4.2325,4.281,4.3075,4.3213,4.3293,4.3351,4.3407,4.3407,4.3407,4.3407,4.3407,4.3407,4.3407,4.3407,4.3407,4.3407,0.0,0.0,0.0,0.0,0.0,0.0,0.0,0.0,0.0,0.0,0.0,0.0,0.0,0.0,0.0,0.0,0.0,0.0,0.0,0.0,0.0,0.0,3.0598,3.0642,3.0702,3.0702,3.0702,3.0702,3.0702,0.0,0.0,0.0,0.0,3.2173,0.0,3.3287,3.3774,3.4407,3.4618,3.4497,3.4804,3.4899,3.4899,3.4899,3.4899,3.4899,3.4899,0.0,0.0,0.0,0.0,0.0,0.0,0.0,3.6597,3.6778,3.7597,3.8424,3.8227,3.802,0.0,3.751,0.0,3.7447,3.7447,3.7447,3.7479,3.7596,3.7271,3.7007,3.7007,3.7085,3.7143,3.7143,3.7839,3.8431,3.8528,3.9595,4.0357,4.0375,4.0712,4.1085,4.1478,4.141,4.1629,4.2251,4.2166,4.2145,4.2287,4.2184,4.2082,4.2082,4.1977,4.1995,4.2082,4.2187,4.231,4.245,4.265,4.2689,4.2591,4.2609,4.2709,4.2901,4.2901,4.2901,4.2901,4.2901,4.2901,4.2901,4.2901,4.2901,4.2901,4.2901,4.2901,4.2901,0.0,0.0,0.0,0.0,0.0,0.0,0.0,0.0,0.0,0.0,0.0,0.0,0.0,0.0,0.0,0.0,0.0,0.0,0.0,0.0,0.0,0.0,3.0642,3.0702,3.0791,3.0762,0.0,0.0,0.0,0.0,0.0,0.0,0.0,3.2841,0.0,3.4045,3.4521,3.4804,3.4875,3.4828,3.4875,3.4899,3.4899,3.4899,3.4899,3.4899,3.4899,3.4899,3.4899,3.4899,0.0,0.0,0.0,0.0,3.6066,3.6329,3.7168,3.7952,3.7757,3.7927,3.8018,3.7491,3.7503,0.0,3.7613,3.7595,3.7595,3.7595,3.7316,3.7066,3.7105,3.7239,3.7353,3.7353,3.8,3.8522,3.8559,3.9255,3.9753,3.9736,3.9985,4.0415,4.1098,4.1254,4.1614,4.2356,4.2369,4.2369,4.2409,4.2369,4.2348,4.2348,4.2308,4.2308,4.2348,4.253,4.2629,4.265,4.2824,4.2901,4.2882,4.2728,4.2747,4.2901,4.2901,4.2901,4.2901,4.2901,4.2901,4.2901,4.2901,4.2901,4.2901,4.2901,4.2901,4.2901,0.0,0.0,0.0,0.0,0.0,0.0,0.0,0.0,0.0,0.0,3.0866,3.0791,0.0,0.0,0.0,0.0,0.0,0.0,0.0,0.0,0.0,0.0,3.0762,3.0791,3.0791,3.1058,3.1146,0.0,0.0,0.0,0.0,0.0,0.0,3.3633,0.0,0.0,3.4521,3.4804,3.478,3.457,3.4804,3.4899,3.4899,3.4899,0.0,3.4899,3.4899,3.4899,3.4899,3.4899,3.4899,0.0,0.0,0.0,3.5992,3.6066,3.6602,3.7302,3.7952,0.0,3.8236,0.0,3.7703,3.7793,0.0,0.0,3.7595,0.0,3.7428,3.7316,3.7503,3.754,3.7558,3.7558,3.7684,3.781,3.7972,3.869,3.9192,3.9139,4.0359,4.1239,4.1347,4.1837,4.2324,4.2787,4.265,4.2649,4.2824,4.265,4.257,4.257,4.2389,4.2389,4.257,4.2589,4.2689,4.2862,4.2882,4.2901,4.2901,4.2863,4.2863,4.2901,4.2901,4.2901,4.2901,4.2901,4.2901,4.2901,4.2901,4.2901,4.2901,4.2901,4.2901,4.2901,0.0,0.0,0.0,0.0,0.0,0.0,0.0,0.0,0.0,0.0,0.0,3.0984,0.0,0.0,0.0,0.0,0.0,0.0,0.0,0.0,0.0,0.0,0.0,3.0881,3.1087,3.1146,0.0,0.0,0.0,0.0,0.0,3.3119,3.3423,0.0,0.0,0.0,0.0,3.4851,3.4828,3.4715,3.4851,3.4899,0.0,0.0,0.0,0.0,0.0,0.0,3.4899,3.4899,3.4899,3.4899,3.4899,0.0,0.0,0.0,3.6512,3.7227,3.7945,3.7959,3.7761,0.0,3.7739,3.7899,3.7934,3.7864,3.7793,3.7898,3.7793,3.7631,3.7595,3.7685,3.7757,3.7757,3.7863,3.7969,3.8073,3.8362,3.8578,3.856,3.9571,4.0456,4.0853,4.1535,4.2222,4.2846,4.2824,4.2805,4.29,4.2824,4.2767,4.2767,4.2689,4.2689,4.2767,4.2767,4.2824,4.2901,4.2901,4.2901,4.2901,4.2901,4.2901,4.2901,4.2901,4.2901,4.2901,4.2901,4.2901,4.2901,4.2901,4.2901,4.2901,4.2901,4.2901,4.2901,0.0,0.0,0.0,0.0,0.0,0.0,0.0,0.0,0.0,0.0,0.0,0.0,0.0,0.0,0.0,0.0,0.0,0.0,0.0,0.0,0.0,0.0,0.0,0.0,3.1278,3.138,0.0,0.0,0.0,0.0,3.3894,3.4168,3.43,0.0,3.4715,3.4899,0.0,0.0,0.0,0.0,0.0,0.0,0.0,0.0,0.0,0.0,0.0,0.0,0.0,0.0,0.0,3.4899,3.4899,3.4899,0.0,0.0,0.0,3.7212,0.0,0.0,3.7658,3.7684,3.7828,3.8003,0.0,0.0,3.7969,0.0,3.8038,3.7864,3.7775,3.7881,3.7969,3.7969,3.8089,3.8209,3.8209,3.8209,3.8281,3.848,3.9188,3.9985,4.0727,4.1524,4.2248,4.2865,4.2901,4.2901,4.2901,4.2901,4.2901,4.2901,4.2901,4.2901,4.2901,4.2901,4.2901,4.2901,4.2901,4.2901,4.2901,4.2901,4.2901,4.2901,4.2901,4.2901,4.2901,4.2901,4.2901,4.2901,4.2901,4.2901,4.2901,4.2901,4.2901,4.2901,0.0,0.0,0.0,0.0,0.0,0.0,0.0,0.0,0.0,0.0,0.0,0.0,0.0,0.0,3.1014,3.0821,0.0,0.0,0.0,0.0,0.0,0.0,0.0,0.0,0.0,0.0,0.0,0.0,0.0,0.0,3.4101,3.4618,3.4875,3.4875,3.4899,3.4899,3.4899,0.0,0.0,0.0,0.0,0.0,0.0,0.0,0.0,0.0,0.0,0.0,0.0,0.0,0.0,0.0,0.0,0.0,3.4899,0.0,0.0,0.0,0.0,3.7885,0.0,3.8008,3.8056,3.8141,0.0,0.0,3.7969,3.8158,3.8038,3.7969,3.8141,3.8175,3.8192,3.8192,3.8192,3.8209,3.8209,3.8209,3.848,3.9242,4.0003,4.0764,4.156,4.2375,4.2865,4.2901,4.2901,4.2901,4.2901,4.2901,4.2901,4.2901,4.2901,4.2901,4.2901,4.2901,4.2901,4.2901,4.2901,4.2901,4.2901,4.2901,4.2901,4.2901,4.2901,4.2901,4.2901,4.2901,4.2901,4.2901,4.2901,4.2901,4.2901,4.2901,4.2901,4.2901,0.0,0.0,0.0,0.0,0.0,0.0,0.0,0.0,0.0,0.0,0.0,0.0,0.0,3.1176,3.1205,3.1146,3.1219,0.0,0.0,0.0,0.0,0.0,0.0,0.0,0.0,0.0,0.0,0.0,0.0,3.4275,3.4618,3.4811,3.4899,3.4899,3.4899,3.4899,3.4899,3.4899,0.0,0.0,0.0,0.0,0.0,0.0,0.0,0.0,0.0,0.0,0.0,0.0,0.0,0.0,0.0,0.0,0.0,0.0,0.0,0.0,0.0,0.0,0.0,3.7721,3.7864,3.8021,3.809,3.8089,3.8106,3.8192,3.814,3.8106,3.8192,3.8209,3.8209,3.8209,3.8209,3.8209,3.8209,3.8209,3.8499,3.9297,4.0057,4.0818,4.1614,4.2429,4.2901,4.2901,4.2901,4.2901,4.2901,4.2901,4.2901,4.2901,4.2901,4.2901,4.2901,4.2901,4.2901,4.2901,4.2901,4.2901,4.2901,4.2901,4.2901,4.2901,4.2901,4.2901,4.2901,4.2901,4.2901,4.2901,4.2901,4.2901,4.292,4.3087,4.316,4.3178,0.0,0.0,0.0,0.0,0.0,0.0,0.0,0.0,0.0,0.0,0.0,0.0,0.0,0.0,3.1322,3.1351,3.138,3.1496,3.1768,3.171,0.0,0.0,0.0,0.0,0.0,0.0,0.0,0.0,0.0,0.0,0.0,3.4899,3.4899,3.4899,3.4899,3.4899,0.0,0.0,0.0,3.4899,0.0,0.0,3.4899,0.0,0.0,0.0,0.0,0.0,0.0,0.0,0.0,0.0,0.0,0.0,0.0,0.0,0.0,0.0,3.6326,0.0,0.0,0.0,3.7864,3.8056,3.8175,3.8209,3.8209,3.8209,3.8209,3.8209,3.8209,3.8209,3.8209,3.8209,3.8209,3.8209,3.8209,3.8209,3.859,3.9641,4.0202,4.0908,4.2013,4.2592,4.2901,4.2901,4.2901,4.2901,4.2901,4.2901,4.2901,4.2901,4.2901,4.2901,4.2901,4.2901,4.2901,4.2901,4.2901,4.2901,4.2901,4.2901,4.2957,4.3032,4.2939,4.2901,4.2901,4.2901,4.2957,4.3032,4.3032,4.3105,4.3178,4.3373,4.3442,4.346,0.0,0.0,0.0,0.0,0.0,0.0,0.0,0.0,0.0,0.0,0.0,0.0,0.0,0.0,0.0,3.1511,3.1511,3.1754,3.2342,3.2398,0.0,0.0,0.0,0.0,0.0,0.0,0.0,0.0,0.0,0.0,0.0,0.0,3.4899,3.4899,3.4899,3.4899,3.4899,0.0,3.4899,3.4899,0.0,3.4899,3.4899,0.0,0.0,0.0,3.4899,3.4899,0.0,3.4923,0.0,0.0,0.0,0.0,0.0,0.0,0.0,0.0,0.0,0.0,0.0,0.0,3.8056,3.8192,3.8209,3.8209,3.8209,3.8209,3.8209,3.8209,3.8209,3.8209,3.8209,3.8209,3.8209,3.8209,3.8209,3.8227,3.879,4.0311,4.051,4.1162,4.2756,4.2901,4.2901,4.2901,4.2901,4.2901,4.2901,4.2901,4.2901,4.2901,4.2901,4.2901,4.2901,4.2901,4.2901,4.2901,4.2901,4.2901,4.2901,4.292,4.3069,4.3303,4.305,4.292,4.292,4.2919,4.3087,4.3303,4.3303,4.3477,4.3695,4.3712,4.3712,4.3712,0.0,0.0,0.0,0.0,0.0,0.0,0.0,0.0,0.0,0.0,0.0,0.0,0.0,0.0,3.1467,3.1511,3.1511,3.1553,3.1754,3.2148,3.2465,3.2614,3.3413,3.3841,0.0,0.0,0.0,0.0,0.0,0.0,0.0,0.0,0.0,0.0,3.4899,3.4899,3.4899,3.4899,0.0,3.4899,3.4899,3.4899,0.0,0.0,0.0,0.0,0.0,3.5105,3.5198,0.0,3.5245,3.5314,0.0,0.0,0.0,0.0,0.0,0.0,3.6333,0.0,0.0,0.0,0.0,0.0,3.8175,3.8209,3.8209,3.8209,3.8209,3.8209,3.8209,3.8209,3.8209,3.8209,3.8209,3.8209,3.8209,3.8716,3.9423,4.0383,4.0999,4.1778,4.281,4.2901,4.2901,4.2901,4.2901,4.2901,4.2901,4.2901,4.2901,4.2901,4.2901,4.2901,4.2901,4.2901,4.2901,4.2901,4.3105,4.3178,4.3214,4.339,4.3511,4.3579,4.3511,4.3477,4.346,4.3267,4.3355,4.3595,4.3595,4.3629,4.3712,4.3921,4.3983,4.4033,0.0,0.0,0.0,0.0,0.0,0.0,0.0,0.0,0.0,0.0,0.0,0.0,0.0,0.0,0.0,3.1853,3.2167,3.2503,3.2977,3.3627,3.4083,3.434,3.5001,3.5217,3.4881,0.0,0.0,0.0,0.0,0.0,0.0,0.0,0.0,0.0,0.0,0.0,0.0,0.0,0.0,0.0,3.4899,0.0,0.0,3.497,3.5018,0.0,0.0,0.0,3.5291,3.5245,3.5314,0.0,0.0,0.0,0.0,0.0,0.0,0.0,0.0,0.0,0.0,0.0,0.0,0.0,3.8175,3.8209,3.8209,3.8209,3.8209,3.8209,3.8209,3.8209,3.8209,3.8209,3.8209,3.8209,3.8209,3.888,3.9659,4.0401,4.1216,4.2012,4.2829,4.2901,4.2901,4.2901,4.2901,4.2901,4.2901,4.2901,4.2901,4.2901,4.2901,4.2901,4.2901,4.3013,4.3069,4.3087,4.3338,4.3477,4.3477,4.3629,4.3761,4.3857,4.3744,4.3825,4.4017,4.3744,4.3728,4.3857,4.3857,4.3939,4.4048,4.4199,4.4277,4.4292,0.0,0.0,0.0,0.0,0.0,0.0,0.0,0.0,0.0,0.0,0.0,0.0,0.0,0.0,0.0,0.0,3.308,3.393,3.4957,3.5695,3.6358,3.6984,3.7077,3.6787,3.6141,3.6125,0.0,0.0,0.0,0.0,0.0,0.0,0.0,0.0,0.0,0.0,0.0,0.0,0.0,3.4923,3.4899,3.4899,0.0,0.0,3.5105,3.5111,3.5152,3.5222,3.5314,3.5198,3.5228,0.0,0.0,0.0,0.0,0.0,3.662,0.0,0.0,0.0,0.0,0.0,3.8073,0.0,3.8209,3.8209,3.8209,3.8209,3.8209,3.8209,3.8209,3.8209,3.8209,3.8209,3.8209,3.8209,3.8209,3.8952,3.9767,4.042,4.1288,4.2122,4.2828,4.2901,4.2901,4.2901,4.2901,4.2901,4.2901,4.292,4.2939,4.2939,4.2976,4.2995,4.2995,4.3214,4.3338,4.3355,4.3612,4.3744,4.3744,4.3777,4.3921,4.414,4.3889,4.4064,4.4487,4.4229,4.4155,4.4155,4.4155,4.4292,4.4501,4.4501,4.4501,4.4501,0.0,0.0,0.0,0.0,0.0,0.0,0.0,0.0,0.0,0.0,0.0,0.0,0.0,0.0,0.0,0.0,3.3096,3.3802,3.447,3.5133,3.5737,3.6358,3.684,3.7036,3.6903,3.6887,3.682,3.6671,0.0,0.0,0.0,0.0,0.0,0.0,0.0,0.0,0.0,0.0,0.0,3.5041,3.4947,0.0,3.5065,3.5088,3.5175,3.5268,3.5377,3.5475,3.5532,3.5509,3.5509,3.5532,0.0,0.0,0.0,0.0,0.0,0.0,0.0,0.0,0.0,0.0,0.0,0.0,3.8209,3.8209,3.8209,3.8209,3.8209,3.8209,3.8209,3.8209,3.8209,3.8209,3.8209,3.8209,3.8209,3.9405,4.0329,4.0474,4.1778,4.2719,4.2883,4.2901,4.2901,4.2901,4.2901,4.2901,4.2901,4.3087,4.3214,4.3214,4.3425,4.3545,4.3545,4.3595,4.3629,4.3629,4.3889,4.4014,4.403,4.4248,4.4383,4.4426,4.4368,4.4397,4.4501,4.444,4.4426,4.4426,4.4426,4.444,4.4501,4.4501,4.4501,4.4501,0.0,0.0,0.0,0.0,0.0,0.0,0.0,0.0,0.0,0.0,0.0,0.0,0.0,0.0,0.0,0.0,0.0,0.0,0.0,0.0,3.746,3.7824,3.8136,3.8159,3.7852,3.7852,3.7669,3.7303,3.7311,3.7086,0.0,0.0,0.0,0.0,0.0,0.0,0.0,0.0,3.5649,3.5291,3.5152,0.0,3.5198,3.5268,3.5337,3.5423,3.5469,3.5537,3.5549,3.5577,3.56,0.0,0.0,3.5898,3.6287,0.0,3.7054,3.7595,0.0,0.0,0.0,3.8209,0.0,0.0,0.0,3.8209,3.8209,3.8209,3.8209,3.8209,3.8209,3.8209,3.8209,3.8209,3.8553,3.8662,3.8263,3.9532,4.0637,4.1053,4.2158,4.2901,4.2901,4.2901,4.2901,4.2901,4.3032,4.3105,4.3105,4.3355,4.3494,4.3494,4.3629,4.3695,4.3695,4.3825,4.3905,4.3905,4.417,4.4306,4.4306,4.444,4.4501,4.4501,4.4501,4.4501,4.4501,4.4501,4.4501,4.4501,4.4501,4.4501,4.4501,4.4501,4.4501,4.4501,0.0,0.0,0.0,0.0,0.0,0.0,0.0,0.0,0.0,0.0,0.0,0.0,0.0,0.0,0.0,0.0,0.0,0.0,0.0,0.0,0.0,3.9432,3.9475,3.9244,3.8747,3.873,3.843,3.7845,3.7753,3.7636,0.0,0.0,0.0,0.0,0.0,0.0,0.0,0.0,0.0,3.5912,0.0,3.5629,3.5354,3.562,3.5609,3.5492,3.5514,3.5537,3.552,3.5577,3.56,3.5622,3.5711,3.6224,0.0,0.0,0.0,0.0,0.0,0.0,0.0,0.0,0.0,3.8209,0.0,0.0,0.0,3.8209,3.8209,3.8209,0.0,0.0,0.0,3.8209,0.0,0.0,0.0,3.9496,0.0,4.1361,4.2321,4.2901,4.2901,4.2901,4.2901,4.2901,4.3105,4.3249,4.3303,4.3562,4.3712,4.3777,4.3825,4.3841,4.3841,4.4079,4.4185,4.4185,4.4397,4.4501,4.4501,4.4501,4.4501,4.4501,4.4501,4.4501,4.4501,4.4501,4.4501,4.4501,4.4501,4.4501,4.4501,4.4501,4.4501,4.4501,3.1467,3.1511,0.0,0.0,0.0,0.0,0.0,0.0,0.0,0.0,0.0,0.0,0.0,0.0,0.0,0.0,0.0,0.0,3.8237,0.0,0.0,0.0,3.9325,3.9292,3.9236,3.9236,3.9186,3.9103,3.9199,3.8866,0.0,0.0,0.0,0.0,3.7533,0.0,0.0,0.0,3.7624,0.0,3.7557,3.674,0.0,3.6222,3.607,3.5514,3.5571,3.5577,3.5577,0.0,3.56,3.5667,0.0,3.6301,3.643,3.6799,0.0,0.0,0.0,0.0,0.0,0.0,3.8209,0.0,0.0,0.0,3.8209,3.8209,0.0,3.8209,0.0,0.0,0.0,0.0,3.8281,3.8553,3.917,3.9405,3.9804,4.0546,4.1977,4.2901,4.2901,4.2901,4.2901,4.2901,4.292,4.305,4.3285,4.3562,4.3809,4.4045,4.4292,4.4411,4.4411,4.444,4.4454,4.4454,4.4487,4.4501,4.4501,4.4501,4.4501,4.4501,4.4501,4.4501,4.4501,4.4501,4.4501,4.4501,4.4501,4.4501,4.4501,4.4501,4.4501,4.4501,0.0,3.1511,0.0,0.0,0.0,0.0,0.0,0.0,0.0,0.0,0.0,0.0,0.0,0.0,0.0,0.0,0.0,3.8181,0.0,0.0,0.0,0.0,0.0,0.0,3.952,3.952,3.952,3.952,3.9511,0.0,0.0,0.0,0.0,0.0,3.8883,0.0,3.8262,0.0,3.827,0.0,0.0,0.0,0.0,3.7243,3.7158,3.6905,3.6918,3.6918,3.6918,0.0,3.6654,0.0,0.0,0.0,0.0,0.0,0.0,0.0,0.0,0.0,0.0,0.0,0.0,0.0,3.8209,0.0,3.8209,0.0,0.0,0.0,0.0,0.0,0.0,0.0,3.8589,3.8861,0.0,0.0,4.0329,4.1089,4.1796,4.2393,4.2865,4.2901,4.2957,4.3105,4.3267,4.3494,4.3761,4.4033,4.4218,4.4321,4.444,4.4501,4.4501,4.4501,4.4501,4.4501,4.4501,4.4501,4.4501,4.4501,4.4501,4.4501,4.4501,4.4501,4.4501,4.4501,4.4501,4.4501,4.4501,4.4501,4.4501,4.4501,4.4501,4.4501,0.0,0.0,0.0,0.0,0.0,0.0,0.0,0.0,0.0,0.0,0.0,0.0,3.6183,3.7229,0.0,0.0,3.8562,3.8772,0.0,0.0,3.9352,0.0,0.0,0.0,0.0,0.0,3.9703,3.9703,3.9616,3.9616,0.0,0.0,0.0,0.0,0.0,3.9649,3.916,0.0,3.8988,3.8497,3.8497,3.8497,3.8464,3.8058,3.8041,3.8176,3.7973,3.7905,3.7929,3.8054,3.775,3.749,3.8595,3.8383,3.7893,0.0,0.0,0.0,3.8416,0.0,0.0,0.0,0.0,0.0,0.0,0.0,0.0,0.0,0.0,0.0,0.0,0.0,0.0,0.0,0.0,3.8862,0.0,3.9351,0.0,4.127,4.1759,4.2322,4.3051,4.305,4.3105,4.339,4.3595,4.3809,4.4094,4.4292,4.4426,4.4501,4.4501,4.4501,4.4501,4.4501,4.4501,4.4501,4.4501,4.4501,4.4501,4.4501,4.4501,4.4501,4.4501,4.4501,4.4501,4.4501,4.4501,4.4501,4.4501,4.4501,4.4501,4.4501,4.4501,4.4501,3.344,3.2378,0.0,0.0,0.0,0.0,0.0,0.0,0.0,0.0,0.0,0.0,0.0,0.0,0.0,0.0,0.0,3.9272,3.9299,0.0,3.9299,0.0,0.0,3.9501,0.0,0.0,0.0,0.0,0.0,0.0,0.0,0.0,0.0,0.0,4.0037,4.0096,4.0062,4.0062,4.0045,4.0028,4.0028,4.0028,3.9876,0.0,3.8345,3.887,3.8159,3.7905,3.796,3.8402,3.8548,3.8685,3.9567,3.9843,0.0,0.0,0.0,0.0,0.0,3.9032,0.0,3.839,0.0,0.0,0.0,0.0,3.8209,0.0,0.0,0.0,0.0,0.0,0.0,0.0,0.0,0.0,0.0,0.0,3.9713,4.0438,4.1904,4.3069,4.3629,4.3442,4.3408,4.3662,4.3695,4.3809,4.4094,4.4124,4.4229,4.4501,4.4501,4.4501,4.4501,4.4501,4.4501,4.4501,4.4501,4.4501,4.4501,4.4501,4.4501,4.4501,4.4501,4.4501,4.4501,4.4501,4.4501,4.4501,4.4501,4.4501,4.4501,4.4501,4.4501,4.4501,0.0,0.0,0.0,0.0,0.0,0.0,0.0,3.531,0.0,0.0,3.7323,0.0,0.0,3.8898,3.9299,0.0,0.0,3.9299,3.9299,3.9379,0.0,0.0,0.0,3.959,0.0,0.0,0.0,0.0,0.0,0.0,0.0,0.0,0.0,0.0,0.0,4.0096,0.0,0.0,0.0,0.0,0.0,4.0096,4.0045,3.9554,3.952,3.9706,3.9453,3.9368,3.9393,3.953,3.9476,3.9524,4.0594,4.0461,4.0063,4.0848,4.0817,4.042,4.0005,4.0005,4.0057,3.9804,3.9731,3.9731,0.0,0.0,0.0,0.0,0.0,0.0,0.0,0.0,0.0,0.0,0.0,0.0,0.0,0.0,4.1417,4.2015,4.273,4.3232,4.3425,4.3511,4.3679,4.3936,4.3952,4.4094,4.435,4.435,4.4411,4.4501,4.4501,4.4501,4.4501,4.4501,4.4501,4.4501,4.4501,4.4501,4.4501,4.4501,4.4501,4.4501,4.4501,4.4501,4.4501,4.4501,4.4501,4.4501,4.4501,4.4501,4.4501,4.4501,4.4501,4.4501,3.5388,0.0,0.0,0.0,0.0,0.0,0.0,0.0,0.0,0.0,3.8147,0.0,3.8662,0.0,3.9299,0.0,3.9299,3.9325,3.9352,3.9422,0.0,3.9379,3.9537,0.0,0.0,0.0,0.0,0.0,0.0,3.9884,0.0,0.0,0.0,0.0,0.0,4.0096,4.0096,4.0096,4.0096,0.0,0.0,4.0096,0.0,4.0096,4.0096,4.0096,4.0096,4.0096,4.0121,4.0279,4.023,4.028,4.1407,4.126,4.0905,4.1865,4.1759,4.1289,4.0999,4.0926,4.0854,4.0564,4.0492,4.0492,4.0492,0.0,4.0492,0.0,0.0,0.0,0.0,0.0,0.0,0.0,0.0,0.0,0.0,4.1817,4.2472,4.3101,4.333,4.3528,4.3712,4.3793,4.3952,4.4214,4.4229,4.4321,4.4501,4.4501,4.4501,4.4501,4.4501,4.4501,4.4501,4.4501,4.4501,4.4501,4.4501,4.4501,4.4501,4.4501,4.4501,4.4501,4.4501,4.4501,4.4501,4.4501,4.4501,4.4501,4.4501,4.4501,4.4501,4.4501,4.4501,4.4501,0.0,0.0,0.0,0.0,3.6118,0.0,0.0,0.0,3.859,0.0,3.9299,3.9299,3.9299,3.9299,3.9299,3.9299,3.9299,3.9352,3.9475,3.9379,0.0,0.0,3.9501,3.9563,3.9703,0.0,0.0,0.0,0.0,0.0,0.0,0.0,0.0,0.0,4.0096,0.0,4.0096,4.0096,4.0096,4.0096,4.0096,4.0096,4.0096,4.0121,4.0121,4.0121,4.0096,4.0121,4.0196,4.0652,4.0825,4.1019,4.1927,4.2216,4.2318,4.2768,4.2901,4.2719,4.1958,4.1759,4.1578,4.08,4.0619,4.0619,4.0619,4.0619,4.0619,0.0,0.0,0.0,0.0,0.0,0.0,0.0,0.0,0.0,0.0,0.0,4.2876,4.3652,4.3728,4.3921,0.0,4.4262,4.4214,4.4487,4.4501,4.4501,4.4501,4.4501,4.4501,4.4501,4.4501,4.4501,4.4501,4.4501,4.4501,4.4501,4.4501,4.4501,4.4501,4.4501,4.4501,4.4501,4.4501,4.4501,4.4501,4.4501,4.4501,4.4501,4.4515,4.4496,4.4528,4.4496,4.4501,4.4501,3.7966,3.8479,3.8701,0.0,3.845,3.8608,3.877,3.8935,0.0,0.0,3.9299,3.9299,3.9299,3.9299,3.9299,3.9299,3.9299,0.0,0.0,0.0,0.0,3.9352,3.9537,3.9651,3.9703,3.9833,0.0,4.0096,0.0,0.0,4.0096,0.0,0.0,0.0,0.0,0.0,4.0096,4.0096,4.0096,4.0096,4.0096,4.0096,4.0146,4.0483,4.0628,4.058,4.0221,4.0328,4.0652,4.0754,4.1253,4.1867,4.2115,4.2438,4.2731,4.2863,4.2901,4.2865,4.2647,4.2592,4.2538,4.2339,4.2285,4.2285,4.2285,4.2285,4.2285,4.2285,4.2285,4.2377,4.266,4.2696,0.0,0.0,0.0,0.0,0.0,0.0,0.0,4.4244,0.0,4.4277,4.4199,4.4321,4.4426,4.4482,4.4501,4.4501,4.4501,4.4501,4.4501,4.4501,4.4501,4.4501,4.4501,4.4501,4.4501,4.4501,4.4501,4.4501,4.4501,4.4501,4.4501,4.4501,4.4501,4.4501,4.4501,4.4501,4.4501,4.4515,4.4605,4.4712,4.4757,4.4565,4.4501,4.4501,3.8662,0.0,0.0,3.9299,0.0,3.9299,3.9299,3.9299,0.0,3.9299,3.9299,0.0,3.9299,3.9299,3.9299,3.9299,3.9299,0.0,3.9379,0.0,0.0,3.9395,3.9484,3.9573,3.9703,3.9781,0.0,4.0096,0.0,0.0,4.0096,0.0,0.0,0.0,0.0,4.0096,4.0121,4.0328,4.0279,4.0121,4.0328,4.0402,0.0,4.0683,4.0926,4.1071,4.0808,4.0879,4.1094,4.1094,4.1455,4.1931,4.2136,4.2378,4.2634,4.2844,4.2901,4.2901,4.2901,4.2901,4.2901,4.2901,4.2901,4.2901,4.2901,4.2901,4.2901,4.2901,4.2901,4.3013,4.3354,4.3458,0.0,0.0,0.0,0.0,0.0,0.0,0.0,0.0,4.4501,4.444,4.4292,4.4411,4.4501,4.4501,4.4501,4.4501,4.4501,4.4501,4.4501,4.4501,4.4501,4.4501,4.4501,4.4501,4.4501,4.4501,4.4501,4.4501,4.4501,4.4501,4.4501,4.4501,4.4501,4.4501,4.4501,4.4501,4.4524,4.4592,4.4738,4.4821,4.487,4.4738,4.4632,4.4592,3.9299,0.0,0.0,0.0,0.0,3.9299,3.9299,3.9299,3.9299,3.9299,0.0,3.9299,3.9299,3.9299,3.9299,3.9299,0.0,3.9352,3.9475,3.9379,3.9379,3.9501,3.9405,3.9484,3.9729,3.9729,0.0,0.0,0.0,4.0096,4.0096,0.0,0.0,0.0,0.0,0.0,0.0,4.0683,4.0659,4.0328,4.0731,4.0879,4.0919,4.0949,4.123,4.1591,4.1656,4.1635,4.1591,4.1591,4.1635,4.1743,4.2157,4.2279,4.2378,4.2787,4.2901,4.2901,4.2901,4.2901,4.2901,4.2901,4.2901,4.2901,4.2901,4.2901,4.2901,4.2901,4.2901,4.2995,4.332,4.3646,0.0,0.0,0.0,0.0,0.0,0.0,0.0,0.0,0.0,0.0,4.4501,4.4501,4.4501,4.4501,4.4501,4.4501,4.4501,4.4501,4.4501,4.4501,4.4501,4.4501,4.4501,4.4501,4.4501,4.4501,4.4501,4.4501,4.4501,4.4501,4.4501,4.4501,4.4528,4.4528,4.4528,4.4556,4.4632,4.4757,4.487,4.4931,4.4943,4.4943,4.4858,4.4776,3.9299,0.0,0.0,0.0,0.0,3.9299,3.9299,3.9299,3.9299,3.9299,3.9299,3.9299,3.9299,3.9299,3.9299,3.9299,3.9299,0.0,0.0,0.0,0.0,3.9501,3.9573,3.9703,3.9875,3.9858,3.9935,0.0,4.0096,4.0096,4.0096,4.0096,4.0096,0.0,0.0,0.0,4.0707,4.1185,0.0,4.1258,4.1326,4.137,4.1432,4.1803,4.2011,4.2136,4.2518,4.2418,4.2074,4.2074,4.232,4.2673,4.275,4.2787,4.2806,4.2882,4.2901,4.2901,4.2901,4.2901,4.2901,4.2901,4.2901,4.2901,4.2901,4.2901,4.2901,4.2901,4.2901,4.3087,4.3689,4.4192,4.456,0.0,0.0,0.0,0.0,0.0,0.0,0.0,0.0,4.4501,4.4501,4.4501,4.4501,4.4501,4.4501,4.4501,4.4501,4.4501,4.4501,4.4501,4.4501,4.4501,4.4501,4.4501,4.4501,4.4501,4.4501,4.4501,4.4501,4.4501,4.4501,4.4515,4.4619,4.4672,4.4672,4.477,4.4907,4.5026,4.5068,4.5136,4.5224,4.5224,4.5148,4.5128,0.0,0.0,0.0,0.0,0.0,3.9299,3.9299,3.9299,3.9299,3.9299,3.9299,3.9299,3.9299,3.9299,3.9299,3.9299,3.9299,3.9299,3.9299,3.9352,3.9448,3.9501,3.9563,3.9694,3.9901,3.9901,3.9977,4.0096,4.0353,4.0458,4.0458,4.0458,4.0458,4.0458,0.0,4.0731,0.0,0.0,4.1721,4.1525,4.1782,4.1867,4.1888,4.2115,4.2358,4.2595,4.2825,4.275,4.2557,4.2557,4.2711,4.2901,4.2901,4.2901,4.2901,4.2901,4.2901,4.2901,4.2901,4.2901,4.2901,4.2901,4.2901,4.2901,4.2901,4.3013,4.3124,4.3195,4.3267,4.346,4.3918,4.4402,4.4685,4.4605,4.4592,0.0,0.0,0.0,0.0,0.0,0.0,0.0,0.0,4.4501,4.4501,4.4501,4.4501,4.4501,4.4501,4.4501,4.4501,4.4501,4.4501,4.4501,4.4501,4.4501,4.4501,4.4501,4.4565,4.4605,4.4605,4.4685,4.4712,4.4712,4.4789,4.4796,4.4808,4.4943,4.5038,4.5114,4.5181,4.5235,4.5307,4.5307,4.5513,4.5878,0.0,3.9299,0.0,0.0,3.9299,3.9299,3.9299,3.9299,3.9299,3.9299,3.9299,3.9299,3.9299,3.9299,3.9299,3.9299,3.9299,3.9299,3.9299,3.9325,3.9395,3.9501,3.9537,3.9668,3.9901,3.9926,3.9986,0.0,0.0,4.0716,4.0537,4.081,4.0949,4.0949,4.1065,4.1298,4.1678,4.2157,4.2136,4.1828,4.2198,4.2358,4.2358,4.2358,4.2595,4.2901,4.2901,4.2901,4.2901,4.2901,4.2901,4.2901,4.2901,4.2901,4.2901,4.2901,4.2901,4.2901,4.2901,4.2901,4.2901,4.2901,4.2901,4.2901,4.2901,4.3124,4.332,4.3439,4.3625,4.3857,4.4106,4.4416,4.4632,4.457,4.4605,0.0,0.0,0.0,0.0,0.0,0.0,0.0,4.4501,4.4501,4.4501,4.4501,4.4501,4.4501,4.4501,4.4501,4.4501,4.4501,4.4501,4.4501,4.4501,4.4501,4.4501,4.4501,4.4632,4.4712,4.4693,4.4833,4.4895,4.4895,4.4919,4.4955,4.4979,4.5103,4.5148,4.5159,4.5265,4.5307,4.5326,4.5488,4.5965,4.6557,0.0,0.0,0.0,3.9299,3.9299,3.9299,3.9299,3.9299,3.9299,3.9299,3.9299,3.9299,3.9299,3.9299,3.9299,3.9299,3.9299,3.9299,3.9299,3.9405,3.9501,3.9501,3.972,3.9875,3.9901,4.0011,4.0087,0.0,0.0,4.0416,3.9738,4.0899,4.1437,4.1459,4.1867,4.2095,4.2157,4.2634,4.2806,4.2769,4.2825,4.2844,4.2844,4.2844,4.2863,4.2901,4.2901,4.2901,4.2901,4.2901,4.2901,4.2901,4.2901,4.2901,4.2901,4.2901,4.2901,4.2901,4.2901,4.2901,4.2901,4.2901,4.2901,4.2901,4.2901,4.3124,4.3303,4.332,4.3728,4.4106,4.4246,4.4402,4.4551,4.4659,4.4592,4.4496,0.0,0.0,4.4632,0.0,0.0,0.0,4.4515,4.4501,4.4501,4.4501,4.4501,4.4501,4.4501,4.4501,4.4501,4.4501,4.4501,4.4501,4.4501,4.4501,4.4501,4.4501,4.4632,4.4712,4.4693,4.4833,4.4895,4.4907,4.5033,4.5148,4.5256,4.5286,4.5286,4.5286,4.5297,4.5307,4.5403,4.6118,4.6443,4.6729,3.9299,3.9299,3.9299,3.9299,3.9299,3.9299,3.9299,3.9299,3.9299,3.9299,3.9299,3.9299,3.9299,3.9299,3.9299,3.9299,3.9299,3.9299,3.9299,3.9352,3.9422,3.9501,3.9694,3.9807,3.9901,4.0037,4.0246,0.0,0.0,4.1208,4.1173,4.1683,4.1909,4.1931,4.2115,4.2358,4.2634,4.2825,4.2901,4.2901,4.2901,4.2901,4.2901,4.2901,4.2901,4.2901,4.2901,4.2901,4.2901,4.2901,4.2901,4.2901,4.2901,4.2901,4.2901,4.2901,4.2901,4.2901,4.2901,4.2901,4.2901,4.2901,4.2901,4.2901,4.2901,4.3284,4.3658,4.3658,4.4143,4.4608,4.4642,4.4764,4.4821,4.4725,4.4706,4.4667,0.0,0.0,0.0,0.0,0.0,0.0,0.0,4.4501,4.4501,4.4501,4.4501,4.4501,4.4501,4.4501,4.4501,4.4501,4.4578,4.4619,4.4619,4.4619,4.4619,4.4619,4.4764,4.4808,4.4821,4.5038,4.5148,4.5148,4.5192,4.5246,4.5307,4.5307,4.5307,4.5364,4.5831,4.6023,4.6118,4.6978,4.7654,4.8285,3.9299,3.9299,3.9299,3.9299,3.9299,3.9299,3.9299,3.9299,3.9299,3.9299,3.9299,3.9299,3.9299,3.9299,3.9299,3.9299,3.9299,3.9299,3.9299,3.9325,3.9405,3.9501,3.9668,0.0,4.0096,4.0246,4.0531,4.1019,4.1477,4.1743,4.1859,4.1998,4.2183,4.2398,4.2398,4.2595,4.2901,4.2901,4.2901,4.2901,4.2901,4.2901,4.2901,4.2901,4.2901,4.2901,4.2901,4.2901,4.2901,4.2901,4.2901,4.2901,4.2901,4.2901,4.2901,4.2901,4.2901,4.2919,4.2938,4.2957,4.2957,4.2994,4.2994,4.3013,4.3105,4.3559,4.4008,4.4154,4.457,4.4895,4.4895,4.4962,4.4919,4.4738,4.4751,4.4725,0.0,4.4524,0.0,0.0,4.4524,4.4537,4.4496,4.4501,4.4501,4.4501,4.4501,4.4501,4.4501,4.4501,4.4528,4.457,4.4646,4.4725,4.4764,4.4725,4.4725,4.4745,4.4846,4.4919,4.4955,4.5192,4.5307,4.5307,4.5307,4.5307,4.5307,4.5307,4.543,4.5698,4.629,4.6685,4.7053,4.7914,4.8718,4.9394,3.9299,3.9299,3.9299,3.9299,3.9299,3.9299,3.9299,3.9299,3.9299,3.9299,3.9299,3.9299,3.9299,3.9299,3.9299,3.9299,3.9299,3.9299,3.9299,3.9405,3.9501,3.9501,3.9746,4.0121,4.0577,4.0713,4.1019,4.1481,0.0,4.1785,4.1038,4.15,4.2121,4.2882,4.2882,4.2882,4.2901,4.2901,4.2901,4.2901,4.2901,4.2901,4.2901,4.2901,4.2901,4.2901,4.2901,4.2901,4.2901,4.2901,4.2901,4.2901,4.2901,4.2901,4.2901,4.2901,4.2901,4.2938,4.3049,4.3104,4.3123,4.3178,4.3196,4.3268,4.361,4.3886,4.424,4.4783,4.4883,4.4895,4.4895,4.4783,4.4693,4.4712,4.4592,4.4501,4.4501,4.4619,0.0,4.4515,4.4619,4.4646,4.4515,4.4501,4.4501,4.4501,4.4501,4.4501,4.4501,4.4501,4.4551,4.4699,4.4712,4.4757,4.4895,4.4776,4.4776,4.4895,4.4895,4.4967,4.5103,4.5254,4.5307,4.5307,4.5307,4.5307,4.5307,4.5307,4.5774,4.65,4.65,4.7103,4.8078,4.8961,4.9365,4.9616,3.9299,3.9299,3.9299,3.9299,3.9299,3.9299,3.9299,3.9299,3.9299,3.9299,3.9299,3.9299,3.9299,3.9299,3.9299,3.9299,3.9299,3.9325,3.9432,3.9475,3.9677,4.0087,4.0269,4.0594,4.1053,4.119,4.1521,4.199,4.2136,4.2215,4.2294,4.2445,4.2647,4.2901,4.2901,4.2901,4.2901,4.2901,4.2901,4.2901,4.2901,4.2901,4.2901,4.2901,4.2901,4.2901,4.2901,4.2901,4.2901,4.2901,4.2901,4.2901,4.2901,4.2957,4.303,4.303,4.3068,4.3105,4.316,4.316,4.316,4.3178,4.3374,4.356,4.3677,4.3977,4.4393,4.4931,4.4955,4.4962,4.5148,4.5136,4.5091,4.4998,4.4931,4.487,4.4802,0.0,4.4802,4.4659,4.4672,4.4646,4.4515,4.4501,4.4501,4.4501,4.4501,4.4501,4.4501,4.4578,4.4659,4.4699,4.4802,4.4895,4.5045,4.4895,4.4895,4.5045,4.5045,4.5114,4.5243,4.5286,4.5307,4.5307,4.5307,4.5307,4.5345,4.5889,4.6345,4.681,4.796,4.8654,4.912,4.994,5.0375,5.0565,3.9299,3.9299,3.9299,3.9299,3.9299,3.9299,3.9299,3.9299,3.9299,3.9299,3.9299,3.9299,3.9299,3.9299,3.9299,3.9299,3.9299,3.9342,3.9422,3.9677,4.0003,4.0375,4.0744,4.1168,4.1635,4.1717,4.1994,4.2458,4.2458,4.2614,4.2901,4.2901,4.2901,4.2901,4.2901,4.2901,4.2901,4.2901,4.2901,4.2901,4.2901,4.2901,4.2901,4.2901,4.2901,4.2901,4.2901,4.2901,4.2901,4.2901,4.2901,4.2901,4.2901,4.3012,4.3123,4.3049,4.3105,4.316,4.316,4.3178,4.3214,4.3214,4.3512,4.3871,4.408,4.4411,4.4764,4.5106,4.5114,4.5103,4.5275,4.5265,4.5192,4.5114,4.5068,4.4986,4.4833,4.4821,4.4783,0.0,4.4712,4.4699,4.4659,4.4646,4.4646,4.4646,4.4646,4.4646,4.4646,4.4685,4.4751,4.4846,4.4931,4.5045,4.517,4.5038,4.5038,4.517,4.517,4.5213,4.5307,4.5307,4.5307,4.5307,4.5307,4.551,4.5897,4.6414,4.7079,4.7912,4.897,4.9658,5.0124,5.0626,5.091,5.1088,3.9299,3.9299,3.9299,3.9299,3.9348,3.9381,3.9381,3.9381,3.9381,3.9381,3.9332,3.9299,3.9299,3.9299,3.9299,3.9299,3.9299,3.9325,3.9352,4.0011,4.0424,4.0497,4.1168,4.1782,4.2257,4.2257,4.2458,4.2901,4.2901,4.2901,4.2901,4.2901,4.2901,4.2901,4.2901,4.2901,4.2901,4.2901,4.2901,4.2901,4.2901,4.2901,4.2901,4.2901,4.2901,4.2901,4.2901,4.2901,4.2901,4.2901,4.2901,4.2901,4.2901,4.3031,4.316,4.2975,4.3012,4.3123,4.3104,4.316,4.3233,4.3232,4.3647,4.4196,4.4688,4.5057,4.5286,4.5286,4.5286,4.5297,4.5297,4.5192,4.5114,4.5114,4.5003,4.4883,4.4745,4.4732,4.4751,4.4738,4.4738,4.4757,4.4883,4.4895,4.4895,4.4895,4.4895,4.4895,4.4907,4.4802,4.4833,4.5103,4.5103,4.517,4.5297,4.517,4.517,4.5307,4.5307,4.5307,4.5307,4.5307,4.5307,4.5307,4.5375,4.5945,4.681,4.6944,4.7997,4.9525,4.9575,5.0178,5.102,5.102,5.1082,5.1202,3.9299,3.9299,3.9299,3.9299,3.9779,4.0144,4.0144,4.0144,4.0144,4.0144,3.9647,3.9299,3.9299,3.9299,3.9299,3.9299,3.9299,3.9468,3.9867,4.0237,4.0744,4.1516,4.1864,4.2259,4.2711,4.2731,4.2787,4.2901,4.2901,4.2901,4.2901,4.2901,4.2901,4.2901,4.2901,4.2901,4.2901,4.2901,4.2901,4.2901,4.2901,4.2901,4.2901,4.2901,4.2901,4.2901,4.2901,4.2901,4.2901,4.2901,4.2901,4.2901,4.2901,4.3012,4.3105,4.3068,4.3178,4.3323,4.3196,4.3269,4.3393,4.3612,4.414,4.4682,4.4972,4.5084,4.5148,4.5148,4.5148,4.5181,4.5286,4.5256,4.5246,4.5246,4.5243,4.5192,4.5159,4.5159,4.5125,4.5033,4.501,4.4986,4.4907,4.4895,4.4895,4.4895,4.4895,4.4943,4.5057,4.5014,4.5026,4.5103,4.5103,4.517,4.5297,4.517,4.517,4.5307,4.5307,4.5307,4.5307,4.5307,4.5307,4.5345,4.6109,4.659,4.6915,4.8284,4.9175,4.9717,5.0387,5.084,5.1146,5.1146,5.1159,5.1202,3.9812,4.0061,4.0249,4.0249,4.058,4.0862,4.0862,4.0862,4.0746,4.0442,4.0061,3.968,3.9332,3.9458,3.959,3.959,3.959,3.9755,4.0112,4.0689,4.1276,4.1909,4.23,4.2634,4.2882,4.2901,4.2901,4.2901,4.2901,4.2901,4.2901,4.2901,4.2901,4.2901,4.2901,4.2901,4.2901,4.2901,4.2901,4.2901,4.2901,4.2901,4.2901,4.2901,4.2901,4.2901,4.2901,4.2901,4.2901,4.2901,4.2901,4.2901,4.2901,4.2994,4.3142,4.3104,4.3215,4.3287,4.3196,4.3269,4.3497,4.3962,4.4425,4.4831,4.5117,4.5192,4.5192,4.5192,4.5192,4.5213,4.5286,4.5307,4.5307,4.5307,4.5307,4.5286,4.5213,4.5203,4.5181,4.5114,4.5103,4.5103,4.5072,4.5091,4.5091,4.5091,4.5091,4.5114,4.5181,4.5192,4.5192,4.5192,4.5192,4.5243,4.5297,4.5224,4.5224,4.5307,4.5307,4.5319,4.54,4.54,4.563,4.6061,4.6605,4.7339,4.8197,4.9188,4.9906,5.0429,5.0907,5.1134,5.1202,5.1202,5.1202,5.1202,4.0542,4.1011,4.1409,4.1409,4.148,4.1562,4.1562,4.1562,4.1359,4.0779,4.0542,4.0188,3.9594,3.9761,3.9926,3.9961,4.0062,4.0204,4.0358,4.1253,4.1864,4.208,4.2616,4.2901,4.2901,4.2901,4.2901,4.2901,4.2901,4.2901,4.2901,4.2901,4.2901,4.2901,4.2901,4.2901,4.2901,4.2901,4.2901,4.2901,4.2901,4.2901,4.2901,4.2901,4.2901,4.2901,4.2901,4.2901,4.2901,4.2919,4.2938,4.2938,4.2957,4.3068,4.3196,4.3123,4.3178,4.3233,4.3196,4.3393,4.3747,4.4313,4.4643,4.4887,4.5224,4.5307,4.5307,4.5307,4.5307,4.5307,4.5307,4.5307,4.5307,4.5307,4.5307,4.5265,4.5148,4.5136,4.5136,4.5136,4.5136,4.517,4.5297,4.5307,4.5307,4.5307,4.5307,4.5307,4.5307,4.5307,4.5307,4.5307,4.5307,4.5307,4.5307,4.5307,4.5317,4.5319,4.5319,4.5409,4.5531,4.5531,4.6025,4.6904,4.7055,4.8118,4.9709,4.9859,5.0436,5.1202,5.1202,5.1202,5.1202,5.1202,5.1202,5.1202,4.1127,4.1342,4.1409,4.1409,4.191,4.2324,4.2324,4.2324,4.2274,4.2204,4.1127,4.0452,4.0635,4.0202,3.9995,4.0294,4.0825,4.1192,4.1197,4.1674,4.2118,4.2494,4.2749,4.2901,4.2901,4.2901,4.2901,4.2901,4.2901,4.2901,4.2901,4.2901,4.2901,4.2901,4.2901,4.2901,4.2901,4.2901,4.2901,4.2901,4.2901,4.2901,4.2901,4.2901,4.2901,4.2901,4.2901,4.2901,4.2919,4.303,4.3067,4.3068,4.3142,4.316,4.3196,4.3196,4.3269,4.3393,4.3562,4.405,4.4533,4.4701,4.4957,4.5224,4.5297,4.5307,4.5307,4.5307,4.5307,4.5307,4.5307,4.5307,4.5307,4.5307,4.5307,4.5297,4.5275,4.5275,4.5275,4.5275,4.5275,4.5286,4.5297,4.5307,4.5307,4.5307,4.5307,4.5307,4.5307,4.5307,4.5307,4.5307,4.5307,4.5307,4.5307,4.5307,4.535,4.5467,4.5467,4.554,4.5676,4.5676,4.6108,4.6942,4.7811,4.8759,4.9775,5.0629,5.1054,5.1202,5.1202,5.1202,5.1202,5.1202,5.1202,5.1202,4.1939,4.2307,4.2572,4.2572,4.2853,4.3085,4.3085,4.3085,4.2936,4.2539,4.1939,4.135,4.0966,4.0823,4.0754,4.0734,4.144,4.1874,4.1874,4.2172,4.2456,4.2747,4.2844,4.2901,4.2901,4.2901,4.2901,4.2901,4.2901,4.2901,4.2901,4.2901,4.2901,4.2901,4.2901,4.2901,4.2901,4.2901,4.2901,4.2901,4.2901,4.2901,4.2901,4.2901,4.2901,4.2901,4.2901,4.2901,4.2919,4.3049,4.3104,4.3123,4.3178,4.3251,4.3323,4.3323,4.3444,4.3647,4.3809,4.4299,4.4751,4.4788,4.5045,4.5307,4.5307,4.5307,4.5307,4.5307,4.5307,4.5307,4.5307,4.5307,4.5307,4.5307,4.5307,4.5307,4.5307,4.5307,4.5307,4.5307,4.5307,4.5307,4.5307,4.5307,4.5307,4.5307,4.5307,4.5307,4.5307,4.5307,4.5307,4.5307,4.537,4.5419,4.5419,4.5476,4.5549,4.5618,4.5618,4.5684,4.5824,4.6269,4.6955,4.7869,4.8794,4.9705,5.0545,5.101,5.1202,5.1202,5.1202,5.1202,5.1202,5.1202,5.1202,5.1202,4.2704,4.3201,4.3598,4.3598,4.3598,4.3598,4.3598,4.3598,4.34,4.282,4.2605,4.2271,4.1637,4.152,4.1471,4.1424,4.1976,4.2308,4.2308,4.2532,4.2747,4.2882,4.2901,4.2901,4.2901,4.2901,4.2901,4.2901,4.2901,4.2901,4.2901,4.2901,4.2901,4.2901,4.2901,4.2901,4.2901,4.2901,4.2901,4.2901,4.2901,4.2901,4.2901,4.2901,4.2901,4.2901,4.2901,4.2901,4.2919,4.3049,4.3104,4.3123,4.3214,4.334,4.3429,4.3516,4.3777,4.405,4.4147,4.4538,4.4922,4.4922,4.5109,4.5307,4.5307,4.5307,4.5307,4.5307,4.5307,4.5307,4.5307,4.5307,4.5307,4.5307,4.5307,4.5307,4.5307,4.5307,4.5307,4.5307,4.5307,4.5307,4.5307,4.5307,4.5307,4.5307,4.5307,4.5307,4.5307,4.5307,4.5298,4.5359,4.5458,4.5513,4.5549,4.566,4.5723,4.5746,4.5746,4.5909,4.6242,4.6862,4.7797,4.893,4.9615,5.0386,5.1202,5.1202,5.1202,5.1202,5.1202,5.1202,5.1202,5.1202,5.1202,5.1202,4.3367,4.3565,4.3598,4.3598,4.3598,4.3598,4.3598,4.3598,4.3582,4.3515,4.292,4.2767,4.353,4.233,4.1818,4.2596,4.2441,4.2308,4.2308,4.267,4.2882,4.2901,4.2901,4.2901,4.2901,4.2901,4.2901,4.2901,4.2901,4.2901,4.2901,4.2901,4.2901,4.2901,4.2901,4.2901,4.2901,4.2901,4.2901,4.2901,4.2901,4.2901,4.2901,4.2901,4.2901,4.2901,4.2901,4.2901,4.2919,4.3049,4.3142,4.3214,4.334,4.3429,4.3548,4.3862,4.4318,4.4726,4.4739,4.5,4.5256,4.5256,4.5267,4.5307,4.5307,4.5307,4.5307,4.5307,4.5307,4.5307,4.5307,4.5307,4.5307,4.5307,4.5307,4.5307,4.5307,4.5307,4.5307,4.5307,4.5307,4.5307,4.5307,4.5307,4.5307,4.5307,4.5307,4.5307,4.5307,4.5307,4.535,4.5476,4.5495,4.5566,4.5673,4.57,4.5761,4.5886,4.5886,4.6345,4.7209,4.7268,4.8205,4.9809,4.9868,5.0386,5.1202,5.1202,5.1202,5.1202,5.1202,5.1202,5.1202,5.1202,5.1202,5.1202,4.3532,4.3598,4.3598,4.3598,4.3598,4.3598,4.3598,4.3598,4.3598,4.3598,4.335,4.3335,4.3744,4.3278,4.3081,4.3448,4.3186,4.298,4.298,4.2922,4.2901,4.2901,4.2901,4.2901,4.2901,4.2901,4.2901,4.2901,4.2901,4.2901,4.2901,4.2901,4.2901,4.2901,4.2901,4.2901,4.2901,4.2901,4.2901,4.2901,4.2901,4.2901,4.2901,4.2901,4.2901,4.2901,4.2901,4.2901,4.2919,4.3049,4.3123,4.316,4.3323,4.3531,4.3791,4.4346,4.4637,4.4856,4.5045,4.5194,4.5307,4.5307,4.5307,4.5307,4.5307,4.5307,4.5307,4.5307,4.5307,4.5307,4.5307,4.5307,4.5307,4.5307,4.5307,4.5307,4.5307,4.5307,4.5307,4.5307,4.5307,4.5307,4.5307,4.5307,4.5307,4.5307,4.5307,4.5307,4.5307,4.538,4.5522,4.5746,4.5754,4.5769,4.5819,4.5867,4.5917,4.5972,4.651,4.6954,4.7331,4.8425,4.926,4.9926,5.0464,5.0891,5.1202,5.1202,5.1202,5.1202,5.1202,5.1202,5.1202,5.1202,5.1202,5.1202,4.3598,4.3598,4.3598,4.3598,4.3598,4.3598,4.3598,4.3598,4.3598,4.3598,4.3598,4.3735,4.4102,4.3953,4.395,4.4237,4.3966,4.3675,4.3426,4.3102,4.2901,4.2901,4.2901,4.2901,4.2901,4.2901,4.2901,4.2901,4.2901,4.2901,4.2901,4.2901,4.2901,4.2901,4.2901,4.2901,4.2901,4.2901,4.2901,4.2901,4.2901,4.2901,4.2901,4.2901,4.2901,4.2901,4.2901,4.2901,4.2901,4.3012,4.3068,4.316,4.3287,4.3647,4.4095,4.465,4.4868,4.5011,4.5235,4.5307,4.5307,4.5307,4.5307,4.5307,4.5307,4.5307,4.5307,4.5307,4.5307,4.5307,4.5307,4.5307,4.5307,4.5307,4.5307,4.5307,4.5307,4.5307,4.5307,4.5307,4.5307,4.5307,4.5307,4.5307,4.5307,4.5307,4.5307,4.5328,4.536,4.5531,4.5715,4.5893,4.5912,4.5925,4.5925,4.5969,4.6138,4.6424,4.7007,4.7589,4.8153,4.9343,5.0042,5.0328,5.095,5.1202,5.1202,5.1202,5.1202,5.1202,5.1202,5.1202,5.1202,5.1202,5.1202,5.1241,4.3598,4.3598,4.3598,4.3598,4.3598,4.3598,4.3598,4.3598,4.3598,4.3598,4.3598,4.3948,4.4801,4.426,4.4174,4.5025,4.4799,4.4264,4.3461,4.3102,4.2919,4.2919,4.2901,4.2901,4.2901,4.2901,4.2901,4.2901,4.2901,4.2901,4.2901,4.2901,4.2901,4.2901,4.2901,4.2901,4.2901,4.2901,4.2901,4.2901,4.2901,4.2901,4.2901,4.2901,4.2901,4.2901,4.2901,4.2901,4.2901,4.2901,4.305,4.3196,4.3196,4.3756,4.4452,4.4726,4.5034,4.5307,4.5307,4.5307,4.5307,4.5307,4.5307,4.5307,4.5307,4.5307,4.5307,4.5307,4.5307,4.5307,4.5307,4.5307,4.5307,4.5307,4.5307,4.5307,4.5307,4.5307,4.5307,4.5307,4.5307,4.5307,4.5307,4.5307,4.5307,4.5307,4.5307,4.536,4.5495,4.5754,4.59,4.59,4.5972,4.6002,4.6021,4.6021,4.6443,4.7293,4.7312,4.823,4.9906,4.9906,5.0386,5.1202,5.1202,5.1202,5.1202,5.1202,5.1202,5.1202,5.1202,5.1202,5.1202,5.1202,5.1202,5.1319,4.3598,4.3598,4.3598,4.3598,4.3598,4.3598,4.3598,4.3598,4.3598,4.3598,4.3877,4.4321,4.4855,4.4989,4.5362,4.6087,4.5729,4.5237,4.4761,4.4109,4.3733,4.3733,4.319,4.2901,4.2901,4.2901,4.2901,4.2901,4.2901,4.2901,4.2901,4.2901,4.2901,4.2901,4.2901,4.2901,4.2901,4.2901,4.2901,4.2901,4.2901,4.2901,4.2901,4.2901,4.2901,4.2901,4.2901,4.2901,4.2939,4.3231,4.3353,4.3507,4.4058,4.4447,4.4739,4.5065,4.5224,4.5307,4.5307,4.5307,4.5307,4.5307,4.5307,4.5307,4.5307,4.5307,4.5307,4.5307,4.5307,4.5307,4.5307,4.5307,4.5307,4.5307,4.5307,4.5307,4.5307,4.5307,4.5307,4.5307,4.5307,4.5307,4.5307,4.5307,4.5307,4.5307,4.539,4.554,4.5769,4.5866,4.5912,4.5978,4.5986,4.6288,4.6909,4.6909,4.7045,4.7312,4.8541,4.9401,4.9926,5.0522,5.095,5.1202,5.1202,5.1202,5.1202,5.1202,5.1202,5.1202,5.1202,5.1202,5.1202,5.1202,5.1552,5.2076,4.3598,4.3598,4.3598,4.3598,4.3598,4.3598,4.3598,4.3598,4.3598,4.3598,4.3848,4.4265,4.4828,4.5258,4.5794,4.6525,4.6185,4.5871,4.5777,4.5019,4.4566,4.4566,4.3788,4.3226,4.2919,4.2901,4.2901,4.2901,4.2901,4.2901,4.2901,4.2901,4.2901,4.2901,4.2901,4.2901,4.2901,4.2901,4.2901,4.2901,4.2901,4.2901,4.2901,4.2901,4.2901,4.2919,4.2957,4.305,4.3177,4.3473,4.367,4.3921,4.454,4.4763,4.4868,4.5194,4.5307,4.5307,4.5307,4.5307,4.5307,4.5307,4.5307,4.5307,4.5307,4.5307,4.5307,4.5307,4.5307,4.5307,4.5307,4.5307,4.5307,4.5307,4.5307,4.5307,4.5307,4.5307,4.5307,4.5307,4.5307,4.5307,4.5307,4.5307,4.5309,4.538,4.5558,4.5731,4.5893,4.5938,4.6121,4.6502,4.6502,4.6929,4.7803,4.8153,4.8327,4.8347,4.9401,5.0081,5.0425,5.0969,5.1202,5.1202,5.1202,5.1202,5.1202,5.1202,5.1202,5.1202,5.1202,5.1202,5.1202,5.1202,5.1707,5.2445,4.3598,4.3598,4.3598,4.3598,4.3598,4.3598,4.3598,4.3598,4.3598,4.3598,4.37,4.4047,4.4855,4.5224,4.5784,4.6596,4.6396,4.6347,4.6592,4.5852,4.5399,4.5399,4.4639,4.386,4.3118,4.2973,4.2901,4.2901,4.2901,4.2901,4.2901,4.2901,4.2901,4.2901,4.2901,4.2901,4.2901,4.2901,4.2901,4.2901,4.2901,4.2901,4.2901,4.2901,4.2919,4.2938,4.3068,4.3303,4.3539,4.374,4.4069,4.4443,4.4758,4.4843,4.4891,4.5205,4.5307,4.5307,4.5307,4.5307,4.5307,4.5307,4.5307,4.5307,4.5307,4.5307,4.5307,4.5307,4.5307,4.5307,4.5307,4.5307,4.5307,4.5307,4.5307,4.5307,4.5307,4.5307,4.5307,4.5307,4.5307,4.5307,4.5328,4.5338,4.54,4.5531,4.5761,4.59,4.5912,4.6036,4.6482,4.7273,4.737,4.7822,4.8716,4.9499,4.9906,4.9906,4.9984,5.0425,5.1202,5.1202,5.1202,5.1202,5.1202,5.1202,5.1202,5.1202,5.1202,5.1202,5.1202,5.1202,5.1202,5.128,5.1824,5.264,4.3598,4.3598,4.3598,4.3598,4.3598,4.3598,4.3598,4.3598,4.3598,4.3598,4.4384,4.4984,4.5197,4.6059,4.6783,4.7125,4.7284,4.7383,4.7425,4.6703,4.625,4.625,4.5472,4.4965,4.4784,4.3534,4.2901,4.2901,4.2901,4.2901,4.2901,4.2901,4.2901,4.2901,4.2901,4.2901,4.2901,4.2901,4.2901,4.2901,4.2901,4.2901,4.2901,4.2901,4.2975,4.3086,4.3337,4.3525,4.3738,4.4294,4.4745,4.5106,4.5173,4.5184,4.5213,4.5286,4.5307,4.5307,4.5307,4.5307,4.5307,4.5307,4.5307,4.5307,4.5307,4.5307,4.5307,4.5307,4.5307,4.5307,4.5307,4.5307,4.5307,4.5307,4.5307,4.5307,4.5307,4.5307,4.5307,4.5307,4.5307,4.5339,4.5438,4.5558,4.5676,4.5798,4.5873,4.5912,4.5989,4.6646,4.7104,4.7293,4.7958,4.8735,4.9615,4.9809,4.9906,4.9906,5.0581,5.1027,5.1202,5.1202,5.1202,5.1202,5.1202,5.1202,5.1202,5.1202,5.1202,5.1202,5.1202,5.1202,5.128,5.1901,5.2678,5.3636,4.3598,4.3598,4.3598,4.3598,4.3598,4.3598,4.3598,4.3789,4.3977,4.4042,4.4794,4.5433,4.5724,4.6424,4.7035,4.745,4.7615,4.7717,4.7717,4.7319,4.7083,4.7083,4.6305,4.587,4.587,4.4675,4.386,4.3462,4.31,4.2901,4.2901,4.2901,4.2901,4.2901,4.2901,4.2901,4.2901,4.2901,4.2901,4.2901,4.2901,4.2901,4.2901,4.2901,4.2975,4.3142,4.3475,4.3862,4.4308,4.4807,4.514,4.5307,4.5307,4.5307,4.5307,4.5307,4.5307,4.5307,4.5307,4.5307,4.5307,4.5307,4.5307,4.5307,4.5307,4.5307,4.5307,4.5307,4.5307,4.5307,4.5307,4.5307,4.5307,4.5307,4.5307,4.5307,4.5307,4.5307,4.5307,4.5307,4.535,4.5438,4.5593,4.5723,4.5819,4.5893,4.6312,4.6587,4.6618,4.7453,4.8114,4.8522,4.8968,4.9629,5.0503,5.0522,5.0522,5.0522,5.0989,5.1202,5.1202,5.1202,5.1202,5.1202,5.1202,5.1202,5.1202,5.1202,5.1202,5.1202,5.1202,5.1202,5.1299,5.2096,5.3203,5.4504,4.3598,4.3598,4.3598,4.3598,4.3598,4.3628,4.3717,4.4051,4.4418,4.4695,4.5153,4.5699,4.631,4.6683,4.7084,4.7657,4.7717,4.7717,4.7717,4.7717,4.7717,4.7717,4.7065,4.6721,4.6721,4.5924,4.511,4.4313,4.3498,4.3118,4.31,4.2955,4.2901,4.2901,4.2901,4.2901,4.2901,4.2901,4.2901,4.2901,4.2901,4.2901,4.2901,4.2938,4.305,4.3251,4.366,4.4266,4.4934,4.5213,4.5307,4.5307,4.5307,4.5307,4.5307,4.5307,4.5307,4.5307,4.5307,4.5307,4.5307,4.5307,4.5307,4.5307,4.5307,4.5307,4.5307,4.5307,4.5307,4.5307,4.5307,4.5307,4.5307,4.5307,4.5307,4.5307,4.5307,4.5307,4.5317,4.5319,4.5467,4.5618,4.5731,4.5975,4.6138,4.6138,4.7006,4.7531,4.7531,4.8347,4.9143,4.9887,5.0042,5.0464,5.1183,5.1202,5.1202,5.1202,5.1202,5.1202,5.1202,5.1202,5.1202,5.1202,5.1202,5.1202,5.1202,5.1202,5.1202,5.1202,5.1202,5.128,5.1513,5.2484,5.3844,5.534,4.3598,4.3598,4.3598,4.3598,4.3598,4.3747,4.4138,4.4253,4.453,4.5117,4.5775,4.6286,4.6613,4.7191,4.7615,4.7678,4.7717,4.7717,4.7717,4.7717,4.7717,4.7717,4.7609,4.7554,4.7554,4.6757,4.5943,4.5146,4.4331,4.3932,4.3914,4.3226,4.2901,4.2901,4.2901,4.2901,4.2901,4.2901,4.2901,4.2901,4.2901,4.2901,4.2901,4.303,4.3304,4.3677,4.4069,4.4656,4.5246,4.5277,4.5307,4.5307,4.5307,4.5307,4.5307,4.5307,4.5307,4.5307,4.5307,4.5307,4.5307,4.5307,4.5307,4.5307,4.5307,4.5307,4.5307,4.5307,4.5307,4.5307,4.5307,4.5307,4.5307,4.5307,4.5307,4.5307,4.5307,4.5307,4.5339,4.5457,4.568,4.584,4.5873,4.6628,4.7101,4.7101,4.7933,4.8425,4.8425,4.924,4.979,4.9906,5.0619,5.1086,5.1202,5.1202,5.1202,5.1202,5.1202,5.1202,5.1202,5.1202,5.1202,5.1202,5.1202,5.1202,5.1202,5.1202,5.1202,5.1202,5.1202,5.163,5.2426,5.4058,5.5262,5.6136,4.3598,4.3598,4.3598,4.3598,4.3818,4.4093,4.4412,4.491,4.5468,4.6017,4.6543,4.6954,4.7236,4.7533,4.7717,4.7717,4.7717,4.7717,4.7717,4.7717,4.7717,4.7717,4.7717,4.7717,4.7717,4.7355,4.7011,4.6649,4.5381,4.4765,4.4747,4.3951,4.357,4.3534,4.31,4.2901,4.2901,4.2901,4.2901,4.2901,4.2901,4.2938,4.303,4.3086,4.3375,4.382,4.4383,4.4887,4.5307,4.5307,4.5307,4.5307,4.5307,4.5307,4.5307,4.5307,4.5307,4.5307,4.5307,4.5307,4.5307,4.5307,4.5307,4.5307,4.5307,4.5307,4.5307,4.5307,4.5307,4.5307,4.5307,4.5307,4.5307,4.5307,4.5307,4.5307,4.5307,4.536,4.5485,4.5708,4.6225,4.6597,4.6672,4.7509,4.8036,4.8036,4.8832,4.9324,4.9324,5.0153,5.0619,5.0619,5.1008,5.1202,5.1202,5.1202,5.1202,5.1202,5.1202,5.1202,5.1202,5.1202,5.1202,5.1202,5.1202,5.1202,5.1202,5.1202,5.1202,5.1202,5.1202,5.1999,5.3281,5.4543,5.5553,5.6291]}]]